<?xml version="1.0" encoding="UTF-8" standalone="no" ?>
<gpx xmlns="http://www.topografix.com/GPX/1/1" xmlns:xsi="http://www.w3.org/2001/XMLSchema-instance" xsi:schemaLocation="http://www.topografix.com/GPX/1/1 http://www.topografix.com/GPX/1/1/gpx.xsd" version="1.1" creator="VisuGPX - https://www.visugpx.com">
  <metadata>
    <name>Font Lussan 03/05/15</name>
    <desc><![CDATA[Font Lussan 03/05/15]]></desc>
  </metadata>
  <trk>
    <name><![CDATA[Font Lussan]]></name>
    <desc><![CDATA[3 mai 2015  8:54 am]]></desc>
    <trkseg>
      <trkpt lat="44.18502" lon="4.33032">
        <ele>298.455</ele>
        <time>2015-05-03T06:55:08.850Z</time>
      </trkpt>
      <trkpt lat="44.18502" lon="4.33032">
        <ele>297.034</ele>
        <time>2015-05-03T06:55:08.851Z</time>
      </trkpt>
      <trkpt lat="44.18502" lon="4.33032">
        <ele>293.47</ele>
        <time>2015-05-03T06:55:08.951Z</time>
      </trkpt>
      <trkpt lat="44.18493" lon="4.33033">
        <ele>289.94</ele>
        <time>2015-05-03T06:55:15.481Z</time>
      </trkpt>
      <trkpt lat="44.18484" lon="4.33031">
        <ele>288.514</ele>
        <time>2015-05-03T06:55:20.677Z</time>
      </trkpt>
      <trkpt lat="44.18475" lon="4.33024">
        <ele>288.563</ele>
        <time>2015-05-03T06:55:25.805Z</time>
      </trkpt>
      <trkpt lat="44.18475" lon="4.33024">
        <ele>288.908</ele>
        <time>2015-05-03T06:55:37.803Z</time>
      </trkpt>
      <trkpt lat="44.18475" lon="4.33024">
        <ele>288.963</ele>
        <time>2015-05-03T06:55:37.903Z</time>
      </trkpt>
      <trkpt lat="44.18453" lon="4.33036">
        <ele>288.785</ele>
        <time>2015-05-03T06:55:57.862Z</time>
      </trkpt>
      <trkpt lat="44.18448" lon="4.33047">
        <ele>289.064</ele>
        <time>2015-05-03T06:56:02.406Z</time>
      </trkpt>
      <trkpt lat="44.18444" lon="4.33059">
        <ele>290.24</ele>
        <time>2015-05-03T06:56:06.832Z</time>
      </trkpt>
      <trkpt lat="44.18442" lon="4.33071">
        <ele>291.669</ele>
        <time>2015-05-03T06:56:11.094Z</time>
      </trkpt>
      <trkpt lat="44.18439" lon="4.33083">
        <ele>292.362</ele>
        <time>2015-05-03T06:56:15.349Z</time>
      </trkpt>
      <trkpt lat="44.18438" lon="4.33097">
        <ele>292.207</ele>
        <time>2015-05-03T06:56:19.661Z</time>
      </trkpt>
      <trkpt lat="44.18438" lon="4.33112">
        <ele>291.848</ele>
        <time>2015-05-03T06:56:24.611Z</time>
      </trkpt>
      <trkpt lat="44.18434" lon="4.33127">
        <ele>291.809</ele>
        <time>2015-05-03T06:56:29.563Z</time>
      </trkpt>
      <trkpt lat="44.1843" lon="4.33139">
        <ele>291.983</ele>
        <time>2015-05-03T06:56:33.907Z</time>
      </trkpt>
      <trkpt lat="44.18425" lon="4.33152">
        <ele>292.184</ele>
        <time>2015-05-03T06:56:38.088Z</time>
      </trkpt>
      <trkpt lat="44.18422" lon="4.33164">
        <ele>292.4</ele>
        <time>2015-05-03T06:56:42.275Z</time>
      </trkpt>
      <trkpt lat="44.18418" lon="4.33177">
        <ele>292.575</ele>
        <time>2015-05-03T06:56:46.299Z</time>
      </trkpt>
      <trkpt lat="44.18414" lon="4.33189">
        <ele>292.625</ele>
        <time>2015-05-03T06:56:50.561Z</time>
      </trkpt>
      <trkpt lat="44.18409" lon="4.33203">
        <ele>292.564</ele>
        <time>2015-05-03T06:56:55.184Z</time>
      </trkpt>
      <trkpt lat="44.18404" lon="4.33216">
        <ele>292.668</ele>
        <time>2015-05-03T06:56:59.804Z</time>
      </trkpt>
      <trkpt lat="44.18401" lon="4.33227">
        <ele>293.294</ele>
        <time>2015-05-03T06:57:03.802Z</time>
      </trkpt>
      <trkpt lat="44.18394" lon="4.33239">
        <ele>294.388</ele>
        <time>2015-05-03T06:57:08.634Z</time>
      </trkpt>
      <trkpt lat="44.18387" lon="4.33247">
        <ele>295.73</ele>
        <time>2015-05-03T06:57:12.736Z</time>
      </trkpt>
      <trkpt lat="44.18379" lon="4.33254">
        <ele>297.271</ele>
        <time>2015-05-03T06:57:16.823Z</time>
      </trkpt>
      <trkpt lat="44.18369" lon="4.3326">
        <ele>298.699</ele>
        <time>2015-05-03T06:57:21.535Z</time>
      </trkpt>
      <trkpt lat="44.18359" lon="4.33265">
        <ele>299.536</ele>
        <time>2015-05-03T06:57:26.621Z</time>
      </trkpt>
      <trkpt lat="44.18353" lon="4.33276">
        <ele>299.9</ele>
        <time>2015-05-03T06:57:31.266Z</time>
      </trkpt>
      <trkpt lat="44.18356" lon="4.3329">
        <ele>300.235</ele>
        <time>2015-05-03T06:57:35.723Z</time>
      </trkpt>
      <trkpt lat="44.18361" lon="4.33304">
        <ele>300.837</ele>
        <time>2015-05-03T06:57:40.438Z</time>
      </trkpt>
      <trkpt lat="44.18364" lon="4.33318">
        <ele>301.677</ele>
        <time>2015-05-03T06:57:44.394Z</time>
      </trkpt>
      <trkpt lat="44.18361" lon="4.33334">
        <ele>302.418</ele>
        <time>2015-05-03T06:57:48.870Z</time>
      </trkpt>
      <trkpt lat="44.18357" lon="4.33348">
        <ele>302.712</ele>
        <time>2015-05-03T06:57:52.670Z</time>
      </trkpt>
      <trkpt lat="44.18353" lon="4.33361">
        <ele>302.522</ele>
        <time>2015-05-03T06:57:56.175Z</time>
      </trkpt>
      <trkpt lat="44.18348" lon="4.33377">
        <ele>302.094</ele>
        <time>2015-05-03T06:58:00.374Z</time>
      </trkpt>
      <trkpt lat="44.18344" lon="4.33389">
        <ele>302.118</ele>
        <time>2015-05-03T06:58:03.623Z</time>
      </trkpt>
      <trkpt lat="44.18341" lon="4.33404">
        <ele>303.223</ele>
        <time>2015-05-03T06:58:07.553Z</time>
      </trkpt>
      <trkpt lat="44.18338" lon="4.33419">
        <ele>305.001</ele>
        <time>2015-05-03T06:58:11.330Z</time>
      </trkpt>
      <trkpt lat="44.18338" lon="4.33432">
        <ele>306.279</ele>
        <time>2015-05-03T06:58:14.342Z</time>
      </trkpt>
      <trkpt lat="44.18336" lon="4.33447">
        <ele>306.488</ele>
        <time>2015-05-03T06:58:17.450Z</time>
      </trkpt>
      <trkpt lat="44.18336" lon="4.3346">
        <ele>305.803</ele>
        <time>2015-05-03T06:58:20.379Z</time>
      </trkpt>
      <trkpt lat="44.18335" lon="4.33477">
        <ele>304.697</ele>
        <time>2015-05-03T06:58:23.789Z</time>
      </trkpt>
      <trkpt lat="44.18335" lon="4.33492">
        <ele>303.634</ele>
        <time>2015-05-03T06:58:26.836Z</time>
      </trkpt>
      <trkpt lat="44.18336" lon="4.33508">
        <ele>302.84</ele>
        <time>2015-05-03T06:58:30.126Z</time>
      </trkpt>
      <trkpt lat="44.18337" lon="4.33522">
        <ele>302.446</ele>
        <time>2015-05-03T06:58:32.909Z</time>
      </trkpt>
      <trkpt lat="44.18339" lon="4.33538">
        <ele>302.459</ele>
        <time>2015-05-03T06:58:36.198Z</time>
      </trkpt>
      <trkpt lat="44.18341" lon="4.33552">
        <ele>302.44</ele>
        <time>2015-05-03T06:58:39.049Z</time>
      </trkpt>
      <trkpt lat="44.18342" lon="4.33566">
        <ele>302.075</ele>
        <time>2015-05-03T06:58:41.891Z</time>
      </trkpt>
      <trkpt lat="44.18344" lon="4.3358">
        <ele>301.647</ele>
        <time>2015-05-03T06:58:44.810Z</time>
      </trkpt>
      <trkpt lat="44.18345" lon="4.33594">
        <ele>301.511</ele>
        <time>2015-05-03T06:58:47.711Z</time>
      </trkpt>
      <trkpt lat="44.18347" lon="4.33607">
        <ele>301.637</ele>
        <time>2015-05-03T06:58:50.541Z</time>
      </trkpt>
      <trkpt lat="44.1835" lon="4.3362">
        <ele>301.835</ele>
        <time>2015-05-03T06:58:53.388Z</time>
      </trkpt>
      <trkpt lat="44.18352" lon="4.33633">
        <ele>301.974</ele>
        <time>2015-05-03T06:58:56.168Z</time>
      </trkpt>
      <trkpt lat="44.18355" lon="4.33649">
        <ele>302.046</ele>
        <time>2015-05-03T06:58:59.787Z</time>
      </trkpt>
      <trkpt lat="44.18357" lon="4.33663">
        <ele>302.135</ele>
        <time>2015-05-03T06:59:02.562Z</time>
      </trkpt>
      <trkpt lat="44.1836" lon="4.33678">
        <ele>302.2</ele>
        <time>2015-05-03T06:59:05.466Z</time>
      </trkpt>
      <trkpt lat="44.18361" lon="4.33693">
        <ele>302.166</ele>
        <time>2015-05-03T06:59:08.260Z</time>
      </trkpt>
      <trkpt lat="44.18364" lon="4.3371">
        <ele>301.808</ele>
        <time>2015-05-03T06:59:11.218Z</time>
      </trkpt>
      <trkpt lat="44.18367" lon="4.33728">
        <ele>301.086</ele>
        <time>2015-05-03T06:59:14.132Z</time>
      </trkpt>
      <trkpt lat="44.1837" lon="4.33749">
        <ele>300.362</ele>
        <time>2015-05-03T06:59:17.316Z</time>
      </trkpt>
      <trkpt lat="44.1837" lon="4.33763">
        <ele>300.163</ele>
        <time>2015-05-03T06:59:19.387Z</time>
      </trkpt>
      <trkpt lat="44.1837" lon="4.33784">
        <ele>299.222</ele>
        <time>2015-05-03T06:59:22.374Z</time>
      </trkpt>
      <trkpt lat="44.18374" lon="4.33804">
        <ele>297.884</ele>
        <time>2015-05-03T06:59:25.405Z</time>
      </trkpt>
      <trkpt lat="44.18379" lon="4.33816">
        <ele>296.863</ele>
        <time>2015-05-03T06:59:27.326Z</time>
      </trkpt>
      <trkpt lat="44.18388" lon="4.33831">
        <ele>296.291</ele>
        <time>2015-05-03T06:59:30.157Z</time>
      </trkpt>
      <trkpt lat="44.18397" lon="4.33848">
        <ele>295.81</ele>
        <time>2015-05-03T06:59:32.927Z</time>
      </trkpt>
      <trkpt lat="44.18402" lon="4.33869">
        <ele>294.998</ele>
        <time>2015-05-03T06:59:35.838Z</time>
      </trkpt>
      <trkpt lat="44.18405" lon="4.33893">
        <ele>293.852</ele>
        <time>2015-05-03T06:59:38.631Z</time>
      </trkpt>
      <trkpt lat="44.18407" lon="4.33921">
        <ele>292.766</ele>
        <time>2015-05-03T06:59:41.618Z</time>
      </trkpt>
      <trkpt lat="44.1841" lon="4.3394">
        <ele>292.068</ele>
        <time>2015-05-03T06:59:43.822Z</time>
      </trkpt>
      <trkpt lat="44.18412" lon="4.33957">
        <ele>291.69</ele>
        <time>2015-05-03T06:59:46.031Z</time>
      </trkpt>
      <trkpt lat="44.18414" lon="4.33973">
        <ele>291.377</ele>
        <time>2015-05-03T06:59:48.191Z</time>
      </trkpt>
      <trkpt lat="44.18416" lon="4.33988">
        <ele>291.09</ele>
        <time>2015-05-03T06:59:50.419Z</time>
      </trkpt>
      <trkpt lat="44.18418" lon="4.3401">
        <ele>290.862</ele>
        <time>2015-05-03T06:59:53.788Z</time>
      </trkpt>
      <trkpt lat="44.1842" lon="4.34023">
        <ele>290.651</ele>
        <time>2015-05-03T06:59:55.792Z</time>
      </trkpt>
      <trkpt lat="44.18421" lon="4.34036">
        <ele>290.699</ele>
        <time>2015-05-03T06:59:57.821Z</time>
      </trkpt>
      <trkpt lat="44.18423" lon="4.34052">
        <ele>291.174</ele>
        <time>2015-05-03T07:00:00.370Z</time>
      </trkpt>
      <trkpt lat="44.18426" lon="4.34069">
        <ele>291.536</ele>
        <time>2015-05-03T07:00:03.153Z</time>
      </trkpt>
      <trkpt lat="44.18431" lon="4.34088">
        <ele>291.326</ele>
        <time>2015-05-03T07:00:06.314Z</time>
      </trkpt>
      <trkpt lat="44.18436" lon="4.34105">
        <ele>291.194</ele>
        <time>2015-05-03T07:00:09.531Z</time>
      </trkpt>
      <trkpt lat="44.18443" lon="4.34124">
        <ele>291.741</ele>
        <time>2015-05-03T07:00:13.536Z</time>
      </trkpt>
      <trkpt lat="44.18447" lon="4.34136">
        <ele>292.544</ele>
        <time>2015-05-03T07:00:15.990Z</time>
      </trkpt>
      <trkpt lat="44.18451" lon="4.34148">
        <ele>292.758</ele>
        <time>2015-05-03T07:00:18.256Z</time>
      </trkpt>
      <trkpt lat="44.18454" lon="4.34163">
        <ele>292.5</ele>
        <time>2015-05-03T07:00:21.144Z</time>
      </trkpt>
      <trkpt lat="44.18458" lon="4.3418">
        <ele>292.653</ele>
        <time>2015-05-03T07:00:24.362Z</time>
      </trkpt>
      <trkpt lat="44.18462" lon="4.34195">
        <ele>292.952</ele>
        <time>2015-05-03T07:00:27.291Z</time>
      </trkpt>
      <trkpt lat="44.18467" lon="4.34211">
        <ele>292.952</ele>
        <time>2015-05-03T07:00:30.560Z</time>
      </trkpt>
      <trkpt lat="44.1847" lon="4.34227">
        <ele>292.652</ele>
        <time>2015-05-03T07:00:34.092Z</time>
      </trkpt>
      <trkpt lat="44.18472" lon="4.34242">
        <ele>292.594</ele>
        <time>2015-05-03T07:00:37.195Z</time>
      </trkpt>
      <trkpt lat="44.18475" lon="4.34256">
        <ele>293.031</ele>
        <time>2015-05-03T07:00:39.892Z</time>
      </trkpt>
      <trkpt lat="44.18477" lon="4.34271">
        <ele>292.755</ele>
        <time>2015-05-03T07:00:42.455Z</time>
      </trkpt>
      <trkpt lat="44.18482" lon="4.34288">
        <ele>290.987</ele>
        <time>2015-05-03T07:00:45.208Z</time>
      </trkpt>
      <trkpt lat="44.18486" lon="4.34302">
        <ele>288.357</ele>
        <time>2015-05-03T07:00:47.654Z</time>
      </trkpt>
      <trkpt lat="44.18493" lon="4.34322">
        <ele>286.675</ele>
        <time>2015-05-03T07:00:50.970Z</time>
      </trkpt>
      <trkpt lat="44.185" lon="4.34339">
        <ele>286.844</ele>
        <time>2015-05-03T07:00:53.883Z</time>
      </trkpt>
      <trkpt lat="44.18505" lon="4.34357">
        <ele>287.566</ele>
        <time>2015-05-03T07:00:56.923Z</time>
      </trkpt>
      <trkpt lat="44.18511" lon="4.34376">
        <ele>287.436</ele>
        <time>2015-05-03T07:01:00.490Z</time>
      </trkpt>
      <trkpt lat="44.18516" lon="4.34391">
        <ele>286.554</ele>
        <time>2015-05-03T07:01:03.605Z</time>
      </trkpt>
      <trkpt lat="44.18521" lon="4.34405">
        <ele>285.594</ele>
        <time>2015-05-03T07:01:06.492Z</time>
      </trkpt>
      <trkpt lat="44.18527" lon="4.34419">
        <ele>284.893</ele>
        <time>2015-05-03T07:01:09.443Z</time>
      </trkpt>
      <trkpt lat="44.18533" lon="4.34434">
        <ele>284.539</ele>
        <time>2015-05-03T07:01:12.278Z</time>
      </trkpt>
      <trkpt lat="44.1854" lon="4.3445">
        <ele>284.708</ele>
        <time>2015-05-03T07:01:15.314Z</time>
      </trkpt>
      <trkpt lat="44.18545" lon="4.34463">
        <ele>285.691</ele>
        <time>2015-05-03T07:01:17.781Z</time>
      </trkpt>
      <trkpt lat="44.18551" lon="4.34478">
        <ele>287.21</ele>
        <time>2015-05-03T07:01:20.622Z</time>
      </trkpt>
      <trkpt lat="44.18558" lon="4.34496">
        <ele>288.044</ele>
        <time>2015-05-03T07:01:23.967Z</time>
      </trkpt>
      <trkpt lat="44.18563" lon="4.34513">
        <ele>287.559</ele>
        <time>2015-05-03T07:01:27.298Z</time>
      </trkpt>
      <trkpt lat="44.18566" lon="4.34526">
        <ele>286.546</ele>
        <time>2015-05-03T07:01:29.890Z</time>
      </trkpt>
      <trkpt lat="44.1857" lon="4.34542">
        <ele>286.113</ele>
        <time>2015-05-03T07:01:33.040Z</time>
      </trkpt>
      <trkpt lat="44.18572" lon="4.34556">
        <ele>286.494</ele>
        <time>2015-05-03T07:01:35.630Z</time>
      </trkpt>
      <trkpt lat="44.18575" lon="4.34571">
        <ele>287.15</ele>
        <time>2015-05-03T07:01:38.473Z</time>
      </trkpt>
      <trkpt lat="44.18577" lon="4.34586">
        <ele>287.586</ele>
        <time>2015-05-03T07:01:41.206Z</time>
      </trkpt>
      <trkpt lat="44.18581" lon="4.34603">
        <ele>287.768</ele>
        <time>2015-05-03T07:01:44.780Z</time>
      </trkpt>
      <trkpt lat="44.18585" lon="4.34619">
        <ele>287.608</ele>
        <time>2015-05-03T07:01:49.352Z</time>
      </trkpt>
      <trkpt lat="44.1859" lon="4.34631">
        <ele>287.093</ele>
        <time>2015-05-03T07:01:55.396Z</time>
      </trkpt>
      <trkpt lat="44.18595" lon="4.34642">
        <ele>286.838</ele>
        <time>2015-05-03T07:02:01.284Z</time>
      </trkpt>
      <trkpt lat="44.18593" lon="4.34655">
        <ele>287.616</ele>
        <time>2015-05-03T07:02:05.895Z</time>
      </trkpt>
      <trkpt lat="44.18583" lon="4.34659">
        <ele>289.135</ele>
        <time>2015-05-03T07:02:09.856Z</time>
      </trkpt>
      <trkpt lat="44.18575" lon="4.34672">
        <ele>289.824</ele>
        <time>2015-05-03T07:02:13.608Z</time>
      </trkpt>
      <trkpt lat="44.18572" lon="4.34686">
        <ele>288.89</ele>
        <time>2015-05-03T07:02:16.742Z</time>
      </trkpt>
      <trkpt lat="44.18572" lon="4.347">
        <ele>287.527</ele>
        <time>2015-05-03T07:02:19.512Z</time>
      </trkpt>
      <trkpt lat="44.18571" lon="4.34714">
        <ele>286.926</ele>
        <time>2015-05-03T07:02:22.358Z</time>
      </trkpt>
      <trkpt lat="44.18572" lon="4.34729">
        <ele>287.043</ele>
        <time>2015-05-03T07:02:25.266Z</time>
      </trkpt>
      <trkpt lat="44.1857" lon="4.34744">
        <ele>287.273</ele>
        <time>2015-05-03T07:02:28.286Z</time>
      </trkpt>
      <trkpt lat="44.18568" lon="4.34758">
        <ele>287.125</ele>
        <time>2015-05-03T07:02:31.069Z</time>
      </trkpt>
      <trkpt lat="44.18565" lon="4.34773">
        <ele>286.554</ele>
        <time>2015-05-03T07:02:34.225Z</time>
      </trkpt>
      <trkpt lat="44.18562" lon="4.34787">
        <ele>285.822</ele>
        <time>2015-05-03T07:02:37.560Z</time>
      </trkpt>
      <trkpt lat="44.18562" lon="4.348">
        <ele>285.63</ele>
        <time>2015-05-03T07:02:40.547Z</time>
      </trkpt>
      <trkpt lat="44.18561" lon="4.34816">
        <ele>286.404</ele>
        <time>2015-05-03T07:02:44.114Z</time>
      </trkpt>
      <trkpt lat="44.18561" lon="4.34831">
        <ele>287.422</ele>
        <time>2015-05-03T07:02:47.477Z</time>
      </trkpt>
      <trkpt lat="44.18558" lon="4.34846">
        <ele>287.985</ele>
        <time>2015-05-03T07:02:50.899Z</time>
      </trkpt>
      <trkpt lat="44.18555" lon="4.34858">
        <ele>288.336</ele>
        <time>2015-05-03T07:02:54.411Z</time>
      </trkpt>
      <trkpt lat="44.18554" lon="4.34871">
        <ele>288.8</ele>
        <time>2015-05-03T07:02:58.325Z</time>
      </trkpt>
      <trkpt lat="44.18544" lon="4.3487">
        <ele>288.358</ele>
        <time>2015-05-03T07:03:03.737Z</time>
      </trkpt>
      <trkpt lat="44.18536" lon="4.34877">
        <ele>286.063</ele>
        <time>2015-05-03T07:03:10.592Z</time>
      </trkpt>
      <trkpt lat="44.18525" lon="4.34879">
        <ele>282.847</ele>
        <time>2015-05-03T07:03:16.982Z</time>
      </trkpt>
      <trkpt lat="44.18521" lon="4.3489">
        <ele>280.072</ele>
        <time>2015-05-03T07:03:22.071Z</time>
      </trkpt>
      <trkpt lat="44.18514" lon="4.34901">
        <ele>278.242</ele>
        <time>2015-05-03T07:03:26.084Z</time>
      </trkpt>
      <trkpt lat="44.18511" lon="4.34917">
        <ele>277.482</ele>
        <time>2015-05-03T07:03:30.299Z</time>
      </trkpt>
      <trkpt lat="44.18508" lon="4.3493">
        <ele>277.634</ele>
        <time>2015-05-03T07:03:33.279Z</time>
      </trkpt>
      <trkpt lat="44.18506" lon="4.34944">
        <ele>278.342</ele>
        <time>2015-05-03T07:03:36.511Z</time>
      </trkpt>
      <trkpt lat="44.18502" lon="4.34956">
        <ele>279.049</ele>
        <time>2015-05-03T07:03:39.724Z</time>
      </trkpt>
      <trkpt lat="44.18497" lon="4.3497">
        <ele>279.28</ele>
        <time>2015-05-03T07:03:43.807Z</time>
      </trkpt>
      <trkpt lat="44.18497" lon="4.3497">
        <ele>279.019</ele>
        <time>2015-05-03T07:03:50.802Z</time>
      </trkpt>
      <trkpt lat="44.18497" lon="4.3497">
        <ele>278.668</ele>
        <time>2015-05-03T07:03:58.644Z</time>
      </trkpt>
      <trkpt lat="44.18488" lon="4.34988">
        <ele>278.547</ele>
        <time>2015-05-03T07:04:11.816Z</time>
      </trkpt>
      <trkpt lat="44.18488" lon="4.34988">
        <ele>278.527</ele>
        <time>2015-05-03T07:04:13.806Z</time>
      </trkpt>
      <trkpt lat="44.18488" lon="4.34988">
        <ele>278.424</ele>
        <time>2015-05-03T07:04:15.006Z</time>
      </trkpt>
      <trkpt lat="44.18476" lon="4.34987">
        <ele>278.281</ele>
        <time>2015-05-03T07:04:23.808Z</time>
      </trkpt>
      <trkpt lat="44.18476" lon="4.34987">
        <ele>278.167</ele>
        <time>2015-05-03T07:04:27.851Z</time>
      </trkpt>
      <trkpt lat="44.18476" lon="4.34987">
        <ele>278.043</ele>
        <time>2015-05-03T07:04:28.920Z</time>
      </trkpt>
      <trkpt lat="44.18465" lon="4.35001">
        <ele>277.919</ele>
        <time>2015-05-03T07:04:38.662Z</time>
      </trkpt>
      <trkpt lat="44.18461" lon="4.35017">
        <ele>276.28</ele>
        <time>2015-05-03T07:04:42.872Z</time>
      </trkpt>
      <trkpt lat="44.18455" lon="4.35032">
        <ele>272.182</ele>
        <time>2015-05-03T07:04:46.487Z</time>
      </trkpt>
      <trkpt lat="44.18448" lon="4.35044">
        <ele>268.366</ele>
        <time>2015-05-03T07:04:49.409Z</time>
      </trkpt>
      <trkpt lat="44.18439" lon="4.35058">
        <ele>267.432</ele>
        <time>2015-05-03T07:04:52.581Z</time>
      </trkpt>
      <trkpt lat="44.1843" lon="4.35071">
        <ele>268.356</ele>
        <time>2015-05-03T07:04:55.640Z</time>
      </trkpt>
      <trkpt lat="44.18422" lon="4.35078">
        <ele>269.181</ele>
        <time>2015-05-03T07:04:57.771Z</time>
      </trkpt>
      <trkpt lat="44.18411" lon="4.35087">
        <ele>268.96</ele>
        <time>2015-05-03T07:05:00.811Z</time>
      </trkpt>
      <trkpt lat="44.18399" lon="4.35095">
        <ele>268.127</ele>
        <time>2015-05-03T07:05:03.732Z</time>
      </trkpt>
      <trkpt lat="44.18386" lon="4.35101">
        <ele>267.479</ele>
        <time>2015-05-03T07:05:06.720Z</time>
      </trkpt>
      <trkpt lat="44.18376" lon="4.35111">
        <ele>267.192</ele>
        <time>2015-05-03T07:05:09.503Z</time>
      </trkpt>
      <trkpt lat="44.18369" lon="4.3512">
        <ele>267.106</ele>
        <time>2015-05-03T07:05:11.606Z</time>
      </trkpt>
      <trkpt lat="44.18358" lon="4.35131">
        <ele>267.079</ele>
        <time>2015-05-03T07:05:14.666Z</time>
      </trkpt>
      <trkpt lat="44.1835" lon="4.35139">
        <ele>266.961</ele>
        <time>2015-05-03T07:05:16.737Z</time>
      </trkpt>
      <trkpt lat="44.18339" lon="4.3515">
        <ele>266.393</ele>
        <time>2015-05-03T07:05:19.774Z</time>
      </trkpt>
      <trkpt lat="44.18328" lon="4.35158">
        <ele>265.274</ele>
        <time>2015-05-03T07:05:22.755Z</time>
      </trkpt>
      <trkpt lat="44.18319" lon="4.35163">
        <ele>264.285</ele>
        <time>2015-05-03T07:05:25.474Z</time>
      </trkpt>
      <trkpt lat="44.18312" lon="4.35176">
        <ele>264.218</ele>
        <time>2015-05-03T07:05:29.136Z</time>
      </trkpt>
      <trkpt lat="44.18307" lon="4.35187">
        <ele>264.843</ele>
        <time>2015-05-03T07:05:32.871Z</time>
      </trkpt>
      <trkpt lat="44.18306" lon="4.35203">
        <ele>265.472</ele>
        <time>2015-05-03T07:05:38.592Z</time>
      </trkpt>
      <trkpt lat="44.18308" lon="4.35218">
        <ele>265.829</ele>
        <time>2015-05-03T07:05:43.762Z</time>
      </trkpt>
      <trkpt lat="44.18312" lon="4.35236">
        <ele>265.952</ele>
        <time>2015-05-03T07:05:48.487Z</time>
      </trkpt>
      <trkpt lat="44.18317" lon="4.35253">
        <ele>265.79</ele>
        <time>2015-05-03T07:05:52.124Z</time>
      </trkpt>
      <trkpt lat="44.18321" lon="4.35272">
        <ele>265.46</ele>
        <time>2015-05-03T07:05:55.650Z</time>
      </trkpt>
      <trkpt lat="44.18326" lon="4.35285">
        <ele>265.213</ele>
        <time>2015-05-03T07:05:58.428Z</time>
      </trkpt>
      <trkpt lat="44.18334" lon="4.35294">
        <ele>265.209</ele>
        <time>2015-05-03T07:06:01.321Z</time>
      </trkpt>
      <trkpt lat="44.18344" lon="4.353">
        <ele>265.274</ele>
        <time>2015-05-03T07:06:04.515Z</time>
      </trkpt>
      <trkpt lat="44.18355" lon="4.35304">
        <ele>265.229</ele>
        <time>2015-05-03T07:06:07.995Z</time>
      </trkpt>
      <trkpt lat="44.18365" lon="4.35311">
        <ele>265.053</ele>
        <time>2015-05-03T07:06:11.460Z</time>
      </trkpt>
      <trkpt lat="44.18378" lon="4.35317">
        <ele>264.605</ele>
        <time>2015-05-03T07:06:15.421Z</time>
      </trkpt>
      <trkpt lat="44.18388" lon="4.35318">
        <ele>263.887</ele>
        <time>2015-05-03T07:06:18.002Z</time>
      </trkpt>
      <trkpt lat="44.18398" lon="4.35324">
        <ele>263.205</ele>
        <time>2015-05-03T07:06:21.374Z</time>
      </trkpt>
      <trkpt lat="44.18407" lon="4.35324">
        <ele>262.756</ele>
        <time>2015-05-03T07:06:24.204Z</time>
      </trkpt>
      <trkpt lat="44.18416" lon="4.35327">
        <ele>262.513</ele>
        <time>2015-05-03T07:06:27.320Z</time>
      </trkpt>
      <trkpt lat="44.18423" lon="4.35337">
        <ele>262.343</ele>
        <time>2015-05-03T07:06:30.803Z</time>
      </trkpt>
      <trkpt lat="44.18433" lon="4.35343">
        <ele>262.198</ele>
        <time>2015-05-03T07:06:34.502Z</time>
      </trkpt>
      <trkpt lat="44.1844" lon="4.35354">
        <ele>262.294</ele>
        <time>2015-05-03T07:06:37.820Z</time>
      </trkpt>
      <trkpt lat="44.18449" lon="4.35368">
        <ele>262.807</ele>
        <time>2015-05-03T07:06:41.487Z</time>
      </trkpt>
      <trkpt lat="44.18458" lon="4.35384">
        <ele>263.544</ele>
        <time>2015-05-03T07:06:45.038Z</time>
      </trkpt>
      <trkpt lat="44.18468" lon="4.35398">
        <ele>263.952</ele>
        <time>2015-05-03T07:06:48.283Z</time>
      </trkpt>
      <trkpt lat="44.18474" lon="4.35409">
        <ele>263.629</ele>
        <time>2015-05-03T07:06:50.347Z</time>
      </trkpt>
      <trkpt lat="44.18481" lon="4.35421">
        <ele>262.819</ele>
        <time>2015-05-03T07:06:52.951Z</time>
      </trkpt>
      <trkpt lat="44.18489" lon="4.35437">
        <ele>262.04</ele>
        <time>2015-05-03T07:06:55.992Z</time>
      </trkpt>
      <trkpt lat="44.18498" lon="4.35451">
        <ele>261.517</ele>
        <time>2015-05-03T07:06:59.044Z</time>
      </trkpt>
      <trkpt lat="44.18505" lon="4.35463">
        <ele>261.221</ele>
        <time>2015-05-03T07:07:01.710Z</time>
      </trkpt>
      <trkpt lat="44.18511" lon="4.35474">
        <ele>261.103</ele>
        <time>2015-05-03T07:07:04.694Z</time>
      </trkpt>
      <trkpt lat="44.18508" lon="4.35489">
        <ele>261.098</ele>
        <time>2015-05-03T07:07:08.564Z</time>
      </trkpt>
      <trkpt lat="44.18503" lon="4.35502">
        <ele>260.969</ele>
        <time>2015-05-03T07:07:12.176Z</time>
      </trkpt>
      <trkpt lat="44.18501" lon="4.35514">
        <ele>260.582</ele>
        <time>2015-05-03T07:07:15.357Z</time>
      </trkpt>
      <trkpt lat="44.18501" lon="4.3553">
        <ele>260.195</ele>
        <time>2015-05-03T07:07:18.789Z</time>
      </trkpt>
      <trkpt lat="44.185" lon="4.35544">
        <ele>260.07</ele>
        <time>2015-05-03T07:07:21.835Z</time>
      </trkpt>
      <trkpt lat="44.185" lon="4.35557">
        <ele>260.125</ele>
        <time>2015-05-03T07:07:24.523Z</time>
      </trkpt>
      <trkpt lat="44.18502" lon="4.35572">
        <ele>260.21</ele>
        <time>2015-05-03T07:07:27.589Z</time>
      </trkpt>
      <trkpt lat="44.18506" lon="4.35588">
        <ele>260.388</ele>
        <time>2015-05-03T07:07:30.981Z</time>
      </trkpt>
      <trkpt lat="44.18512" lon="4.35604">
        <ele>260.931</ele>
        <time>2015-05-03T07:07:34.253Z</time>
      </trkpt>
      <trkpt lat="44.18521" lon="4.35617">
        <ele>260.687</ele>
        <time>2015-05-03T07:07:37.418Z</time>
      </trkpt>
      <trkpt lat="44.18528" lon="4.35632">
        <ele>260.253</ele>
        <time>2015-05-03T07:07:40.439Z</time>
      </trkpt>
      <trkpt lat="44.18536" lon="4.35647">
        <ele>259.878</ele>
        <time>2015-05-03T07:07:43.376Z</time>
      </trkpt>
      <trkpt lat="44.18544" lon="4.35661">
        <ele>259.426</ele>
        <time>2015-05-03T07:07:46.329Z</time>
      </trkpt>
      <trkpt lat="44.18551" lon="4.35676">
        <ele>259.346</ele>
        <time>2015-05-03T07:07:49.312Z</time>
      </trkpt>
      <trkpt lat="44.18556" lon="4.35692">
        <ele>259.332</ele>
        <time>2015-05-03T07:07:52.201Z</time>
      </trkpt>
      <trkpt lat="44.18557" lon="4.35706">
        <ele>259.323</ele>
        <time>2015-05-03T07:07:54.954Z</time>
      </trkpt>
      <trkpt lat="44.18551" lon="4.35717">
        <ele>259.3</ele>
        <time>2015-05-03T07:07:57.908Z</time>
      </trkpt>
      <trkpt lat="44.18543" lon="4.35728">
        <ele>259.533</ele>
        <time>2015-05-03T07:08:01.139Z</time>
      </trkpt>
      <trkpt lat="44.18537" lon="4.35738">
        <ele>260.303</ele>
        <time>2015-05-03T07:08:03.923Z</time>
      </trkpt>
      <trkpt lat="44.18531" lon="4.35751">
        <ele>261.318</ele>
        <time>2015-05-03T07:08:06.956Z</time>
      </trkpt>
      <trkpt lat="44.18524" lon="4.35765">
        <ele>262.001</ele>
        <time>2015-05-03T07:08:10.306Z</time>
      </trkpt>
      <trkpt lat="44.18519" lon="4.35776">
        <ele>262.546</ele>
        <time>2015-05-03T07:08:13.091Z</time>
      </trkpt>
      <trkpt lat="44.18514" lon="4.3579">
        <ele>263.355</ele>
        <time>2015-05-03T07:08:16.235Z</time>
      </trkpt>
      <trkpt lat="44.18511" lon="4.35805">
        <ele>263.931</ele>
        <time>2015-05-03T07:08:19.499Z</time>
      </trkpt>
      <trkpt lat="44.18507" lon="4.35819">
        <ele>263.77</ele>
        <time>2015-05-03T07:08:22.449Z</time>
      </trkpt>
      <trkpt lat="44.18503" lon="4.35833">
        <ele>263.293</ele>
        <time>2015-05-03T07:08:25.378Z</time>
      </trkpt>
      <trkpt lat="44.18498" lon="4.35849">
        <ele>262.99</ele>
        <time>2015-05-03T07:08:28.566Z</time>
      </trkpt>
      <trkpt lat="44.18493" lon="4.35863">
        <ele>262.829</ele>
        <time>2015-05-03T07:08:31.516Z</time>
      </trkpt>
      <trkpt lat="44.18487" lon="4.35877">
        <ele>262.655</ele>
        <time>2015-05-03T07:08:34.417Z</time>
      </trkpt>
      <trkpt lat="44.18482" lon="4.3589">
        <ele>262.566</ele>
        <time>2015-05-03T07:08:37.191Z</time>
      </trkpt>
      <trkpt lat="44.18474" lon="4.359">
        <ele>262.702</ele>
        <time>2015-05-03T07:08:40.232Z</time>
      </trkpt>
      <trkpt lat="44.18464" lon="4.35903">
        <ele>263.093</ele>
        <time>2015-05-03T07:08:43.488Z</time>
      </trkpt>
      <trkpt lat="44.18453" lon="4.35904">
        <ele>263.646</ele>
        <time>2015-05-03T07:08:47.242Z</time>
      </trkpt>
      <trkpt lat="44.18441" lon="4.35906">
        <ele>264.099</ele>
        <time>2015-05-03T07:08:51.212Z</time>
      </trkpt>
      <trkpt lat="44.18431" lon="4.35907">
        <ele>264.504</ele>
        <time>2015-05-03T07:08:54.232Z</time>
      </trkpt>
      <trkpt lat="44.18418" lon="4.35908">
        <ele>265.092</ele>
        <time>2015-05-03T07:08:58.417Z</time>
      </trkpt>
      <trkpt lat="44.18406" lon="4.3591">
        <ele>265.443</ele>
        <time>2015-05-03T07:09:02.065Z</time>
      </trkpt>
      <trkpt lat="44.18395" lon="4.35912">
        <ele>265.135</ele>
        <time>2015-05-03T07:09:05.165Z</time>
      </trkpt>
      <trkpt lat="44.18385" lon="4.35914">
        <ele>264.387</ele>
        <time>2015-05-03T07:09:08.032Z</time>
      </trkpt>
      <trkpt lat="44.18374" lon="4.35916">
        <ele>263.604</ele>
        <time>2015-05-03T07:09:10.973Z</time>
      </trkpt>
      <trkpt lat="44.18364" lon="4.35918">
        <ele>263.027</ele>
        <time>2015-05-03T07:09:13.796Z</time>
      </trkpt>
      <trkpt lat="44.18354" lon="4.3592">
        <ele>262.686</ele>
        <time>2015-05-03T07:09:16.679Z</time>
      </trkpt>
      <trkpt lat="44.18345" lon="4.35923">
        <ele>262.484</ele>
        <time>2015-05-03T07:09:19.437Z</time>
      </trkpt>
      <trkpt lat="44.18335" lon="4.35925">
        <ele>262.531</ele>
        <time>2015-05-03T07:09:22.278Z</time>
      </trkpt>
      <trkpt lat="44.18326" lon="4.35927">
        <ele>262.928</ele>
        <time>2015-05-03T07:09:25.088Z</time>
      </trkpt>
      <trkpt lat="44.18315" lon="4.3593">
        <ele>263.546</ele>
        <time>2015-05-03T07:09:28.115Z</time>
      </trkpt>
      <trkpt lat="44.18305" lon="4.35932">
        <ele>264.301</ele>
        <time>2015-05-03T07:09:31.297Z</time>
      </trkpt>
      <trkpt lat="44.18296" lon="4.35935">
        <ele>265.154</ele>
        <time>2015-05-03T07:09:34.002Z</time>
      </trkpt>
      <trkpt lat="44.18285" lon="4.35938">
        <ele>265.872</ele>
        <time>2015-05-03T07:09:37.497Z</time>
      </trkpt>
      <trkpt lat="44.18274" lon="4.35941">
        <ele>266.37</ele>
        <time>2015-05-03T07:09:41.065Z</time>
      </trkpt>
      <trkpt lat="44.18264" lon="4.35945">
        <ele>266.836</ele>
        <time>2015-05-03T07:09:44.153Z</time>
      </trkpt>
      <trkpt lat="44.18253" lon="4.35949">
        <ele>267.45</ele>
        <time>2015-05-03T07:09:48.105Z</time>
      </trkpt>
      <trkpt lat="44.18243" lon="4.35954">
        <ele>268.222</ele>
        <time>2015-05-03T07:09:51.300Z</time>
      </trkpt>
      <trkpt lat="44.18232" lon="4.3596">
        <ele>268.984</ele>
        <time>2015-05-03T07:09:55.155Z</time>
      </trkpt>
      <trkpt lat="44.18223" lon="4.35966">
        <ele>269.673</ele>
        <time>2015-05-03T07:09:58.329Z</time>
      </trkpt>
      <trkpt lat="44.18213" lon="4.35972">
        <ele>269.857</ele>
        <time>2015-05-03T07:10:01.554Z</time>
      </trkpt>
      <trkpt lat="44.18203" lon="4.35978">
        <ele>270.046</ele>
        <time>2015-05-03T07:10:04.610Z</time>
      </trkpt>
      <trkpt lat="44.18195" lon="4.35983">
        <ele>270.347</ele>
        <time>2015-05-03T07:10:07.267Z</time>
      </trkpt>
      <trkpt lat="44.18187" lon="4.35988">
        <ele>270.91</ele>
        <time>2015-05-03T07:10:10.155Z</time>
      </trkpt>
      <trkpt lat="44.18188" lon="4.36001">
        <ele>271.567</ele>
        <time>2015-05-03T07:10:14.117Z</time>
      </trkpt>
      <trkpt lat="44.18197" lon="4.36007">
        <ele>271.181</ele>
        <time>2015-05-03T07:10:18.877Z</time>
      </trkpt>
      <trkpt lat="44.18204" lon="4.36019">
        <ele>270.627</ele>
        <time>2015-05-03T07:10:24.955Z</time>
      </trkpt>
      <trkpt lat="44.1821" lon="4.36031">
        <ele>270.265</ele>
        <time>2015-05-03T07:10:28.940Z</time>
      </trkpt>
      <trkpt lat="44.18217" lon="4.36045">
        <ele>269.821</ele>
        <time>2015-05-03T07:10:32.813Z</time>
      </trkpt>
      <trkpt lat="44.18221" lon="4.36058">
        <ele>268.993</ele>
        <time>2015-05-03T07:10:36.272Z</time>
      </trkpt>
      <trkpt lat="44.18218" lon="4.36069">
        <ele>268.279</ele>
        <time>2015-05-03T07:10:39.564Z</time>
      </trkpt>
      <trkpt lat="44.18208" lon="4.36077">
        <ele>268.62</ele>
        <time>2015-05-03T07:10:44.077Z</time>
      </trkpt>
      <trkpt lat="44.18197" lon="4.36085">
        <ele>270.016</ele>
        <time>2015-05-03T07:10:49.083Z</time>
      </trkpt>
      <trkpt lat="44.18187" lon="4.36091">
        <ele>271.28</ele>
        <time>2015-05-03T07:10:53.025Z</time>
      </trkpt>
      <trkpt lat="44.18179" lon="4.36098">
        <ele>271.565</ele>
        <time>2015-05-03T07:10:56.523Z</time>
      </trkpt>
      <trkpt lat="44.18169" lon="4.36107">
        <ele>271.272</ele>
        <time>2015-05-03T07:11:00.514Z</time>
      </trkpt>
      <trkpt lat="44.1816" lon="4.36115">
        <ele>271.408</ele>
        <time>2015-05-03T07:11:04.516Z</time>
      </trkpt>
      <trkpt lat="44.18152" lon="4.36122">
        <ele>272.455</ele>
        <time>2015-05-03T07:11:08.036Z</time>
      </trkpt>
      <trkpt lat="44.18144" lon="4.36129">
        <ele>273.683</ele>
        <time>2015-05-03T07:11:11.507Z</time>
      </trkpt>
      <trkpt lat="44.1814" lon="4.36142">
        <ele>274.317</ele>
        <time>2015-05-03T07:11:15.604Z</time>
      </trkpt>
      <trkpt lat="44.18149" lon="4.36148">
        <ele>274.901</ele>
        <time>2015-05-03T07:11:20.510Z</time>
      </trkpt>
      <trkpt lat="44.18158" lon="4.36149">
        <ele>276.085</ele>
        <time>2015-05-03T07:11:26.330Z</time>
      </trkpt>
      <trkpt lat="44.18168" lon="4.36153">
        <ele>277.801</ele>
        <time>2015-05-03T07:11:32.511Z</time>
      </trkpt>
      <trkpt lat="44.18179" lon="4.36151">
        <ele>279.568</ele>
        <time>2015-05-03T07:11:38.698Z</time>
      </trkpt>
      <trkpt lat="44.18189" lon="4.36148">
        <ele>280.766</ele>
        <time>2015-05-03T07:11:44.128Z</time>
      </trkpt>
      <trkpt lat="44.18198" lon="4.3615">
        <ele>281.126</ele>
        <time>2015-05-03T07:11:48.468Z</time>
      </trkpt>
      <trkpt lat="44.18209" lon="4.36154">
        <ele>281.129</ele>
        <time>2015-05-03T07:11:52.808Z</time>
      </trkpt>
      <trkpt lat="44.18209" lon="4.36154">
        <ele>281.204</ele>
        <time>2015-05-03T07:11:52.808Z</time>
      </trkpt>
      <trkpt lat="44.18209" lon="4.36154">
        <ele>281.276</ele>
        <time>2015-05-03T07:11:53.114Z</time>
      </trkpt>
      <trkpt lat="44.18219" lon="4.36167">
        <ele>281.164</ele>
        <time>2015-05-03T07:12:02.080Z</time>
      </trkpt>
      <trkpt lat="44.18221" lon="4.3618">
        <ele>281.175</ele>
        <time>2015-05-03T07:12:05.806Z</time>
      </trkpt>
      <trkpt lat="44.18221" lon="4.3618">
        <ele>281.574</ele>
        <time>2015-05-03T07:12:09.806Z</time>
      </trkpt>
      <trkpt lat="44.18221" lon="4.3618">
        <ele>281.922</ele>
        <time>2015-05-03T07:12:09.906Z</time>
      </trkpt>
      <trkpt lat="44.18219" lon="4.36203">
        <ele>281.806</ele>
        <time>2015-05-03T07:12:32.445Z</time>
      </trkpt>
      <trkpt lat="44.18221" lon="4.36218">
        <ele>282.086</ele>
        <time>2015-05-03T07:12:38.138Z</time>
      </trkpt>
      <trkpt lat="44.18219" lon="4.36232">
        <ele>283.836</ele>
        <time>2015-05-03T07:12:43.224Z</time>
      </trkpt>
      <trkpt lat="44.18214" lon="4.36245">
        <ele>286.47</ele>
        <time>2015-05-03T07:12:48.292Z</time>
      </trkpt>
      <trkpt lat="44.1821" lon="4.36257">
        <ele>288.764</ele>
        <time>2015-05-03T07:12:53.608Z</time>
      </trkpt>
      <trkpt lat="44.1821" lon="4.36271">
        <ele>290.44</ele>
        <time>2015-05-03T07:12:59.714Z</time>
      </trkpt>
      <trkpt lat="44.18217" lon="4.36281">
        <ele>291.686</ele>
        <time>2015-05-03T07:13:04.301Z</time>
      </trkpt>
      <trkpt lat="44.18225" lon="4.36289">
        <ele>292.553</ele>
        <time>2015-05-03T07:13:08.285Z</time>
      </trkpt>
      <trkpt lat="44.18232" lon="4.363">
        <ele>293.005</ele>
        <time>2015-05-03T07:13:11.980Z</time>
      </trkpt>
      <trkpt lat="44.18241" lon="4.36307">
        <ele>293.219</ele>
        <time>2015-05-03T07:13:15.808Z</time>
      </trkpt>
      <trkpt lat="44.1825" lon="4.36313">
        <ele>293.508</ele>
        <time>2015-05-03T07:13:19.319Z</time>
      </trkpt>
      <trkpt lat="44.18258" lon="4.3632">
        <ele>294.009</ele>
        <time>2015-05-03T07:13:22.515Z</time>
      </trkpt>
      <trkpt lat="44.18267" lon="4.36329">
        <ele>294.67</ele>
        <time>2015-05-03T07:13:26.276Z</time>
      </trkpt>
      <trkpt lat="44.18275" lon="4.36337">
        <ele>295.42</ele>
        <time>2015-05-03T07:13:29.601Z</time>
      </trkpt>
      <trkpt lat="44.18283" lon="4.36349">
        <ele>296.167</ele>
        <time>2015-05-03T07:13:34.130Z</time>
      </trkpt>
      <trkpt lat="44.18279" lon="4.36362">
        <ele>296.782</ele>
        <time>2015-05-03T07:13:37.808Z</time>
      </trkpt>
      <trkpt lat="44.1827" lon="4.36368">
        <ele>297.101</ele>
        <time>2015-05-03T07:13:41.027Z</time>
      </trkpt>
      <trkpt lat="44.18262" lon="4.3638">
        <ele>296.692</ele>
        <time>2015-05-03T07:13:44.629Z</time>
      </trkpt>
      <trkpt lat="44.18257" lon="4.3639">
        <ele>295.455</ele>
        <time>2015-05-03T07:13:47.462Z</time>
      </trkpt>
      <trkpt lat="44.18251" lon="4.36403">
        <ele>294.436</ele>
        <time>2015-05-03T07:13:51.077Z</time>
      </trkpt>
      <trkpt lat="44.18244" lon="4.36414">
        <ele>294.669</ele>
        <time>2015-05-03T07:13:54.648Z</time>
      </trkpt>
      <trkpt lat="44.18236" lon="4.36424">
        <ele>295.821</ele>
        <time>2015-05-03T07:13:58.210Z</time>
      </trkpt>
      <trkpt lat="44.1823" lon="4.36435">
        <ele>296.805</ele>
        <time>2015-05-03T07:14:01.307Z</time>
      </trkpt>
      <trkpt lat="44.18225" lon="4.36448">
        <ele>296.984</ele>
        <time>2015-05-03T07:14:04.352Z</time>
      </trkpt>
      <trkpt lat="44.18221" lon="4.36464">
        <ele>296.581</ele>
        <time>2015-05-03T07:14:07.586Z</time>
      </trkpt>
      <trkpt lat="44.18215" lon="4.36477">
        <ele>295.957</ele>
        <time>2015-05-03T07:14:10.613Z</time>
      </trkpt>
      <trkpt lat="44.1821" lon="4.36491">
        <ele>295.246</ele>
        <time>2015-05-03T07:14:13.520Z</time>
      </trkpt>
      <trkpt lat="44.18208" lon="4.36506">
        <ele>294.636</ele>
        <time>2015-05-03T07:14:16.471Z</time>
      </trkpt>
      <trkpt lat="44.18208" lon="4.3652">
        <ele>294.332</ele>
        <time>2015-05-03T07:14:19.242Z</time>
      </trkpt>
      <trkpt lat="44.18211" lon="4.36535">
        <ele>294.277</ele>
        <time>2015-05-03T07:14:22.279Z</time>
      </trkpt>
      <trkpt lat="44.18214" lon="4.36547">
        <ele>294.296</ele>
        <time>2015-05-03T07:14:25.127Z</time>
      </trkpt>
      <trkpt lat="44.18217" lon="4.36559">
        <ele>294.156</ele>
        <time>2015-05-03T07:14:27.930Z</time>
      </trkpt>
      <trkpt lat="44.1822" lon="4.36572">
        <ele>293.755</ele>
        <time>2015-05-03T07:14:31.470Z</time>
      </trkpt>
      <trkpt lat="44.18226" lon="4.36583">
        <ele>293.125</ele>
        <time>2015-05-03T07:14:35.269Z</time>
      </trkpt>
      <trkpt lat="44.18236" lon="4.3659">
        <ele>292.409</ele>
        <time>2015-05-03T07:14:38.825Z</time>
      </trkpt>
      <trkpt lat="44.18245" lon="4.36598">
        <ele>291.97</ele>
        <time>2015-05-03T07:14:42.075Z</time>
      </trkpt>
      <trkpt lat="44.18255" lon="4.36606">
        <ele>292.266</ele>
        <time>2015-05-03T07:14:45.318Z</time>
      </trkpt>
      <trkpt lat="44.18265" lon="4.36613">
        <ele>293.175</ele>
        <time>2015-05-03T07:14:48.180Z</time>
      </trkpt>
      <trkpt lat="44.18275" lon="4.36622">
        <ele>293.924</ele>
        <time>2015-05-03T07:14:51.019Z</time>
      </trkpt>
      <trkpt lat="44.18285" lon="4.3663">
        <ele>293.857</ele>
        <time>2015-05-03T07:14:53.939Z</time>
      </trkpt>
      <trkpt lat="44.18295" lon="4.36639">
        <ele>292.911</ele>
        <time>2015-05-03T07:14:56.798Z</time>
      </trkpt>
      <trkpt lat="44.18306" lon="4.3665">
        <ele>291.586</ele>
        <time>2015-05-03T07:14:59.809Z</time>
      </trkpt>
      <trkpt lat="44.18315" lon="4.36662">
        <ele>290.614</ele>
        <time>2015-05-03T07:15:02.730Z</time>
      </trkpt>
      <trkpt lat="44.18324" lon="4.36674">
        <ele>290.109</ele>
        <time>2015-05-03T07:15:05.649Z</time>
      </trkpt>
      <trkpt lat="44.18331" lon="4.36687">
        <ele>289.724</ele>
        <time>2015-05-03T07:15:08.318Z</time>
      </trkpt>
      <trkpt lat="44.18339" lon="4.36701">
        <ele>289.428</ele>
        <time>2015-05-03T07:15:11.174Z</time>
      </trkpt>
      <trkpt lat="44.18346" lon="4.36717">
        <ele>289.195</ele>
        <time>2015-05-03T07:15:14.167Z</time>
      </trkpt>
      <trkpt lat="44.18354" lon="4.36735">
        <ele>288.883</ele>
        <time>2015-05-03T07:15:17.263Z</time>
      </trkpt>
      <trkpt lat="44.18361" lon="4.36747">
        <ele>288.706</ele>
        <time>2015-05-03T07:15:19.362Z</time>
      </trkpt>
      <trkpt lat="44.18372" lon="4.36767">
        <ele>288.867</ele>
        <time>2015-05-03T07:15:22.531Z</time>
      </trkpt>
      <trkpt lat="44.18383" lon="4.36789">
        <ele>289.112</ele>
        <time>2015-05-03T07:15:25.638Z</time>
      </trkpt>
      <trkpt lat="44.18398" lon="4.36805">
        <ele>288.991</ele>
        <time>2015-05-03T07:15:28.625Z</time>
      </trkpt>
      <trkpt lat="44.18412" lon="4.36805">
        <ele>288.108</ele>
        <time>2015-05-03T07:15:30.824Z</time>
      </trkpt>
      <trkpt lat="44.18424" lon="4.36803">
        <ele>286.486</ele>
        <time>2015-05-03T07:15:32.764Z</time>
      </trkpt>
      <trkpt lat="44.18435" lon="4.36799">
        <ele>284.664</ele>
        <time>2015-05-03T07:15:34.641Z</time>
      </trkpt>
      <trkpt lat="44.18453" lon="4.36793">
        <ele>283.241</ele>
        <time>2015-05-03T07:15:37.615Z</time>
      </trkpt>
      <trkpt lat="44.18462" lon="4.36789">
        <ele>282.671</ele>
        <time>2015-05-03T07:15:39.356Z</time>
      </trkpt>
      <trkpt lat="44.18479" lon="4.36784">
        <ele>283.517</ele>
        <time>2015-05-03T07:15:42.346Z</time>
      </trkpt>
      <trkpt lat="44.18491" lon="4.3678">
        <ele>285.535</ele>
        <time>2015-05-03T07:15:44.736Z</time>
      </trkpt>
      <trkpt lat="44.18503" lon="4.36773">
        <ele>287.147</ele>
        <time>2015-05-03T07:15:47.399Z</time>
      </trkpt>
      <trkpt lat="44.18512" lon="4.36766">
        <ele>287.267</ele>
        <time>2015-05-03T07:15:49.747Z</time>
      </trkpt>
      <trkpt lat="44.18522" lon="4.36761">
        <ele>286.11</ele>
        <time>2015-05-03T07:15:52.126Z</time>
      </trkpt>
      <trkpt lat="44.18531" lon="4.36758">
        <ele>284.618</ele>
        <time>2015-05-03T07:15:54.221Z</time>
      </trkpt>
      <trkpt lat="44.18539" lon="4.36752">
        <ele>283.628</ele>
        <time>2015-05-03T07:15:56.361Z</time>
      </trkpt>
      <trkpt lat="44.18551" lon="4.36743">
        <ele>283.343</ele>
        <time>2015-05-03T07:15:59.533Z</time>
      </trkpt>
      <trkpt lat="44.1856" lon="4.36733">
        <ele>283.861</ele>
        <time>2015-05-03T07:16:02.277Z</time>
      </trkpt>
      <trkpt lat="44.1857" lon="4.36723">
        <ele>285.029</ele>
        <time>2015-05-03T07:16:05.200Z</time>
      </trkpt>
      <trkpt lat="44.1858" lon="4.36716">
        <ele>285.984</ele>
        <time>2015-05-03T07:16:07.927Z</time>
      </trkpt>
      <trkpt lat="44.18591" lon="4.36711">
        <ele>286.258</ele>
        <time>2015-05-03T07:16:10.708Z</time>
      </trkpt>
      <trkpt lat="44.18602" lon="4.36705">
        <ele>285.712</ele>
        <time>2015-05-03T07:16:13.461Z</time>
      </trkpt>
      <trkpt lat="44.18612" lon="4.36697">
        <ele>284.541</ele>
        <time>2015-05-03T07:16:16.392Z</time>
      </trkpt>
      <trkpt lat="44.18621" lon="4.3669">
        <ele>283.484</ele>
        <time>2015-05-03T07:16:19.020Z</time>
      </trkpt>
      <trkpt lat="44.1863" lon="4.36683">
        <ele>282.887</ele>
        <time>2015-05-03T07:16:21.501Z</time>
      </trkpt>
      <trkpt lat="44.1864" lon="4.36676">
        <ele>282.491</ele>
        <time>2015-05-03T07:16:24.601Z</time>
      </trkpt>
      <trkpt lat="44.1865" lon="4.36674">
        <ele>282.737</ele>
        <time>2015-05-03T07:16:27.509Z</time>
      </trkpt>
      <trkpt lat="44.18661" lon="4.36675">
        <ele>284.398</ele>
        <time>2015-05-03T07:16:30.634Z</time>
      </trkpt>
      <trkpt lat="44.18671" lon="4.36676">
        <ele>286.445</ele>
        <time>2015-05-03T07:16:33.587Z</time>
      </trkpt>
      <trkpt lat="44.18683" lon="4.36674">
        <ele>287.267</ele>
        <time>2015-05-03T07:16:37.032Z</time>
      </trkpt>
      <trkpt lat="44.18695" lon="4.36673">
        <ele>286.962</ele>
        <time>2015-05-03T07:16:40.223Z</time>
      </trkpt>
      <trkpt lat="44.18705" lon="4.36672">
        <ele>286.5</ele>
        <time>2015-05-03T07:16:42.810Z</time>
      </trkpt>
      <trkpt lat="44.18716" lon="4.36673">
        <ele>286.503</ele>
        <time>2015-05-03T07:16:45.935Z</time>
      </trkpt>
      <trkpt lat="44.18726" lon="4.36671">
        <ele>287.113</ele>
        <time>2015-05-03T07:16:48.912Z</time>
      </trkpt>
      <trkpt lat="44.18735" lon="4.36666">
        <ele>287.842</ele>
        <time>2015-05-03T07:16:51.759Z</time>
      </trkpt>
      <trkpt lat="44.18747" lon="4.36658">
        <ele>288.112</ele>
        <time>2015-05-03T07:16:55.476Z</time>
      </trkpt>
      <trkpt lat="44.18756" lon="4.36648">
        <ele>287.505</ele>
        <time>2015-05-03T07:16:58.195Z</time>
      </trkpt>
      <trkpt lat="44.18766" lon="4.36643">
        <ele>286.271</ele>
        <time>2015-05-03T07:17:00.960Z</time>
      </trkpt>
      <trkpt lat="44.18776" lon="4.36644">
        <ele>285.526</ele>
        <time>2015-05-03T07:17:03.454Z</time>
      </trkpt>
      <trkpt lat="44.18789" lon="4.36645">
        <ele>285.864</ele>
        <time>2015-05-03T07:17:06.782Z</time>
      </trkpt>
      <trkpt lat="44.18803" lon="4.36646">
        <ele>286.968</ele>
        <time>2015-05-03T07:17:10.150Z</time>
      </trkpt>
      <trkpt lat="44.18819" lon="4.36645">
        <ele>287.898</ele>
        <time>2015-05-03T07:17:13.501Z</time>
      </trkpt>
      <trkpt lat="44.18832" lon="4.36632">
        <ele>287.817</ele>
        <time>2015-05-03T07:17:16.772Z</time>
      </trkpt>
      <trkpt lat="44.18843" lon="4.36614">
        <ele>286.677</ele>
        <time>2015-05-03T07:17:19.910Z</time>
      </trkpt>
      <trkpt lat="44.18854" lon="4.36593">
        <ele>284.972</ele>
        <time>2015-05-03T07:17:23.264Z</time>
      </trkpt>
      <trkpt lat="44.18862" lon="4.36575">
        <ele>282.942</ele>
        <time>2015-05-03T07:17:25.899Z</time>
      </trkpt>
      <trkpt lat="44.18868" lon="4.36563">
        <ele>280.846</ele>
        <time>2015-05-03T07:17:27.925Z</time>
      </trkpt>
      <trkpt lat="44.18875" lon="4.36549">
        <ele>278.876</ele>
        <time>2015-05-03T07:17:30.269Z</time>
      </trkpt>
      <trkpt lat="44.18881" lon="4.36536">
        <ele>277.193</ele>
        <time>2015-05-03T07:17:32.828Z</time>
      </trkpt>
      <trkpt lat="44.18889" lon="4.36525">
        <ele>275.697</ele>
        <time>2015-05-03T07:17:35.333Z</time>
      </trkpt>
      <trkpt lat="44.18898" lon="4.36514">
        <ele>274.4</ele>
        <time>2015-05-03T07:17:38.036Z</time>
      </trkpt>
      <trkpt lat="44.1891" lon="4.36501">
        <ele>273.573</ele>
        <time>2015-05-03T07:17:40.950Z</time>
      </trkpt>
      <trkpt lat="44.18925" lon="4.36489">
        <ele>272.721</ele>
        <time>2015-05-03T07:17:43.486Z</time>
      </trkpt>
      <trkpt lat="44.18948" lon="4.36477">
        <ele>270.553</ele>
        <time>2015-05-03T07:17:46.748Z</time>
      </trkpt>
      <trkpt lat="44.18963" lon="4.36472">
        <ele>266.834</ele>
        <time>2015-05-03T07:17:48.752Z</time>
      </trkpt>
      <trkpt lat="44.18979" lon="4.36466">
        <ele>262.699</ele>
        <time>2015-05-03T07:17:51.468Z</time>
      </trkpt>
      <trkpt lat="44.18997" lon="4.36458">
        <ele>259.301</ele>
        <time>2015-05-03T07:17:54.878Z</time>
      </trkpt>
      <trkpt lat="44.19009" lon="4.36451">
        <ele>256.815</ele>
        <time>2015-05-03T07:17:57.718Z</time>
      </trkpt>
      <trkpt lat="44.1902" lon="4.36446">
        <ele>254.584</ele>
        <time>2015-05-03T07:18:01.071Z</time>
      </trkpt>
      <trkpt lat="44.19028" lon="4.36441">
        <ele>252.134</ele>
        <time>2015-05-03T07:18:04.860Z</time>
      </trkpt>
      <trkpt lat="44.19028" lon="4.36441">
        <ele>249.87</ele>
        <time>2015-05-03T07:18:06.813Z</time>
      </trkpt>
      <trkpt lat="44.19028" lon="4.36441">
        <ele>248.653</ele>
        <time>2015-05-03T07:18:06.913Z</time>
      </trkpt>
      <trkpt lat="44.19037" lon="4.3643">
        <ele>249.15</ele>
        <time>2015-05-03T07:18:24.123Z</time>
      </trkpt>
      <trkpt lat="44.19047" lon="4.36426">
        <ele>249.998</ele>
        <time>2015-05-03T07:18:30.160Z</time>
      </trkpt>
      <trkpt lat="44.19057" lon="4.36431">
        <ele>251.376</ele>
        <time>2015-05-03T07:18:35.380Z</time>
      </trkpt>
      <trkpt lat="44.19065" lon="4.36438">
        <ele>252.647</ele>
        <time>2015-05-03T07:18:39.482Z</time>
      </trkpt>
      <trkpt lat="44.19074" lon="4.36446">
        <ele>253.446</ele>
        <time>2015-05-03T07:18:43.725Z</time>
      </trkpt>
      <trkpt lat="44.19083" lon="4.36453">
        <ele>254.187</ele>
        <time>2015-05-03T07:18:48.578Z</time>
      </trkpt>
      <trkpt lat="44.19089" lon="4.36443">
        <ele>254.997</ele>
        <time>2015-05-03T07:18:54.242Z</time>
      </trkpt>
      <trkpt lat="44.19094" lon="4.36431">
        <ele>255.566</ele>
        <time>2015-05-03T07:18:59.237Z</time>
      </trkpt>
      <trkpt lat="44.19097" lon="4.36418">
        <ele>255.286</ele>
        <time>2015-05-03T07:19:03.043Z</time>
      </trkpt>
      <trkpt lat="44.191" lon="4.36403">
        <ele>254.103</ele>
        <time>2015-05-03T07:19:07.087Z</time>
      </trkpt>
      <trkpt lat="44.19104" lon="4.36391">
        <ele>252.691</ele>
        <time>2015-05-03T07:19:10.526Z</time>
      </trkpt>
      <trkpt lat="44.1911" lon="4.36379">
        <ele>251.351</ele>
        <time>2015-05-03T07:19:14.345Z</time>
      </trkpt>
      <trkpt lat="44.19118" lon="4.3637">
        <ele>250.173</ele>
        <time>2015-05-03T07:19:18.227Z</time>
      </trkpt>
      <trkpt lat="44.19128" lon="4.36361">
        <ele>249.668</ele>
        <time>2015-05-03T07:19:22.474Z</time>
      </trkpt>
      <trkpt lat="44.19135" lon="4.36352">
        <ele>250.023</ele>
        <time>2015-05-03T07:19:25.921Z</time>
      </trkpt>
      <trkpt lat="44.19142" lon="4.36343">
        <ele>250.904</ele>
        <time>2015-05-03T07:19:29.457Z</time>
      </trkpt>
      <trkpt lat="44.1915" lon="4.36334">
        <ele>252.086</ele>
        <time>2015-05-03T07:19:32.882Z</time>
      </trkpt>
      <trkpt lat="44.19158" lon="4.36324">
        <ele>253.378</ele>
        <time>2015-05-03T07:19:36.869Z</time>
      </trkpt>
      <trkpt lat="44.19165" lon="4.36314">
        <ele>254.758</ele>
        <time>2015-05-03T07:19:40.123Z</time>
      </trkpt>
      <trkpt lat="44.19174" lon="4.36305">
        <ele>256.274</ele>
        <time>2015-05-03T07:19:44.018Z</time>
      </trkpt>
      <trkpt lat="44.19182" lon="4.36293">
        <ele>257.179</ele>
        <time>2015-05-03T07:19:48.452Z</time>
      </trkpt>
      <trkpt lat="44.19189" lon="4.36282">
        <ele>256.917</ele>
        <time>2015-05-03T07:19:52.057Z</time>
      </trkpt>
      <trkpt lat="44.19194" lon="4.36271">
        <ele>256.541</ele>
        <time>2015-05-03T07:19:55.348Z</time>
      </trkpt>
      <trkpt lat="44.19201" lon="4.36262">
        <ele>257.058</ele>
        <time>2015-05-03T07:19:59.027Z</time>
      </trkpt>
      <trkpt lat="44.1921" lon="4.36253">
        <ele>258.032</ele>
        <time>2015-05-03T07:20:02.946Z</time>
      </trkpt>
      <trkpt lat="44.19218" lon="4.36243">
        <ele>258.843</ele>
        <time>2015-05-03T07:20:06.974Z</time>
      </trkpt>
      <trkpt lat="44.19224" lon="4.36232">
        <ele>259.472</ele>
        <time>2015-05-03T07:20:10.762Z</time>
      </trkpt>
      <trkpt lat="44.19232" lon="4.36224">
        <ele>259.748</ele>
        <time>2015-05-03T07:20:14.233Z</time>
      </trkpt>
      <trkpt lat="44.1924" lon="4.36218">
        <ele>259.543</ele>
        <time>2015-05-03T07:20:17.800Z</time>
      </trkpt>
      <trkpt lat="44.1924" lon="4.36218">
        <ele>259.205</ele>
        <time>2015-05-03T07:20:21.823Z</time>
      </trkpt>
      <trkpt lat="44.1924" lon="4.36218">
        <ele>259.046</ele>
        <time>2015-05-03T07:20:21.923Z</time>
      </trkpt>
      <trkpt lat="44.19258" lon="4.36197">
        <ele>259.059</ele>
        <time>2015-05-03T07:20:34.649Z</time>
      </trkpt>
      <trkpt lat="44.19268" lon="4.36189">
        <ele>259.099</ele>
        <time>2015-05-03T07:20:39.582Z</time>
      </trkpt>
      <trkpt lat="44.19278" lon="4.36182">
        <ele>259.161</ele>
        <time>2015-05-03T07:20:44.465Z</time>
      </trkpt>
      <trkpt lat="44.19285" lon="4.36175">
        <ele>259.446</ele>
        <time>2015-05-03T07:20:48.334Z</time>
      </trkpt>
      <trkpt lat="44.19291" lon="4.36166">
        <ele>260.141</ele>
        <time>2015-05-03T07:20:52.255Z</time>
      </trkpt>
      <trkpt lat="44.19298" lon="4.36156">
        <ele>261.447</ele>
        <time>2015-05-03T07:20:56.481Z</time>
      </trkpt>
      <trkpt lat="44.19307" lon="4.36156">
        <ele>263.13</ele>
        <time>2015-05-03T07:21:01.041Z</time>
      </trkpt>
      <trkpt lat="44.19318" lon="4.36161">
        <ele>264.888</ele>
        <time>2015-05-03T07:21:05.936Z</time>
      </trkpt>
      <trkpt lat="44.19327" lon="4.36162">
        <ele>266.66</ele>
        <time>2015-05-03T07:21:09.981Z</time>
      </trkpt>
      <trkpt lat="44.19336" lon="4.36161">
        <ele>268.249</ele>
        <time>2015-05-03T07:21:14.251Z</time>
      </trkpt>
      <trkpt lat="44.19346" lon="4.3616">
        <ele>269.478</ele>
        <time>2015-05-03T07:21:18.946Z</time>
      </trkpt>
      <trkpt lat="44.19357" lon="4.36158">
        <ele>270.687</ele>
        <time>2015-05-03T07:21:24.127Z</time>
      </trkpt>
      <trkpt lat="44.19367" lon="4.36157">
        <ele>271.962</ele>
        <time>2015-05-03T07:21:28.434Z</time>
      </trkpt>
      <trkpt lat="44.19376" lon="4.36155">
        <ele>272.781</ele>
        <time>2015-05-03T07:21:32.624Z</time>
      </trkpt>
      <trkpt lat="44.19387" lon="4.36153">
        <ele>272.781</ele>
        <time>2015-05-03T07:21:37.026Z</time>
      </trkpt>
      <trkpt lat="44.19397" lon="4.3615">
        <ele>272.577</ele>
        <time>2015-05-03T07:21:41.884Z</time>
      </trkpt>
      <trkpt lat="44.19408" lon="4.36148">
        <ele>272.809</ele>
        <time>2015-05-03T07:21:46.700Z</time>
      </trkpt>
      <trkpt lat="44.19419" lon="4.36144">
        <ele>273.401</ele>
        <time>2015-05-03T07:21:51.582Z</time>
      </trkpt>
      <trkpt lat="44.1943" lon="4.36144">
        <ele>274.099</ele>
        <time>2015-05-03T07:21:56.861Z</time>
      </trkpt>
      <trkpt lat="44.19439" lon="4.36145">
        <ele>274.778</ele>
        <time>2015-05-03T07:22:01.029Z</time>
      </trkpt>
      <trkpt lat="44.19449" lon="4.36147">
        <ele>275.752</ele>
        <time>2015-05-03T07:22:05.381Z</time>
      </trkpt>
      <trkpt lat="44.19459" lon="4.36147">
        <ele>277.428</ele>
        <time>2015-05-03T07:22:10.192Z</time>
      </trkpt>
      <trkpt lat="44.19469" lon="4.36147">
        <ele>279.611</ele>
        <time>2015-05-03T07:22:14.874Z</time>
      </trkpt>
      <trkpt lat="44.19478" lon="4.36147">
        <ele>282.231</ele>
        <time>2015-05-03T07:22:19.258Z</time>
      </trkpt>
      <trkpt lat="44.19488" lon="4.36149">
        <ele>285.092</ele>
        <time>2015-05-03T07:22:23.961Z</time>
      </trkpt>
      <trkpt lat="44.19499" lon="4.36149">
        <ele>287.201</ele>
        <time>2015-05-03T07:22:28.874Z</time>
      </trkpt>
      <trkpt lat="44.1951" lon="4.3615">
        <ele>288.109</ele>
        <time>2015-05-03T07:22:33.666Z</time>
      </trkpt>
      <trkpt lat="44.1952" lon="4.36149">
        <ele>288.359</ele>
        <time>2015-05-03T07:22:37.966Z</time>
      </trkpt>
      <trkpt lat="44.1953" lon="4.36145">
        <ele>288.729</ele>
        <time>2015-05-03T07:22:42.325Z</time>
      </trkpt>
      <trkpt lat="44.19539" lon="4.36147">
        <ele>289.655</ele>
        <time>2015-05-03T07:22:46.179Z</time>
      </trkpt>
      <trkpt lat="44.19547" lon="4.36154">
        <ele>290.752</ele>
        <time>2015-05-03T07:22:49.889Z</time>
      </trkpt>
      <trkpt lat="44.19557" lon="4.3616">
        <ele>291.436</ele>
        <time>2015-05-03T07:22:54.063Z</time>
      </trkpt>
      <trkpt lat="44.19564" lon="4.3617">
        <ele>291.63</ele>
        <time>2015-05-03T07:22:57.929Z</time>
      </trkpt>
      <trkpt lat="44.19569" lon="4.36184">
        <ele>292.143</ele>
        <time>2015-05-03T07:23:02.332Z</time>
      </trkpt>
      <trkpt lat="44.19574" lon="4.36195">
        <ele>293.804</ele>
        <time>2015-05-03T07:23:06.148Z</time>
      </trkpt>
      <trkpt lat="44.19581" lon="4.36205">
        <ele>296.041</ele>
        <time>2015-05-03T07:23:10.095Z</time>
      </trkpt>
      <trkpt lat="44.19588" lon="4.36217">
        <ele>297.664</ele>
        <time>2015-05-03T07:23:14.461Z</time>
      </trkpt>
      <trkpt lat="44.19594" lon="4.36229">
        <ele>298.54</ele>
        <time>2015-05-03T07:23:18.833Z</time>
      </trkpt>
      <trkpt lat="44.19599" lon="4.36241">
        <ele>299.23</ele>
        <time>2015-05-03T07:23:23.259Z</time>
      </trkpt>
      <trkpt lat="44.19606" lon="4.36253">
        <ele>299.942</ele>
        <time>2015-05-03T07:23:28.063Z</time>
      </trkpt>
      <trkpt lat="44.1961" lon="4.36264">
        <ele>300.451</ele>
        <time>2015-05-03T07:23:32.010Z</time>
      </trkpt>
      <trkpt lat="44.19615" lon="4.36277">
        <ele>300.66</ele>
        <time>2015-05-03T07:23:36.311Z</time>
      </trkpt>
      <trkpt lat="44.1962" lon="4.36289">
        <ele>300.999</ele>
        <time>2015-05-03T07:23:40.152Z</time>
      </trkpt>
      <trkpt lat="44.19625" lon="4.36301">
        <ele>301.769</ele>
        <time>2015-05-03T07:23:43.689Z</time>
      </trkpt>
      <trkpt lat="44.19631" lon="4.36313">
        <ele>302.421</ele>
        <time>2015-05-03T07:23:47.592Z</time>
      </trkpt>
      <trkpt lat="44.19637" lon="4.36326">
        <ele>302.433</ele>
        <time>2015-05-03T07:23:51.391Z</time>
      </trkpt>
      <trkpt lat="44.19643" lon="4.36335">
        <ele>302.123</ele>
        <time>2015-05-03T07:23:54.709Z</time>
      </trkpt>
      <trkpt lat="44.19649" lon="4.36346">
        <ele>301.964</ele>
        <time>2015-05-03T07:23:57.965Z</time>
      </trkpt>
      <trkpt lat="44.19655" lon="4.36359">
        <ele>302.097</ele>
        <time>2015-05-03T07:24:01.673Z</time>
      </trkpt>
      <trkpt lat="44.19661" lon="4.36369">
        <ele>302.377</ele>
        <time>2015-05-03T07:24:04.929Z</time>
      </trkpt>
      <trkpt lat="44.19669" lon="4.36381">
        <ele>302.477</ele>
        <time>2015-05-03T07:24:08.312Z</time>
      </trkpt>
      <trkpt lat="44.19676" lon="4.36389">
        <ele>302.239</ele>
        <time>2015-05-03T07:24:11.165Z</time>
      </trkpt>
      <trkpt lat="44.19684" lon="4.36399">
        <ele>301.829</ele>
        <time>2015-05-03T07:24:14.176Z</time>
      </trkpt>
      <trkpt lat="44.19692" lon="4.3641">
        <ele>301.424</ele>
        <time>2015-05-03T07:24:17.327Z</time>
      </trkpt>
      <trkpt lat="44.19698" lon="4.36422">
        <ele>300.994</ele>
        <time>2015-05-03T07:24:20.351Z</time>
      </trkpt>
      <trkpt lat="44.19704" lon="4.36433">
        <ele>300.567</ele>
        <time>2015-05-03T07:24:23.050Z</time>
      </trkpt>
      <trkpt lat="44.19711" lon="4.36441">
        <ele>300.609</ele>
        <time>2015-05-03T07:24:25.768Z</time>
      </trkpt>
      <trkpt lat="44.19722" lon="4.36447">
        <ele>301.362</ele>
        <time>2015-05-03T07:24:29.562Z</time>
      </trkpt>
      <trkpt lat="44.19735" lon="4.36447">
        <ele>301.976</ele>
        <time>2015-05-03T07:24:33.247Z</time>
      </trkpt>
      <trkpt lat="44.1975" lon="4.36448">
        <ele>301.549</ele>
        <time>2015-05-03T07:24:36.928Z</time>
      </trkpt>
      <trkpt lat="44.19762" lon="4.3645">
        <ele>300.398</ele>
        <time>2015-05-03T07:24:39.925Z</time>
      </trkpt>
      <trkpt lat="44.19774" lon="4.36453">
        <ele>299.43</ele>
        <time>2015-05-03T07:24:42.645Z</time>
      </trkpt>
      <trkpt lat="44.19785" lon="4.36457">
        <ele>299.161</ele>
        <time>2015-05-03T07:24:45.569Z</time>
      </trkpt>
      <trkpt lat="44.19795" lon="4.3646">
        <ele>299.651</ele>
        <time>2015-05-03T07:24:48.081Z</time>
      </trkpt>
      <trkpt lat="44.19806" lon="4.36464">
        <ele>300.437</ele>
        <time>2015-05-03T07:24:50.987Z</time>
      </trkpt>
      <trkpt lat="44.19814" lon="4.36469">
        <ele>301.007</ele>
        <time>2015-05-03T07:24:53.637Z</time>
      </trkpt>
      <trkpt lat="44.19823" lon="4.36477">
        <ele>301.214</ele>
        <time>2015-05-03T07:24:56.772Z</time>
      </trkpt>
      <trkpt lat="44.19831" lon="4.36486">
        <ele>301.055</ele>
        <time>2015-05-03T07:24:59.836Z</time>
      </trkpt>
      <trkpt lat="44.19838" lon="4.36496">
        <ele>300.589</ele>
        <time>2015-05-03T07:25:02.623Z</time>
      </trkpt>
      <trkpt lat="44.19847" lon="4.36508">
        <ele>299.791</ele>
        <time>2015-05-03T07:25:06.095Z</time>
      </trkpt>
      <trkpt lat="44.19856" lon="4.36517">
        <ele>298.669</ele>
        <time>2015-05-03T07:25:09.000Z</time>
      </trkpt>
      <trkpt lat="44.19863" lon="4.36527">
        <ele>297.732</ele>
        <time>2015-05-03T07:25:11.695Z</time>
      </trkpt>
      <trkpt lat="44.1987" lon="4.36536">
        <ele>297.456</ele>
        <time>2015-05-03T07:25:14.423Z</time>
      </trkpt>
      <trkpt lat="44.19878" lon="4.36543">
        <ele>297.779</ele>
        <time>2015-05-03T07:25:17.021Z</time>
      </trkpt>
      <trkpt lat="44.19887" lon="4.36551">
        <ele>298.455</ele>
        <time>2015-05-03T07:25:20.248Z</time>
      </trkpt>
      <trkpt lat="44.19897" lon="4.36557">
        <ele>299.545</ele>
        <time>2015-05-03T07:25:23.521Z</time>
      </trkpt>
      <trkpt lat="44.19907" lon="4.36564">
        <ele>300.955</ele>
        <time>2015-05-03T07:25:27.258Z</time>
      </trkpt>
      <trkpt lat="44.19917" lon="4.3657">
        <ele>302.31</ele>
        <time>2015-05-03T07:25:30.908Z</time>
      </trkpt>
      <trkpt lat="44.19927" lon="4.36575">
        <ele>303.438</ele>
        <time>2015-05-03T07:25:34.905Z</time>
      </trkpt>
      <trkpt lat="44.19937" lon="4.36577">
        <ele>304.354</ele>
        <time>2015-05-03T07:25:38.608Z</time>
      </trkpt>
      <trkpt lat="44.19948" lon="4.3658">
        <ele>305.069</ele>
        <time>2015-05-03T07:25:42.442Z</time>
      </trkpt>
      <trkpt lat="44.19958" lon="4.36584">
        <ele>305.571</ele>
        <time>2015-05-03T07:25:45.848Z</time>
      </trkpt>
      <trkpt lat="44.19968" lon="4.36591">
        <ele>305.78</ele>
        <time>2015-05-03T07:25:49.565Z</time>
      </trkpt>
      <trkpt lat="44.19974" lon="4.36603">
        <ele>305.576</ele>
        <time>2015-05-03T07:25:53.156Z</time>
      </trkpt>
      <trkpt lat="44.19974" lon="4.36616">
        <ele>304.839</ele>
        <time>2015-05-03T07:25:56.404Z</time>
      </trkpt>
      <trkpt lat="44.19972" lon="4.36632">
        <ele>303.904</ele>
        <time>2015-05-03T07:26:00.330Z</time>
      </trkpt>
      <trkpt lat="44.19972" lon="4.36647">
        <ele>303.457</ele>
        <time>2015-05-03T07:26:03.841Z</time>
      </trkpt>
      <trkpt lat="44.19972" lon="4.36664">
        <ele>303.693</ele>
        <time>2015-05-03T07:26:07.426Z</time>
      </trkpt>
      <trkpt lat="44.19977" lon="4.36678">
        <ele>304.104</ele>
        <time>2015-05-03T07:26:10.562Z</time>
      </trkpt>
      <trkpt lat="44.1998" lon="4.36693">
        <ele>304.237</ele>
        <time>2015-05-03T07:26:13.658Z</time>
      </trkpt>
      <trkpt lat="44.19985" lon="4.36708">
        <ele>304.143</ele>
        <time>2015-05-03T07:26:16.704Z</time>
      </trkpt>
      <trkpt lat="44.19991" lon="4.36724">
        <ele>304.096</ele>
        <time>2015-05-03T07:26:19.837Z</time>
      </trkpt>
      <trkpt lat="44.19998" lon="4.3674">
        <ele>304.17</ele>
        <time>2015-05-03T07:26:23.198Z</time>
      </trkpt>
      <trkpt lat="44.20005" lon="4.36751">
        <ele>304.271</ele>
        <time>2015-05-03T07:26:25.413Z</time>
      </trkpt>
      <trkpt lat="44.20011" lon="4.36767">
        <ele>304.532</ele>
        <time>2015-05-03T07:26:28.357Z</time>
      </trkpt>
      <trkpt lat="44.20017" lon="4.36781">
        <ele>305.056</ele>
        <time>2015-05-03T07:26:30.785Z</time>
      </trkpt>
      <trkpt lat="44.20024" lon="4.368">
        <ele>305.56</ele>
        <time>2015-05-03T07:26:33.940Z</time>
      </trkpt>
      <trkpt lat="44.2003" lon="4.36819">
        <ele>305.819</ele>
        <time>2015-05-03T07:26:36.777Z</time>
      </trkpt>
      <trkpt lat="44.20037" lon="4.36838">
        <ele>305.874</ele>
        <time>2015-05-03T07:26:39.822Z</time>
      </trkpt>
      <trkpt lat="44.20041" lon="4.36852">
        <ele>305.716</ele>
        <time>2015-05-03T07:26:41.793Z</time>
      </trkpt>
      <trkpt lat="44.20049" lon="4.36871">
        <ele>305.475</ele>
        <time>2015-05-03T07:26:44.793Z</time>
      </trkpt>
      <trkpt lat="44.20056" lon="4.36889">
        <ele>305.553</ele>
        <time>2015-05-03T07:26:47.563Z</time>
      </trkpt>
      <trkpt lat="44.20062" lon="4.36903">
        <ele>306.431</ele>
        <time>2015-05-03T07:26:49.657Z</time>
      </trkpt>
      <trkpt lat="44.20072" lon="4.36921">
        <ele>306.769</ele>
        <time>2015-05-03T07:26:52.685Z</time>
      </trkpt>
      <trkpt lat="44.20084" lon="4.36936">
        <ele>307.173</ele>
        <time>2015-05-03T07:26:55.601Z</time>
      </trkpt>
      <trkpt lat="44.20092" lon="4.36949">
        <ele>307.475</ele>
        <time>2015-05-03T07:26:57.804Z</time>
      </trkpt>
      <trkpt lat="44.20101" lon="4.36968">
        <ele>307.331</ele>
        <time>2015-05-03T07:27:00.795Z</time>
      </trkpt>
      <trkpt lat="44.20109" lon="4.36983">
        <ele>306.636</ele>
        <time>2015-05-03T07:27:03.038Z</time>
      </trkpt>
      <trkpt lat="44.20116" lon="4.36995">
        <ele>305.604</ele>
        <time>2015-05-03T07:27:05.003Z</time>
      </trkpt>
      <trkpt lat="44.20127" lon="4.37015">
        <ele>304.505</ele>
        <time>2015-05-03T07:27:08.093Z</time>
      </trkpt>
      <trkpt lat="44.20134" lon="4.37033">
        <ele>303.522</ele>
        <time>2015-05-03T07:27:10.666Z</time>
      </trkpt>
      <trkpt lat="44.20145" lon="4.37043">
        <ele>302.85</ele>
        <time>2015-05-03T07:27:13.075Z</time>
      </trkpt>
      <trkpt lat="44.20156" lon="4.37053">
        <ele>302.371</ele>
        <time>2015-05-03T07:27:15.612Z</time>
      </trkpt>
      <trkpt lat="44.20168" lon="4.37063">
        <ele>301.418</ele>
        <time>2015-05-03T07:27:18.497Z</time>
      </trkpt>
      <trkpt lat="44.20179" lon="4.37078">
        <ele>301.245</ele>
        <time>2015-05-03T07:27:21.747Z</time>
      </trkpt>
      <trkpt lat="44.2019" lon="4.37091">
        <ele>301.203</ele>
        <time>2015-05-03T07:27:24.876Z</time>
      </trkpt>
      <trkpt lat="44.20204" lon="4.37094">
        <ele>301.088</ele>
        <time>2015-05-03T07:27:27.771Z</time>
      </trkpt>
      <trkpt lat="44.2022" lon="4.37102">
        <ele>300.85</ele>
        <time>2015-05-03T07:27:31.232Z</time>
      </trkpt>
      <trkpt lat="44.20228" lon="4.3711">
        <ele>300.896</ele>
        <time>2015-05-03T07:27:33.236Z</time>
      </trkpt>
      <trkpt lat="44.20234" lon="4.37129">
        <ele>301.57</ele>
        <time>2015-05-03T07:27:36.447Z</time>
      </trkpt>
      <trkpt lat="44.20235" lon="4.37148">
        <ele>302.4</ele>
        <time>2015-05-03T07:27:39.296Z</time>
      </trkpt>
      <trkpt lat="44.20236" lon="4.37168">
        <ele>302.825</ele>
        <time>2015-05-03T07:27:42.484Z</time>
      </trkpt>
      <trkpt lat="44.20237" lon="4.37183">
        <ele>302.947</ele>
        <time>2015-05-03T07:27:44.565Z</time>
      </trkpt>
      <trkpt lat="44.2024" lon="4.37202">
        <ele>303.084</ele>
        <time>2015-05-03T07:27:47.362Z</time>
      </trkpt>
      <trkpt lat="44.20242" lon="4.37221">
        <ele>303.507</ele>
        <time>2015-05-03T07:27:50.222Z</time>
      </trkpt>
      <trkpt lat="44.20242" lon="4.37234">
        <ele>304.207</ele>
        <time>2015-05-03T07:27:52.073Z</time>
      </trkpt>
      <trkpt lat="44.20243" lon="4.37258">
        <ele>304.787</ele>
        <time>2015-05-03T07:27:55.409Z</time>
      </trkpt>
      <trkpt lat="44.20248" lon="4.3728">
        <ele>304.74</ele>
        <time>2015-05-03T07:27:58.482Z</time>
      </trkpt>
      <trkpt lat="44.20248" lon="4.37293">
        <ele>303.998</ele>
        <time>2015-05-03T07:28:00.283Z</time>
      </trkpt>
      <trkpt lat="44.20248" lon="4.37312">
        <ele>303.14</ele>
        <time>2015-05-03T07:28:02.898Z</time>
      </trkpt>
      <trkpt lat="44.20252" lon="4.37325">
        <ele>302.851</ele>
        <time>2015-05-03T07:28:05.019Z</time>
      </trkpt>
      <trkpt lat="44.20261" lon="4.37319">
        <ele>303.272</ele>
        <time>2015-05-03T07:28:07.637Z</time>
      </trkpt>
      <trkpt lat="44.20272" lon="4.37316">
        <ele>304.215</ele>
        <time>2015-05-03T07:28:11.303Z</time>
      </trkpt>
      <trkpt lat="44.20284" lon="4.37312">
        <ele>305.353</ele>
        <time>2015-05-03T07:28:15.232Z</time>
      </trkpt>
      <trkpt lat="44.20295" lon="4.3731">
        <ele>306.27</ele>
        <time>2015-05-03T07:28:18.552Z</time>
      </trkpt>
      <trkpt lat="44.20303" lon="4.37317">
        <ele>306.692</ele>
        <time>2015-05-03T07:28:21.341Z</time>
      </trkpt>
      <trkpt lat="44.20311" lon="4.37326">
        <ele>306.559</ele>
        <time>2015-05-03T07:28:24.389Z</time>
      </trkpt>
      <trkpt lat="44.20321" lon="4.37332">
        <ele>306.009</ele>
        <time>2015-05-03T07:28:27.712Z</time>
      </trkpt>
      <trkpt lat="44.20331" lon="4.3733">
        <ele>305.446</ele>
        <time>2015-05-03T07:28:30.757Z</time>
      </trkpt>
      <trkpt lat="44.2034" lon="4.37329">
        <ele>305.153</ele>
        <time>2015-05-03T07:28:33.497Z</time>
      </trkpt>
      <trkpt lat="44.20351" lon="4.37327">
        <ele>305.08</ele>
        <time>2015-05-03T07:28:36.742Z</time>
      </trkpt>
      <trkpt lat="44.20363" lon="4.37327">
        <ele>305.057</ele>
        <time>2015-05-03T07:28:40.030Z</time>
      </trkpt>
      <trkpt lat="44.20373" lon="4.37327">
        <ele>305.188</ele>
        <time>2015-05-03T07:28:42.909Z</time>
      </trkpt>
      <trkpt lat="44.20383" lon="4.37326">
        <ele>306.057</ele>
        <time>2015-05-03T07:28:45.617Z</time>
      </trkpt>
      <trkpt lat="44.20392" lon="4.37324">
        <ele>307.637</ele>
        <time>2015-05-03T07:28:48.334Z</time>
      </trkpt>
      <trkpt lat="44.20404" lon="4.37323">
        <ele>308.976</ele>
        <time>2015-05-03T07:28:51.607Z</time>
      </trkpt>
      <trkpt lat="44.20415" lon="4.37326">
        <ele>309.331</ele>
        <time>2015-05-03T07:28:54.675Z</time>
      </trkpt>
      <trkpt lat="44.20427" lon="4.37332">
        <ele>308.838</ele>
        <time>2015-05-03T07:28:57.936Z</time>
      </trkpt>
      <trkpt lat="44.20439" lon="4.37336">
        <ele>307.939</ele>
        <time>2015-05-03T07:29:01.273Z</time>
      </trkpt>
      <trkpt lat="44.20453" lon="4.37337">
        <ele>307.049</ele>
        <time>2015-05-03T07:29:04.448Z</time>
      </trkpt>
      <trkpt lat="44.20466" lon="4.37341">
        <ele>306.462</ele>
        <time>2015-05-03T07:29:07.535Z</time>
      </trkpt>
      <trkpt lat="44.20479" lon="4.37343">
        <ele>306.255</ele>
        <time>2015-05-03T07:29:10.578Z</time>
      </trkpt>
      <trkpt lat="44.2049" lon="4.37334">
        <ele>306.125</ele>
        <time>2015-05-03T07:29:13.474Z</time>
      </trkpt>
      <trkpt lat="44.20497" lon="4.37319">
        <ele>305.708</ele>
        <time>2015-05-03T07:29:16.701Z</time>
      </trkpt>
      <trkpt lat="44.20505" lon="4.37302">
        <ele>304.934</ele>
        <time>2015-05-03T07:29:20.143Z</time>
      </trkpt>
      <trkpt lat="44.20514" lon="4.37292">
        <ele>304.116</ele>
        <time>2015-05-03T07:29:22.572Z</time>
      </trkpt>
      <trkpt lat="44.2053" lon="4.37278">
        <ele>303.349</ele>
        <time>2015-05-03T07:29:25.993Z</time>
      </trkpt>
      <trkpt lat="44.20545" lon="4.37266">
        <ele>302.228</ele>
        <time>2015-05-03T07:29:29.124Z</time>
      </trkpt>
      <trkpt lat="44.20562" lon="4.37253">
        <ele>300.481</ele>
        <time>2015-05-03T07:29:32.163Z</time>
      </trkpt>
      <trkpt lat="44.20572" lon="4.37245">
        <ele>298.642</ele>
        <time>2015-05-03T07:29:34.074Z</time>
      </trkpt>
      <trkpt lat="44.20583" lon="4.37241">
        <ele>297.376</ele>
        <time>2015-05-03T07:29:35.991Z</time>
      </trkpt>
      <trkpt lat="44.20597" lon="4.3724">
        <ele>296.726</ele>
        <time>2015-05-03T07:29:38.414Z</time>
      </trkpt>
      <trkpt lat="44.20609" lon="4.37243">
        <ele>296.403</ele>
        <time>2015-05-03T07:29:40.723Z</time>
      </trkpt>
      <trkpt lat="44.20622" lon="4.37246">
        <ele>296.224</ele>
        <time>2015-05-03T07:29:43.366Z</time>
      </trkpt>
      <trkpt lat="44.20632" lon="4.37249">
        <ele>296.146</ele>
        <time>2015-05-03T07:29:45.417Z</time>
      </trkpt>
      <trkpt lat="44.20648" lon="4.37259">
        <ele>296.171</ele>
        <time>2015-05-03T07:29:48.750Z</time>
      </trkpt>
      <trkpt lat="44.2066" lon="4.37265">
        <ele>295.849</ele>
        <time>2015-05-03T07:29:50.979Z</time>
      </trkpt>
      <trkpt lat="44.20681" lon="4.37274">
        <ele>294.897</ele>
        <time>2015-05-03T07:29:54.474Z</time>
      </trkpt>
      <trkpt lat="44.20695" lon="4.37279">
        <ele>293.61</ele>
        <time>2015-05-03T07:29:56.635Z</time>
      </trkpt>
      <trkpt lat="44.20707" lon="4.37281">
        <ele>292.334</ele>
        <time>2015-05-03T07:29:58.466Z</time>
      </trkpt>
      <trkpt lat="44.20726" lon="4.37275">
        <ele>291.279</ele>
        <time>2015-05-03T07:30:01.513Z</time>
      </trkpt>
      <trkpt lat="44.2074" lon="4.37284">
        <ele>290.65</ele>
        <time>2015-05-03T07:30:04.028Z</time>
      </trkpt>
      <trkpt lat="44.2075" lon="4.37304">
        <ele>289.726</ele>
        <time>2015-05-03T07:30:07.212Z</time>
      </trkpt>
      <trkpt lat="44.20756" lon="4.37322">
        <ele>287.96</ele>
        <time>2015-05-03T07:30:10.444Z</time>
      </trkpt>
      <trkpt lat="44.20755" lon="4.37335">
        <ele>286.222</ele>
        <time>2015-05-03T07:30:13.031Z</time>
      </trkpt>
      <trkpt lat="44.20751" lon="4.37348">
        <ele>285.659</ele>
        <time>2015-05-03T07:30:15.892Z</time>
      </trkpt>
      <trkpt lat="44.20749" lon="4.37363">
        <ele>285.924</ele>
        <time>2015-05-03T07:30:18.878Z</time>
      </trkpt>
      <trkpt lat="44.20749" lon="4.37377">
        <ele>286.147</ele>
        <time>2015-05-03T07:30:21.720Z</time>
      </trkpt>
      <trkpt lat="44.20748" lon="4.37392">
        <ele>286.157</ele>
        <time>2015-05-03T07:30:24.577Z</time>
      </trkpt>
      <trkpt lat="44.20744" lon="4.37409">
        <ele>286.2</ele>
        <time>2015-05-03T07:30:27.933Z</time>
      </trkpt>
      <trkpt lat="44.20736" lon="4.37422">
        <ele>286.275</ele>
        <time>2015-05-03T07:30:31.121Z</time>
      </trkpt>
      <trkpt lat="44.20726" lon="4.37432">
        <ele>286.383</ele>
        <time>2015-05-03T07:30:34.338Z</time>
      </trkpt>
      <trkpt lat="44.20718" lon="4.37442">
        <ele>286.454</ele>
        <time>2015-05-03T07:30:37.082Z</time>
      </trkpt>
      <trkpt lat="44.20711" lon="4.37458">
        <ele>286.403</ele>
        <time>2015-05-03T07:30:40.323Z</time>
      </trkpt>
      <trkpt lat="44.20708" lon="4.37471">
        <ele>286.256</ele>
        <time>2015-05-03T07:30:42.501Z</time>
      </trkpt>
      <trkpt lat="44.20704" lon="4.37485">
        <ele>285.769</ele>
        <time>2015-05-03T07:30:44.696Z</time>
      </trkpt>
      <trkpt lat="44.20702" lon="4.37505">
        <ele>284.69</ele>
        <time>2015-05-03T07:30:47.793Z</time>
      </trkpt>
      <trkpt lat="44.20699" lon="4.37523">
        <ele>283.483</ele>
        <time>2015-05-03T07:30:50.787Z</time>
      </trkpt>
      <trkpt lat="44.207" lon="4.37543">
        <ele>282.974</ele>
        <time>2015-05-03T07:30:54.036Z</time>
      </trkpt>
      <trkpt lat="44.20699" lon="4.3756">
        <ele>283.389</ele>
        <time>2015-05-03T07:30:56.986Z</time>
      </trkpt>
      <trkpt lat="44.20696" lon="4.37578">
        <ele>284.879</ele>
        <time>2015-05-03T07:31:00.331Z</time>
      </trkpt>
      <trkpt lat="44.20691" lon="4.37594">
        <ele>287.236</ele>
        <time>2015-05-03T07:31:03.884Z</time>
      </trkpt>
      <trkpt lat="44.20689" lon="4.3761">
        <ele>289.321</ele>
        <time>2015-05-03T07:31:07.689Z</time>
      </trkpt>
      <trkpt lat="44.20691" lon="4.37627">
        <ele>289.912</ele>
        <time>2015-05-03T07:31:11.473Z</time>
      </trkpt>
      <trkpt lat="44.20694" lon="4.37642">
        <ele>289.02</ele>
        <time>2015-05-03T07:31:14.791Z</time>
      </trkpt>
      <trkpt lat="44.20698" lon="4.37656">
        <ele>287.659</ele>
        <time>2015-05-03T07:31:17.605Z</time>
      </trkpt>
      <trkpt lat="44.20703" lon="4.37672">
        <ele>286.778</ele>
        <time>2015-05-03T07:31:20.732Z</time>
      </trkpt>
      <trkpt lat="44.20707" lon="4.37688">
        <ele>286.33</ele>
        <time>2015-05-03T07:31:24.000Z</time>
      </trkpt>
      <trkpt lat="44.2071" lon="4.37702">
        <ele>285.53</ele>
        <time>2015-05-03T07:31:27.241Z</time>
      </trkpt>
      <trkpt lat="44.20714" lon="4.37715">
        <ele>284.006</ele>
        <time>2015-05-03T07:31:30.021Z</time>
      </trkpt>
      <trkpt lat="44.20717" lon="4.37728">
        <ele>282.361</ele>
        <time>2015-05-03T07:31:32.839Z</time>
      </trkpt>
      <trkpt lat="44.20722" lon="4.37744">
        <ele>281.158</ele>
        <time>2015-05-03T07:31:36.205Z</time>
      </trkpt>
      <trkpt lat="44.20727" lon="4.37761">
        <ele>280.525</ele>
        <time>2015-05-03T07:31:39.574Z</time>
      </trkpt>
      <trkpt lat="44.20734" lon="4.37773">
        <ele>280.131</ele>
        <time>2015-05-03T07:31:42.488Z</time>
      </trkpt>
      <trkpt lat="44.20743" lon="4.37785">
        <ele>279.136</ele>
        <time>2015-05-03T07:31:45.567Z</time>
      </trkpt>
      <trkpt lat="44.20748" lon="4.37797">
        <ele>277.045</ele>
        <time>2015-05-03T07:31:48.103Z</time>
      </trkpt>
      <trkpt lat="44.20753" lon="4.37814">
        <ele>274.523</ele>
        <time>2015-05-03T07:31:51.037Z</time>
      </trkpt>
      <trkpt lat="44.20758" lon="4.37834">
        <ele>273.314</ele>
        <time>2015-05-03T07:31:54.330Z</time>
      </trkpt>
      <trkpt lat="44.20765" lon="4.3785">
        <ele>274.195</ele>
        <time>2015-05-03T07:31:57.366Z</time>
      </trkpt>
      <trkpt lat="44.20769" lon="4.37867">
        <ele>274.949</ele>
        <time>2015-05-03T07:32:00.527Z</time>
      </trkpt>
      <trkpt lat="44.20768" lon="4.37881">
        <ele>273.73</ele>
        <time>2015-05-03T07:32:03.015Z</time>
      </trkpt>
      <trkpt lat="44.20767" lon="4.37901">
        <ele>271.769</ele>
        <time>2015-05-03T07:32:06.448Z</time>
      </trkpt>
      <trkpt lat="44.20771" lon="4.37922">
        <ele>270.498</ele>
        <time>2015-05-03T07:32:10.283Z</time>
      </trkpt>
      <trkpt lat="44.20775" lon="4.37934">
        <ele>269.836</ele>
        <time>2015-05-03T07:32:12.483Z</time>
      </trkpt>
      <trkpt lat="44.20777" lon="4.37947">
        <ele>269.728</ele>
        <time>2015-05-03T07:32:14.806Z</time>
      </trkpt>
      <trkpt lat="44.20779" lon="4.37961">
        <ele>270.191</ele>
        <time>2015-05-03T07:32:17.343Z</time>
      </trkpt>
      <trkpt lat="44.2078" lon="4.37978">
        <ele>270.816</ele>
        <time>2015-05-03T07:32:20.326Z</time>
      </trkpt>
      <trkpt lat="44.20779" lon="4.37994">
        <ele>271.453</ele>
        <time>2015-05-03T07:32:23.121Z</time>
      </trkpt>
      <trkpt lat="44.2078" lon="4.38008">
        <ele>272.313</ele>
        <time>2015-05-03T07:32:25.447Z</time>
      </trkpt>
      <trkpt lat="44.2078" lon="4.38027">
        <ele>273.547</ele>
        <time>2015-05-03T07:32:28.800Z</time>
      </trkpt>
      <trkpt lat="44.20778" lon="4.38042">
        <ele>275.298</ele>
        <time>2015-05-03T07:32:31.497Z</time>
      </trkpt>
      <trkpt lat="44.20771" lon="4.38061">
        <ele>277.268</ele>
        <time>2015-05-03T07:32:35.088Z</time>
      </trkpt>
      <trkpt lat="44.20765" lon="4.38072">
        <ele>278.814</ele>
        <time>2015-05-03T07:32:37.223Z</time>
      </trkpt>
      <trkpt lat="44.20758" lon="4.38085">
        <ele>279.742</ele>
        <time>2015-05-03T07:32:40.092Z</time>
      </trkpt>
      <trkpt lat="44.20755" lon="4.38105">
        <ele>280.074</ele>
        <time>2015-05-03T07:32:43.634Z</time>
      </trkpt>
      <trkpt lat="44.20758" lon="4.38123">
        <ele>279.223</ele>
        <time>2015-05-03T07:32:46.728Z</time>
      </trkpt>
      <trkpt lat="44.20762" lon="4.38141">
        <ele>276.814</ele>
        <time>2015-05-03T07:32:49.975Z</time>
      </trkpt>
      <trkpt lat="44.20765" lon="4.38158">
        <ele>273.756</ele>
        <time>2015-05-03T07:32:52.834Z</time>
      </trkpt>
      <trkpt lat="44.20767" lon="4.38177">
        <ele>271.647</ele>
        <time>2015-05-03T07:32:56.172Z</time>
      </trkpt>
      <trkpt lat="44.20769" lon="4.38196">
        <ele>270.9</ele>
        <time>2015-05-03T07:32:59.598Z</time>
      </trkpt>
      <trkpt lat="44.20768" lon="4.38212">
        <ele>270.872</ele>
        <time>2015-05-03T07:33:02.438Z</time>
      </trkpt>
      <trkpt lat="44.20766" lon="4.38227">
        <ele>270.933</ele>
        <time>2015-05-03T07:33:06.209Z</time>
      </trkpt>
      <trkpt lat="44.2076" lon="4.38239">
        <ele>270.853</ele>
        <time>2015-05-03T07:33:09.496Z</time>
      </trkpt>
      <trkpt lat="44.20751" lon="4.3825">
        <ele>270.443</ele>
        <time>2015-05-03T07:33:15.073Z</time>
      </trkpt>
      <trkpt lat="44.2075" lon="4.38265">
        <ele>269.796</ele>
        <time>2015-05-03T07:33:20.071Z</time>
      </trkpt>
      <trkpt lat="44.20757" lon="4.38275">
        <ele>269.257</ele>
        <time>2015-05-03T07:33:23.892Z</time>
      </trkpt>
      <trkpt lat="44.20766" lon="4.38282">
        <ele>269.084</ele>
        <time>2015-05-03T07:33:27.293Z</time>
      </trkpt>
      <trkpt lat="44.20777" lon="4.38289">
        <ele>269.38</ele>
        <time>2015-05-03T07:33:31.472Z</time>
      </trkpt>
      <trkpt lat="44.20786" lon="4.38295">
        <ele>269.66</ele>
        <time>2015-05-03T07:33:36.183Z</time>
      </trkpt>
      <trkpt lat="44.20793" lon="4.38303">
        <ele>269.204</ele>
        <time>2015-05-03T07:33:40.267Z</time>
      </trkpt>
      <trkpt lat="44.20806" lon="4.3831">
        <ele>268.212</ele>
        <time>2015-05-03T07:33:48.916Z</time>
      </trkpt>
      <trkpt lat="44.20816" lon="4.38313">
        <ele>267.372</ele>
        <time>2015-05-03T07:33:54.210Z</time>
      </trkpt>
      <trkpt lat="44.20827" lon="4.38316">
        <ele>267.235</ele>
        <time>2015-05-03T07:33:59.103Z</time>
      </trkpt>
      <trkpt lat="44.20837" lon="4.38316">
        <ele>268.217</ele>
        <time>2015-05-03T07:34:02.775Z</time>
      </trkpt>
      <trkpt lat="44.20846" lon="4.38316">
        <ele>269.778</ele>
        <time>2015-05-03T07:34:06.217Z</time>
      </trkpt>
      <trkpt lat="44.20857" lon="4.38315">
        <ele>271.082</ele>
        <time>2015-05-03T07:34:10.442Z</time>
      </trkpt>
      <trkpt lat="44.20868" lon="4.38312">
        <ele>271.897</ele>
        <time>2015-05-03T07:34:14.521Z</time>
      </trkpt>
      <trkpt lat="44.20877" lon="4.38308">
        <ele>272.385</ele>
        <time>2015-05-03T07:34:18.971Z</time>
      </trkpt>
      <trkpt lat="44.20887" lon="4.38303">
        <ele>272.716</ele>
        <time>2015-05-03T07:34:23.368Z</time>
      </trkpt>
      <trkpt lat="44.20896" lon="4.38298">
        <ele>272.815</ele>
        <time>2015-05-03T07:34:27.089Z</time>
      </trkpt>
      <trkpt lat="44.20905" lon="4.38292">
        <ele>272.176</ele>
        <time>2015-05-03T07:34:30.822Z</time>
      </trkpt>
      <trkpt lat="44.20914" lon="4.38285">
        <ele>270.569</ele>
        <time>2015-05-03T07:34:34.708Z</time>
      </trkpt>
      <trkpt lat="44.20922" lon="4.38277">
        <ele>268.706</ele>
        <time>2015-05-03T07:34:38.309Z</time>
      </trkpt>
      <trkpt lat="44.20931" lon="4.38271">
        <ele>267.917</ele>
        <time>2015-05-03T07:34:42.096Z</time>
      </trkpt>
      <trkpt lat="44.20941" lon="4.38268">
        <ele>268.576</ele>
        <time>2015-05-03T07:34:46.419Z</time>
      </trkpt>
      <trkpt lat="44.2095" lon="4.38262">
        <ele>269.685</ele>
        <time>2015-05-03T07:34:50.184Z</time>
      </trkpt>
      <trkpt lat="44.20958" lon="4.38257">
        <ele>270.334</ele>
        <time>2015-05-03T07:34:53.541Z</time>
      </trkpt>
      <trkpt lat="44.20967" lon="4.38249">
        <ele>271.083</ele>
        <time>2015-05-03T07:34:57.306Z</time>
      </trkpt>
      <trkpt lat="44.20975" lon="4.3824">
        <ele>272.633</ele>
        <time>2015-05-03T07:35:00.861Z</time>
      </trkpt>
      <trkpt lat="44.20981" lon="4.38231">
        <ele>274.667</ele>
        <time>2015-05-03T07:35:04.455Z</time>
      </trkpt>
      <trkpt lat="44.20989" lon="4.38221">
        <ele>276.457</ele>
        <time>2015-05-03T07:35:08.868Z</time>
      </trkpt>
      <trkpt lat="44.20998" lon="4.38214">
        <ele>277.647</ele>
        <time>2015-05-03T07:35:13.257Z</time>
      </trkpt>
      <trkpt lat="44.21007" lon="4.3821">
        <ele>278.185</ele>
        <time>2015-05-03T07:35:17.340Z</time>
      </trkpt>
      <trkpt lat="44.21016" lon="4.38206">
        <ele>278.579</ele>
        <time>2015-05-03T07:35:21.173Z</time>
      </trkpt>
      <trkpt lat="44.21026" lon="4.38201">
        <ele>279.211</ele>
        <time>2015-05-03T07:35:25.340Z</time>
      </trkpt>
      <trkpt lat="44.21035" lon="4.38197">
        <ele>279.842</ele>
        <time>2015-05-03T07:35:28.721Z</time>
      </trkpt>
      <trkpt lat="44.21046" lon="4.38197">
        <ele>280.318</ele>
        <time>2015-05-03T07:35:32.524Z</time>
      </trkpt>
      <trkpt lat="44.21056" lon="4.38192">
        <ele>280.829</ele>
        <time>2015-05-03T07:35:36.170Z</time>
      </trkpt>
      <trkpt lat="44.21066" lon="4.38187">
        <ele>281.1</ele>
        <time>2015-05-03T07:35:39.745Z</time>
      </trkpt>
      <trkpt lat="44.21075" lon="4.38179">
        <ele>280.87</ele>
        <time>2015-05-03T07:35:43.418Z</time>
      </trkpt>
      <trkpt lat="44.21082" lon="4.3817">
        <ele>280.666</ele>
        <time>2015-05-03T07:35:46.995Z</time>
      </trkpt>
      <trkpt lat="44.21086" lon="4.38157">
        <ele>281.384</ele>
        <time>2015-05-03T07:35:50.807Z</time>
      </trkpt>
      <trkpt lat="44.21086" lon="4.38157">
        <ele>282.987</ele>
        <time>2015-05-03T07:35:51.804Z</time>
      </trkpt>
      <trkpt lat="44.21086" lon="4.38157">
        <ele>284.123</ele>
        <time>2015-05-03T07:35:51.904Z</time>
      </trkpt>
      <trkpt lat="44.21096" lon="4.38136">
        <ele>283.967</ele>
        <time>2015-05-03T07:36:02.728Z</time>
      </trkpt>
      <trkpt lat="44.21105" lon="4.38129">
        <ele>284.087</ele>
        <time>2015-05-03T07:36:07.349Z</time>
      </trkpt>
      <trkpt lat="44.21113" lon="4.38123">
        <ele>285.994</ele>
        <time>2015-05-03T07:36:11.833Z</time>
      </trkpt>
      <trkpt lat="44.21122" lon="4.38123">
        <ele>288.671</ele>
        <time>2015-05-03T07:36:16.303Z</time>
      </trkpt>
      <trkpt lat="44.21132" lon="4.38115">
        <ele>290.507</ele>
        <time>2015-05-03T07:36:21.301Z</time>
      </trkpt>
      <trkpt lat="44.21139" lon="4.38106">
        <ele>291.28</ele>
        <time>2015-05-03T07:36:24.952Z</time>
      </trkpt>
      <trkpt lat="44.21148" lon="4.38097">
        <ele>291.388</ele>
        <time>2015-05-03T07:36:29.043Z</time>
      </trkpt>
      <trkpt lat="44.21157" lon="4.38092">
        <ele>291.478</ele>
        <time>2015-05-03T07:36:32.655Z</time>
      </trkpt>
      <trkpt lat="44.21166" lon="4.38084">
        <ele>291.867</ele>
        <time>2015-05-03T07:36:36.432Z</time>
      </trkpt>
      <trkpt lat="44.21176" lon="4.38075">
        <ele>292.597</ele>
        <time>2015-05-03T07:36:40.443Z</time>
      </trkpt>
      <trkpt lat="44.21185" lon="4.38067">
        <ele>293.628</ele>
        <time>2015-05-03T07:36:44.183Z</time>
      </trkpt>
      <trkpt lat="44.21194" lon="4.38058">
        <ele>294.683</ele>
        <time>2015-05-03T07:36:47.962Z</time>
      </trkpt>
      <trkpt lat="44.21202" lon="4.38051">
        <ele>295.55</ele>
        <time>2015-05-03T07:36:51.607Z</time>
      </trkpt>
      <trkpt lat="44.21213" lon="4.38046">
        <ele>296.249</ele>
        <time>2015-05-03T07:36:56.090Z</time>
      </trkpt>
      <trkpt lat="44.21224" lon="4.3804">
        <ele>296.4</ele>
        <time>2015-05-03T07:37:00.332Z</time>
      </trkpt>
      <trkpt lat="44.21232" lon="4.38036">
        <ele>295.865</ele>
        <time>2015-05-03T07:37:03.810Z</time>
      </trkpt>
      <trkpt lat="44.21242" lon="4.3803">
        <ele>295.178</ele>
        <time>2015-05-03T07:37:07.946Z</time>
      </trkpt>
      <trkpt lat="44.21252" lon="4.3802">
        <ele>294.666</ele>
        <time>2015-05-03T07:37:12.019Z</time>
      </trkpt>
      <trkpt lat="44.21259" lon="4.38011">
        <ele>294.204</ele>
        <time>2015-05-03T07:37:15.724Z</time>
      </trkpt>
      <trkpt lat="44.21266" lon="4.38002">
        <ele>293.856</ele>
        <time>2015-05-03T07:37:19.238Z</time>
      </trkpt>
      <trkpt lat="44.21276" lon="4.38">
        <ele>294.006</ele>
        <time>2015-05-03T07:37:23.320Z</time>
      </trkpt>
      <trkpt lat="44.21285" lon="4.37997">
        <ele>294.773</ele>
        <time>2015-05-03T07:37:28.207Z</time>
      </trkpt>
      <trkpt lat="44.21293" lon="4.3799">
        <ele>295.85</ele>
        <time>2015-05-03T07:37:33.407Z</time>
      </trkpt>
      <trkpt lat="44.213" lon="4.37978">
        <ele>296.891</ele>
        <time>2015-05-03T07:37:39.592Z</time>
      </trkpt>
      <trkpt lat="44.21306" lon="4.37968">
        <ele>297.971</ele>
        <time>2015-05-03T07:37:44.330Z</time>
      </trkpt>
      <trkpt lat="44.21314" lon="4.37959">
        <ele>299.118</ele>
        <time>2015-05-03T07:37:48.818Z</time>
      </trkpt>
      <trkpt lat="44.21323" lon="4.37952">
        <ele>299.823</ele>
        <time>2015-05-03T07:37:53.404Z</time>
      </trkpt>
      <trkpt lat="44.21329" lon="4.37942">
        <ele>299.247</ele>
        <time>2015-05-03T07:37:57.828Z</time>
      </trkpt>
      <trkpt lat="44.21337" lon="4.37932">
        <ele>297.569</ele>
        <time>2015-05-03T07:38:02.508Z</time>
      </trkpt>
      <trkpt lat="44.21344" lon="4.37922">
        <ele>296.28</ele>
        <time>2015-05-03T07:38:06.809Z</time>
      </trkpt>
      <trkpt lat="44.21344" lon="4.37922">
        <ele>296.315</ele>
        <time>2015-05-03T07:38:14.801Z</time>
      </trkpt>
      <trkpt lat="44.21344" lon="4.37922">
        <ele>296.771</ele>
        <time>2015-05-03T07:38:14.901Z</time>
      </trkpt>
      <trkpt lat="44.21356" lon="4.37929">
        <ele>296.29</ele>
        <time>2015-05-03T07:38:39.587Z</time>
      </trkpt>
      <trkpt lat="44.21366" lon="4.37933">
        <ele>296.571</ele>
        <time>2015-05-03T07:38:46.937Z</time>
      </trkpt>
      <trkpt lat="44.21375" lon="4.3794">
        <ele>298.304</ele>
        <time>2015-05-03T07:38:52.347Z</time>
      </trkpt>
      <trkpt lat="44.21385" lon="4.37936">
        <ele>302.671</ele>
        <time>2015-05-03T07:38:57.112Z</time>
      </trkpt>
      <trkpt lat="44.21392" lon="4.37929">
        <ele>303.595</ele>
        <time>2015-05-03T07:39:01.095Z</time>
      </trkpt>
      <trkpt lat="44.21399" lon="4.37921">
        <ele>303.569</ele>
        <time>2015-05-03T07:39:04.733Z</time>
      </trkpt>
      <trkpt lat="44.21407" lon="4.37912">
        <ele>302.595</ele>
        <time>2015-05-03T07:39:08.632Z</time>
      </trkpt>
      <trkpt lat="44.21416" lon="4.37907">
        <ele>299.949</ele>
        <time>2015-05-03T07:39:12.711Z</time>
      </trkpt>
      <trkpt lat="44.21424" lon="4.37897">
        <ele>300.382</ele>
        <time>2015-05-03T07:39:17.307Z</time>
      </trkpt>
      <trkpt lat="44.21433" lon="4.37887">
        <ele>301.399</ele>
        <time>2015-05-03T07:39:21.756Z</time>
      </trkpt>
      <trkpt lat="44.2144" lon="4.37879">
        <ele>302.071</ele>
        <time>2015-05-03T07:39:25.357Z</time>
      </trkpt>
      <trkpt lat="44.21448" lon="4.3787">
        <ele>302.472</ele>
        <time>2015-05-03T07:39:29.372Z</time>
      </trkpt>
      <trkpt lat="44.21455" lon="4.3786">
        <ele>302.854</ele>
        <time>2015-05-03T07:39:33.782Z</time>
      </trkpt>
      <trkpt lat="44.21462" lon="4.37848">
        <ele>303.211</ele>
        <time>2015-05-03T07:39:38.364Z</time>
      </trkpt>
      <trkpt lat="44.2147" lon="4.37837">
        <ele>303.723</ele>
        <time>2015-05-03T07:39:42.974Z</time>
      </trkpt>
      <trkpt lat="44.21475" lon="4.37825">
        <ele>304.735</ele>
        <time>2015-05-03T07:39:46.414Z</time>
      </trkpt>
      <trkpt lat="44.21476" lon="4.37811">
        <ele>305.982</ele>
        <time>2015-05-03T07:39:49.906Z</time>
      </trkpt>
      <trkpt lat="44.21474" lon="4.37796">
        <ele>306.746</ele>
        <time>2015-05-03T07:39:53.506Z</time>
      </trkpt>
      <trkpt lat="44.21473" lon="4.37783">
        <ele>306.799</ele>
        <time>2015-05-03T07:39:56.637Z</time>
      </trkpt>
      <trkpt lat="44.2148" lon="4.37771">
        <ele>306.543</ele>
        <time>2015-05-03T07:40:00.130Z</time>
      </trkpt>
      <trkpt lat="44.21481" lon="4.37756">
        <ele>306.354</ele>
        <time>2015-05-03T07:40:04.082Z</time>
      </trkpt>
      <trkpt lat="44.2149" lon="4.37749">
        <ele>305.916</ele>
        <time>2015-05-03T07:40:07.749Z</time>
      </trkpt>
      <trkpt lat="44.215" lon="4.37746">
        <ele>304.784</ele>
        <time>2015-05-03T07:40:11.447Z</time>
      </trkpt>
      <trkpt lat="44.21511" lon="4.3774">
        <ele>303.546</ele>
        <time>2015-05-03T07:40:15.191Z</time>
      </trkpt>
      <trkpt lat="44.21522" lon="4.37731">
        <ele>302.915</ele>
        <time>2015-05-03T07:40:18.824Z</time>
      </trkpt>
      <trkpt lat="44.21533" lon="4.37721">
        <ele>302.591</ele>
        <time>2015-05-03T07:40:22.000Z</time>
      </trkpt>
      <trkpt lat="44.21542" lon="4.37714">
        <ele>302.222</ele>
        <time>2015-05-03T07:40:24.196Z</time>
      </trkpt>
      <trkpt lat="44.21555" lon="4.37702">
        <ele>301.866</ele>
        <time>2015-05-03T07:40:27.352Z</time>
      </trkpt>
      <trkpt lat="44.21568" lon="4.37686">
        <ele>301.55</ele>
        <time>2015-05-03T07:40:30.507Z</time>
      </trkpt>
      <trkpt lat="44.21578" lon="4.3767">
        <ele>301.319</ele>
        <time>2015-05-03T07:40:33.443Z</time>
      </trkpt>
      <trkpt lat="44.21589" lon="4.37657">
        <ele>301.217</ele>
        <time>2015-05-03T07:40:36.166Z</time>
      </trkpt>
      <trkpt lat="44.21601" lon="4.37647">
        <ele>301.213</ele>
        <time>2015-05-03T07:40:38.853Z</time>
      </trkpt>
      <trkpt lat="44.21613" lon="4.37638">
        <ele>301.15</ele>
        <time>2015-05-03T07:40:41.549Z</time>
      </trkpt>
      <trkpt lat="44.21627" lon="4.37627">
        <ele>301.004</ele>
        <time>2015-05-03T07:40:44.876Z</time>
      </trkpt>
      <trkpt lat="44.21635" lon="4.37609">
        <ele>300.962</ele>
        <time>2015-05-03T07:40:47.962Z</time>
      </trkpt>
      <trkpt lat="44.21645" lon="4.37602">
        <ele>301.056</ele>
        <time>2015-05-03T07:40:50.374Z</time>
      </trkpt>
      <trkpt lat="44.21654" lon="4.37587">
        <ele>300.826</ele>
        <time>2015-05-03T07:40:53.302Z</time>
      </trkpt>
      <trkpt lat="44.21661" lon="4.37579">
        <ele>299.571</ele>
        <time>2015-05-03T07:40:55.342Z</time>
      </trkpt>
      <trkpt lat="44.21673" lon="4.37574">
        <ele>297.219</ele>
        <time>2015-05-03T07:40:57.993Z</time>
      </trkpt>
      <trkpt lat="44.21684" lon="4.37566">
        <ele>294.818</ele>
        <time>2015-05-03T07:41:00.856Z</time>
      </trkpt>
      <trkpt lat="44.21694" lon="4.37556">
        <ele>293.773</ele>
        <time>2015-05-03T07:41:03.605Z</time>
      </trkpt>
      <trkpt lat="44.21705" lon="4.3755">
        <ele>294.411</ele>
        <time>2015-05-03T07:41:06.321Z</time>
      </trkpt>
      <trkpt lat="44.21717" lon="4.37549">
        <ele>295.671</ele>
        <time>2015-05-03T07:41:09.117Z</time>
      </trkpt>
      <trkpt lat="44.21731" lon="4.37551">
        <ele>296.498</ele>
        <time>2015-05-03T07:41:12.376Z</time>
      </trkpt>
      <trkpt lat="44.21744" lon="4.37552">
        <ele>296.759</ele>
        <time>2015-05-03T07:41:15.298Z</time>
      </trkpt>
      <trkpt lat="44.21757" lon="4.37553">
        <ele>296.675</ele>
        <time>2015-05-03T07:41:18.151Z</time>
      </trkpt>
      <trkpt lat="44.21772" lon="4.37555">
        <ele>296.509</ele>
        <time>2015-05-03T07:41:21.217Z</time>
      </trkpt>
      <trkpt lat="44.21784" lon="4.37561">
        <ele>296.461</ele>
        <time>2015-05-03T07:41:23.994Z</time>
      </trkpt>
      <trkpt lat="44.21794" lon="4.37566">
        <ele>296.587</ele>
        <time>2015-05-03T07:41:26.018Z</time>
      </trkpt>
      <trkpt lat="44.21807" lon="4.37571">
        <ele>296.828</ele>
        <time>2015-05-03T07:41:28.841Z</time>
      </trkpt>
      <trkpt lat="44.2182" lon="4.37575">
        <ele>297.055</ele>
        <time>2015-05-03T07:41:31.562Z</time>
      </trkpt>
      <trkpt lat="44.21832" lon="4.37578">
        <ele>297.196</ele>
        <time>2015-05-03T07:41:34.142Z</time>
      </trkpt>
      <trkpt lat="44.21842" lon="4.3758">
        <ele>297.263</ele>
        <time>2015-05-03T07:41:36.223Z</time>
      </trkpt>
      <trkpt lat="44.21855" lon="4.37581">
        <ele>297.124</ele>
        <time>2015-05-03T07:41:39.040Z</time>
      </trkpt>
      <trkpt lat="44.21869" lon="4.37577">
        <ele>296.575</ele>
        <time>2015-05-03T07:41:41.916Z</time>
      </trkpt>
      <trkpt lat="44.21877" lon="4.37573">
        <ele>295.769</ele>
        <time>2015-05-03T07:41:43.880Z</time>
      </trkpt>
      <trkpt lat="44.21891" lon="4.37566">
        <ele>295.203</ele>
        <time>2015-05-03T07:41:46.828Z</time>
      </trkpt>
      <trkpt lat="44.21903" lon="4.37559">
        <ele>295.161</ele>
        <time>2015-05-03T07:41:49.502Z</time>
      </trkpt>
      <trkpt lat="44.21912" lon="4.37545">
        <ele>295.441</ele>
        <time>2015-05-03T07:41:52.462Z</time>
      </trkpt>
      <trkpt lat="44.2192" lon="4.37532">
        <ele>295.678</ele>
        <time>2015-05-03T07:41:55.113Z</time>
      </trkpt>
      <trkpt lat="44.21927" lon="4.37523">
        <ele>295.711</ele>
        <time>2015-05-03T07:41:57.081Z</time>
      </trkpt>
      <trkpt lat="44.21939" lon="4.37516">
        <ele>295.531</ele>
        <time>2015-05-03T07:41:59.864Z</time>
      </trkpt>
      <trkpt lat="44.21953" lon="4.37512">
        <ele>295.288</ele>
        <time>2015-05-03T07:42:02.907Z</time>
      </trkpt>
      <trkpt lat="44.21964" lon="4.37511">
        <ele>295.149</ele>
        <time>2015-05-03T07:42:05.469Z</time>
      </trkpt>
      <trkpt lat="44.21976" lon="4.37514">
        <ele>295.14</ele>
        <time>2015-05-03T07:42:08.315Z</time>
      </trkpt>
      <trkpt lat="44.21989" lon="4.37515">
        <ele>295.44</ele>
        <time>2015-05-03T07:42:11.169Z</time>
      </trkpt>
      <trkpt lat="44.21997" lon="4.37526">
        <ele>296.231</ele>
        <time>2015-05-03T07:42:13.913Z</time>
      </trkpt>
      <trkpt lat="44.21993" lon="4.37538">
        <ele>297.362</ele>
        <time>2015-05-03T07:42:16.438Z</time>
      </trkpt>
      <trkpt lat="44.21986" lon="4.37553">
        <ele>298.868</ele>
        <time>2015-05-03T07:42:20.866Z</time>
      </trkpt>
      <trkpt lat="44.21979" lon="4.37569">
        <ele>300.591</ele>
        <time>2015-05-03T07:42:25.138Z</time>
      </trkpt>
      <trkpt lat="44.21972" lon="4.37584">
        <ele>302.027</ele>
        <time>2015-05-03T07:42:28.513Z</time>
      </trkpt>
      <trkpt lat="44.21965" lon="4.376">
        <ele>302.731</ele>
        <time>2015-05-03T07:42:31.679Z</time>
      </trkpt>
      <trkpt lat="44.21959" lon="4.37615">
        <ele>302.23</ele>
        <time>2015-05-03T07:42:34.700Z</time>
      </trkpt>
      <trkpt lat="44.21953" lon="4.37632">
        <ele>300.717</ele>
        <time>2015-05-03T07:42:37.976Z</time>
      </trkpt>
      <trkpt lat="44.21949" lon="4.37651">
        <ele>299.311</ele>
        <time>2015-05-03T07:42:41.481Z</time>
      </trkpt>
      <trkpt lat="44.21958" lon="4.37662">
        <ele>298.59</ele>
        <time>2015-05-03T07:42:45.075Z</time>
      </trkpt>
      <trkpt lat="44.2197" lon="4.37657">
        <ele>298.262</ele>
        <time>2015-05-03T07:42:49.689Z</time>
      </trkpt>
      <trkpt lat="44.21983" lon="4.37652">
        <ele>298.003</ele>
        <time>2015-05-03T07:42:53.350Z</time>
      </trkpt>
      <trkpt lat="44.21994" lon="4.37649">
        <ele>297.671</ele>
        <time>2015-05-03T07:42:55.913Z</time>
      </trkpt>
      <trkpt lat="44.22006" lon="4.37649">
        <ele>297.274</ele>
        <time>2015-05-03T07:42:58.713Z</time>
      </trkpt>
      <trkpt lat="44.2202" lon="4.37647">
        <ele>297.15</ele>
        <time>2015-05-03T07:43:01.913Z</time>
      </trkpt>
      <trkpt lat="44.22038" lon="4.37647">
        <ele>297.567</ele>
        <time>2015-05-03T07:43:05.735Z</time>
      </trkpt>
      <trkpt lat="44.22051" lon="4.37655">
        <ele>298.187</ele>
        <time>2015-05-03T07:43:08.930Z</time>
      </trkpt>
      <trkpt lat="44.22058" lon="4.37668">
        <ele>298.83</ele>
        <time>2015-05-03T07:43:11.632Z</time>
      </trkpt>
      <trkpt lat="44.22065" lon="4.37683">
        <ele>300.072</ele>
        <time>2015-05-03T07:43:14.649Z</time>
      </trkpt>
      <trkpt lat="44.22071" lon="4.37693">
        <ele>301.969</ele>
        <time>2015-05-03T07:43:16.534Z</time>
      </trkpt>
      <trkpt lat="44.22081" lon="4.37712">
        <ele>303.566</ele>
        <time>2015-05-03T07:43:20.111Z</time>
      </trkpt>
      <trkpt lat="44.22091" lon="4.37729">
        <ele>303.675</ele>
        <time>2015-05-03T07:43:23.123Z</time>
      </trkpt>
      <trkpt lat="44.22098" lon="4.37744">
        <ele>302.089</ele>
        <time>2015-05-03T07:43:25.933Z</time>
      </trkpt>
      <trkpt lat="44.22109" lon="4.37756">
        <ele>300.038</ele>
        <time>2015-05-03T07:43:28.822Z</time>
      </trkpt>
      <trkpt lat="44.22121" lon="4.37764">
        <ele>298.816</ele>
        <time>2015-05-03T07:43:31.745Z</time>
      </trkpt>
      <trkpt lat="44.22133" lon="4.37773">
        <ele>298.549</ele>
        <time>2015-05-03T07:43:34.690Z</time>
      </trkpt>
      <trkpt lat="44.22144" lon="4.37783">
        <ele>298.623</ele>
        <time>2015-05-03T07:43:37.598Z</time>
      </trkpt>
      <trkpt lat="44.22153" lon="4.37793">
        <ele>298.45</ele>
        <time>2015-05-03T07:43:40.265Z</time>
      </trkpt>
      <trkpt lat="44.22163" lon="4.37799">
        <ele>298.088</ele>
        <time>2015-05-03T07:43:42.924Z</time>
      </trkpt>
      <trkpt lat="44.22172" lon="4.37802">
        <ele>297.932</ele>
        <time>2015-05-03T07:43:45.310Z</time>
      </trkpt>
      <trkpt lat="44.22184" lon="4.37804">
        <ele>298.185</ele>
        <time>2015-05-03T07:43:48.682Z</time>
      </trkpt>
      <trkpt lat="44.22192" lon="4.37793">
        <ele>298.624</ele>
        <time>2015-05-03T07:43:51.794Z</time>
      </trkpt>
      <trkpt lat="44.22203" lon="4.37785">
        <ele>298.799</ele>
        <time>2015-05-03T07:43:54.916Z</time>
      </trkpt>
      <trkpt lat="44.22217" lon="4.37786">
        <ele>298.484</ele>
        <time>2015-05-03T07:43:58.354Z</time>
      </trkpt>
      <trkpt lat="44.22228" lon="4.37785">
        <ele>297.71</ele>
        <time>2015-05-03T07:44:01.091Z</time>
      </trkpt>
      <trkpt lat="44.2224" lon="4.37788">
        <ele>296.923</ele>
        <time>2015-05-03T07:44:03.992Z</time>
      </trkpt>
      <trkpt lat="44.22254" lon="4.37788">
        <ele>296.679</ele>
        <time>2015-05-03T07:44:07.013Z</time>
      </trkpt>
      <trkpt lat="44.22263" lon="4.37787">
        <ele>297.064</ele>
        <time>2015-05-03T07:44:09.081Z</time>
      </trkpt>
      <trkpt lat="44.22273" lon="4.37787">
        <ele>297.973</ele>
        <time>2015-05-03T07:44:11.017Z</time>
      </trkpt>
      <trkpt lat="44.22287" lon="4.37788">
        <ele>299.088</ele>
        <time>2015-05-03T07:44:14.019Z</time>
      </trkpt>
      <trkpt lat="44.22301" lon="4.3779">
        <ele>299.836</ele>
        <time>2015-05-03T07:44:16.912Z</time>
      </trkpt>
      <trkpt lat="44.22311" lon="4.37792">
        <ele>299.844</ele>
        <time>2015-05-03T07:44:18.905Z</time>
      </trkpt>
      <trkpt lat="44.22326" lon="4.378">
        <ele>299.283</ele>
        <time>2015-05-03T07:44:22.094Z</time>
      </trkpt>
      <trkpt lat="44.22335" lon="4.37804">
        <ele>298.682</ele>
        <time>2015-05-03T07:44:24.138Z</time>
      </trkpt>
      <trkpt lat="44.22345" lon="4.37813">
        <ele>298.393</ele>
        <time>2015-05-03T07:44:26.560Z</time>
      </trkpt>
      <trkpt lat="44.22354" lon="4.37818">
        <ele>298.358</ele>
        <time>2015-05-03T07:44:28.556Z</time>
      </trkpt>
      <trkpt lat="44.22364" lon="4.37824">
        <ele>298.341</ele>
        <time>2015-05-03T07:44:30.699Z</time>
      </trkpt>
      <trkpt lat="44.22373" lon="4.37831">
        <ele>298.082</ele>
        <time>2015-05-03T07:44:32.792Z</time>
      </trkpt>
      <trkpt lat="44.22383" lon="4.37834">
        <ele>297.555</ele>
        <time>2015-05-03T07:44:34.735Z</time>
      </trkpt>
      <trkpt lat="44.22398" lon="4.37837">
        <ele>296.94</ele>
        <time>2015-05-03T07:44:37.841Z</time>
      </trkpt>
      <trkpt lat="44.22414" lon="4.37839">
        <ele>296.27</ele>
        <time>2015-05-03T07:44:40.912Z</time>
      </trkpt>
      <trkpt lat="44.22426" lon="4.37844">
        <ele>295.229</ele>
        <time>2015-05-03T07:44:43.686Z</time>
      </trkpt>
      <trkpt lat="44.22433" lon="4.37854">
        <ele>293.818</ele>
        <time>2015-05-03T07:44:45.980Z</time>
      </trkpt>
      <trkpt lat="44.22443" lon="4.37866">
        <ele>292.689</ele>
        <time>2015-05-03T07:44:48.946Z</time>
      </trkpt>
      <trkpt lat="44.22452" lon="4.37882">
        <ele>292.422</ele>
        <time>2015-05-03T07:44:52.234Z</time>
      </trkpt>
      <trkpt lat="44.22457" lon="4.37893">
        <ele>292.946</ele>
        <time>2015-05-03T07:44:54.431Z</time>
      </trkpt>
      <trkpt lat="44.22459" lon="4.37909">
        <ele>293.808</ele>
        <time>2015-05-03T07:44:57.141Z</time>
      </trkpt>
      <trkpt lat="44.2246" lon="4.37923">
        <ele>294.623</ele>
        <time>2015-05-03T07:44:59.438Z</time>
      </trkpt>
      <trkpt lat="44.22461" lon="4.37943">
        <ele>295.228</ele>
        <time>2015-05-03T07:45:02.699Z</time>
      </trkpt>
      <trkpt lat="44.22464" lon="4.37957">
        <ele>295.567</ele>
        <time>2015-05-03T07:45:05.199Z</time>
      </trkpt>
      <trkpt lat="44.22468" lon="4.37969">
        <ele>295.976</ele>
        <time>2015-05-03T07:45:07.558Z</time>
      </trkpt>
      <trkpt lat="44.22475" lon="4.37984">
        <ele>296.724</ele>
        <time>2015-05-03T07:45:10.858Z</time>
      </trkpt>
      <trkpt lat="44.2248" lon="4.37999">
        <ele>297.649</ele>
        <time>2015-05-03T07:45:13.754Z</time>
      </trkpt>
      <trkpt lat="44.22488" lon="4.38014">
        <ele>298.287</ele>
        <time>2015-05-03T07:45:17.290Z</time>
      </trkpt>
      <trkpt lat="44.22489" lon="4.38027">
        <ele>298.159</ele>
        <time>2015-05-03T07:45:20.008Z</time>
      </trkpt>
      <trkpt lat="44.22491" lon="4.38041">
        <ele>297.408</ele>
        <time>2015-05-03T07:45:23.150Z</time>
      </trkpt>
      <trkpt lat="44.22491" lon="4.38056">
        <ele>296.746</ele>
        <time>2015-05-03T07:45:26.667Z</time>
      </trkpt>
      <trkpt lat="44.2249" lon="4.38069">
        <ele>296.462</ele>
        <time>2015-05-03T07:45:29.734Z</time>
      </trkpt>
      <trkpt lat="44.22487" lon="4.38085">
        <ele>296.354</ele>
        <time>2015-05-03T07:45:33.434Z</time>
      </trkpt>
      <trkpt lat="44.22481" lon="4.38097">
        <ele>296.151</ele>
        <time>2015-05-03T07:45:37.027Z</time>
      </trkpt>
      <trkpt lat="44.22475" lon="4.38109">
        <ele>295.852</ele>
        <time>2015-05-03T07:45:40.575Z</time>
      </trkpt>
      <trkpt lat="44.22469" lon="4.38122">
        <ele>295.867</ele>
        <time>2015-05-03T07:45:44.444Z</time>
      </trkpt>
      <trkpt lat="44.22464" lon="4.38137">
        <ele>296.799</ele>
        <time>2015-05-03T07:45:48.811Z</time>
      </trkpt>
      <trkpt lat="44.22458" lon="4.38149">
        <ele>298.532</ele>
        <time>2015-05-03T07:45:52.864Z</time>
      </trkpt>
      <trkpt lat="44.2245" lon="4.38161">
        <ele>300.291</ele>
        <time>2015-05-03T07:45:57.122Z</time>
      </trkpt>
      <trkpt lat="44.22446" lon="4.38173">
        <ele>301.358</ele>
        <time>2015-05-03T07:46:00.430Z</time>
      </trkpt>
      <trkpt lat="44.22444" lon="4.38187">
        <ele>301.381</ele>
        <time>2015-05-03T07:46:03.693Z</time>
      </trkpt>
      <trkpt lat="44.22447" lon="4.38201">
        <ele>300.705</ele>
        <time>2015-05-03T07:46:07.153Z</time>
      </trkpt>
      <trkpt lat="44.22453" lon="4.38212">
        <ele>300.379</ele>
        <time>2015-05-03T07:46:10.732Z</time>
      </trkpt>
      <trkpt lat="44.22462" lon="4.38219">
        <ele>300.976</ele>
        <time>2015-05-03T07:46:14.529Z</time>
      </trkpt>
      <trkpt lat="44.22468" lon="4.3823">
        <ele>302.576</ele>
        <time>2015-05-03T07:46:18.256Z</time>
      </trkpt>
      <trkpt lat="44.22464" lon="4.38244">
        <ele>304.838</ele>
        <time>2015-05-03T07:46:22.301Z</time>
      </trkpt>
      <trkpt lat="44.22463" lon="4.38259">
        <ele>306.813</ele>
        <time>2015-05-03T07:46:26.771Z</time>
      </trkpt>
      <trkpt lat="44.22468" lon="4.38271">
        <ele>307.728</ele>
        <time>2015-05-03T07:46:31.263Z</time>
      </trkpt>
      <trkpt lat="44.22473" lon="4.38283">
        <ele>307.743</ele>
        <time>2015-05-03T07:46:35.272Z</time>
      </trkpt>
      <trkpt lat="44.22477" lon="4.38294">
        <ele>307.309</ele>
        <time>2015-05-03T07:46:38.859Z</time>
      </trkpt>
      <trkpt lat="44.22481" lon="4.38311">
        <ele>306.837</ele>
        <time>2015-05-03T07:46:43.450Z</time>
      </trkpt>
      <trkpt lat="44.22484" lon="4.38326">
        <ele>306.195</ele>
        <time>2015-05-03T07:46:47.494Z</time>
      </trkpt>
      <trkpt lat="44.2249" lon="4.38344">
        <ele>305.166</ele>
        <time>2015-05-03T07:46:51.809Z</time>
      </trkpt>
      <trkpt lat="44.225" lon="4.38353">
        <ele>304.115</ele>
        <time>2015-05-03T07:46:55.181Z</time>
      </trkpt>
      <trkpt lat="44.22511" lon="4.38359">
        <ele>303.447</ele>
        <time>2015-05-03T07:46:58.764Z</time>
      </trkpt>
      <trkpt lat="44.22521" lon="4.38363">
        <ele>303.161</ele>
        <time>2015-05-03T07:47:02.299Z</time>
      </trkpt>
      <trkpt lat="44.2253" lon="4.38369">
        <ele>303.416</ele>
        <time>2015-05-03T07:47:05.466Z</time>
      </trkpt>
      <trkpt lat="44.2254" lon="4.38376">
        <ele>304.212</ele>
        <time>2015-05-03T07:47:08.764Z</time>
      </trkpt>
      <trkpt lat="44.22549" lon="4.38383">
        <ele>305.094</ele>
        <time>2015-05-03T07:47:11.850Z</time>
      </trkpt>
      <trkpt lat="44.22558" lon="4.38389">
        <ele>305.679</ele>
        <time>2015-05-03T07:47:14.809Z</time>
      </trkpt>
      <trkpt lat="44.22558" lon="4.38389">
        <ele>305.946</ele>
        <time>2015-05-03T07:47:15.807Z</time>
      </trkpt>
      <trkpt lat="44.22558" lon="4.38389">
        <ele>305.929</ele>
        <time>2015-05-03T07:47:15.907Z</time>
      </trkpt>
      <trkpt lat="44.22571" lon="4.38396">
        <ele>305.767</ele>
        <time>2015-05-03T07:47:21.972Z</time>
      </trkpt>
      <trkpt lat="44.22582" lon="4.38396">
        <ele>305.629</ele>
        <time>2015-05-03T07:47:25.001Z</time>
      </trkpt>
      <trkpt lat="44.22593" lon="4.38393">
        <ele>305.568</ele>
        <time>2015-05-03T07:47:28.387Z</time>
      </trkpt>
      <trkpt lat="44.22602" lon="4.38387">
        <ele>305.547</ele>
        <time>2015-05-03T07:47:31.363Z</time>
      </trkpt>
      <trkpt lat="44.22609" lon="4.38379">
        <ele>305.517</ele>
        <time>2015-05-03T07:47:34.153Z</time>
      </trkpt>
      <trkpt lat="44.22618" lon="4.38372">
        <ele>305.467</ele>
        <time>2015-05-03T07:47:36.842Z</time>
      </trkpt>
      <trkpt lat="44.22627" lon="4.38366">
        <ele>305.42</ele>
        <time>2015-05-03T07:47:39.809Z</time>
      </trkpt>
      <trkpt lat="44.22627" lon="4.38366">
        <ele>305.381</ele>
        <time>2015-05-03T07:47:40.810Z</time>
      </trkpt>
      <trkpt lat="44.22627" lon="4.38366">
        <ele>305.309</ele>
        <time>2015-05-03T07:47:40.910Z</time>
      </trkpt>
      <trkpt lat="44.22645" lon="4.38356">
        <ele>305.193</ele>
        <time>2015-05-03T07:47:46.915Z</time>
      </trkpt>
      <trkpt lat="44.22657" lon="4.3835">
        <ele>305.399</ele>
        <time>2015-05-03T07:47:49.565Z</time>
      </trkpt>
      <trkpt lat="44.22666" lon="4.38345">
        <ele>306.155</ele>
        <time>2015-05-03T07:47:51.406Z</time>
      </trkpt>
      <trkpt lat="44.22679" lon="4.38341">
        <ele>307.03</ele>
        <time>2015-05-03T07:47:53.791Z</time>
      </trkpt>
      <trkpt lat="44.2269" lon="4.38342">
        <ele>307.522</ele>
        <time>2015-05-03T07:47:55.811Z</time>
      </trkpt>
      <trkpt lat="44.2269" lon="4.38342">
        <ele>307.577</ele>
        <time>2015-05-03T07:47:57.811Z</time>
      </trkpt>
      <trkpt lat="44.2269" lon="4.38342">
        <ele>307.391</ele>
        <time>2015-05-03T07:47:57.911Z</time>
      </trkpt>
      <trkpt lat="44.22711" lon="4.38346">
        <ele>307.219</ele>
        <time>2015-05-03T07:48:06.177Z</time>
      </trkpt>
      <trkpt lat="44.22721" lon="4.38346">
        <ele>306.913</ele>
        <time>2015-05-03T07:48:09.073Z</time>
      </trkpt>
      <trkpt lat="44.22732" lon="4.38344">
        <ele>306.305</ele>
        <time>2015-05-03T07:48:11.856Z</time>
      </trkpt>
      <trkpt lat="44.22743" lon="4.38342">
        <ele>305.744</ele>
        <time>2015-05-03T07:48:15.011Z</time>
      </trkpt>
      <trkpt lat="44.22756" lon="4.38338">
        <ele>305.569</ele>
        <time>2015-05-03T07:48:18.252Z</time>
      </trkpt>
      <trkpt lat="44.22768" lon="4.38336">
        <ele>305.653</ele>
        <time>2015-05-03T07:48:21.240Z</time>
      </trkpt>
      <trkpt lat="44.22781" lon="4.38334">
        <ele>305.73</ele>
        <time>2015-05-03T07:48:24.194Z</time>
      </trkpt>
      <trkpt lat="44.22792" lon="4.38335">
        <ele>305.558</ele>
        <time>2015-05-03T07:48:26.374Z</time>
      </trkpt>
      <trkpt lat="44.22803" lon="4.38336">
        <ele>305.138</ele>
        <time>2015-05-03T07:48:28.556Z</time>
      </trkpt>
      <trkpt lat="44.2282" lon="4.38337">
        <ele>304.725</ele>
        <time>2015-05-03T07:48:31.652Z</time>
      </trkpt>
      <trkpt lat="44.22831" lon="4.38338">
        <ele>304.381</ele>
        <time>2015-05-03T07:48:33.564Z</time>
      </trkpt>
      <trkpt lat="44.22843" lon="4.38339">
        <ele>304</ele>
        <time>2015-05-03T07:48:35.300Z</time>
      </trkpt>
      <trkpt lat="44.22855" lon="4.38342">
        <ele>303.474</ele>
        <time>2015-05-03T07:48:37.081Z</time>
      </trkpt>
      <trkpt lat="44.22869" lon="4.38345">
        <ele>302.771</ele>
        <time>2015-05-03T07:48:38.943Z</time>
      </trkpt>
      <trkpt lat="44.22882" lon="4.38348">
        <ele>302.137</ele>
        <time>2015-05-03T07:48:40.778Z</time>
      </trkpt>
      <trkpt lat="44.22902" lon="4.38353">
        <ele>301.849</ele>
        <time>2015-05-03T07:48:43.625Z</time>
      </trkpt>
      <trkpt lat="44.22914" lon="4.38356">
        <ele>301.977</ele>
        <time>2015-05-03T07:48:45.351Z</time>
      </trkpt>
      <trkpt lat="44.22933" lon="4.38362">
        <ele>302.756</ele>
        <time>2015-05-03T07:48:48.090Z</time>
      </trkpt>
      <trkpt lat="44.22944" lon="4.38368">
        <ele>304.057</ele>
        <time>2015-05-03T07:48:49.943Z</time>
      </trkpt>
      <trkpt lat="44.22955" lon="4.38374">
        <ele>305.138</ele>
        <time>2015-05-03T07:48:51.712Z</time>
      </trkpt>
      <trkpt lat="44.22971" lon="4.38387">
        <ele>305.678</ele>
        <time>2015-05-03T07:48:54.631Z</time>
      </trkpt>
      <trkpt lat="44.22985" lon="4.38407">
        <ele>305.959</ele>
        <time>2015-05-03T07:48:57.833Z</time>
      </trkpt>
      <trkpt lat="44.2299" lon="4.38421">
        <ele>305.886</ele>
        <time>2015-05-03T07:48:59.669Z</time>
      </trkpt>
      <trkpt lat="44.22997" lon="4.38442">
        <ele>305.047</ele>
        <time>2015-05-03T07:49:02.510Z</time>
      </trkpt>
      <trkpt lat="44.23004" lon="4.38465">
        <ele>303.895</ele>
        <time>2015-05-03T07:49:05.652Z</time>
      </trkpt>
      <trkpt lat="44.23008" lon="4.38478">
        <ele>303.375</ele>
        <time>2015-05-03T07:49:07.519Z</time>
      </trkpt>
      <trkpt lat="44.23014" lon="4.38494">
        <ele>303.523</ele>
        <time>2015-05-03T07:49:10.007Z</time>
      </trkpt>
      <trkpt lat="44.2302" lon="4.38508">
        <ele>303.502</ele>
        <time>2015-05-03T07:49:12.458Z</time>
      </trkpt>
      <trkpt lat="44.2303" lon="4.38522">
        <ele>302.924</ele>
        <time>2015-05-03T07:49:15.299Z</time>
      </trkpt>
      <trkpt lat="44.23039" lon="4.38535">
        <ele>302.697</ele>
        <time>2015-05-03T07:49:18.117Z</time>
      </trkpt>
      <trkpt lat="44.23046" lon="4.38549">
        <ele>303.774</ele>
        <time>2015-05-03T07:49:20.706Z</time>
      </trkpt>
      <trkpt lat="44.23052" lon="4.38559">
        <ele>305.323</ele>
        <time>2015-05-03T07:49:22.671Z</time>
      </trkpt>
      <trkpt lat="44.23061" lon="4.38573">
        <ele>306.29</ele>
        <time>2015-05-03T07:49:25.389Z</time>
      </trkpt>
      <trkpt lat="44.23071" lon="4.38591">
        <ele>306.81</ele>
        <time>2015-05-03T07:49:28.537Z</time>
      </trkpt>
      <trkpt lat="44.2308" lon="4.38601">
        <ele>307.657</ele>
        <time>2015-05-03T07:49:30.366Z</time>
      </trkpt>
      <trkpt lat="44.23095" lon="4.38618">
        <ele>309.115</ele>
        <time>2015-05-03T07:49:33.440Z</time>
      </trkpt>
      <trkpt lat="44.23111" lon="4.38632">
        <ele>310.043</ele>
        <time>2015-05-03T07:49:36.354Z</time>
      </trkpt>
      <trkpt lat="44.23125" lon="4.38641">
        <ele>309.011</ele>
        <time>2015-05-03T07:49:38.748Z</time>
      </trkpt>
      <trkpt lat="44.23141" lon="4.38648">
        <ele>306.629</ele>
        <time>2015-05-03T07:49:41.468Z</time>
      </trkpt>
      <trkpt lat="44.23151" lon="4.3865">
        <ele>304.629</ele>
        <time>2015-05-03T07:49:43.089Z</time>
      </trkpt>
      <trkpt lat="44.23168" lon="4.38653">
        <ele>303.792</ele>
        <time>2015-05-03T07:49:46.176Z</time>
      </trkpt>
      <trkpt lat="44.23179" lon="4.38656">
        <ele>303.773</ele>
        <time>2015-05-03T07:49:48.420Z</time>
      </trkpt>
      <trkpt lat="44.23193" lon="4.38657">
        <ele>304.129</ele>
        <time>2015-05-03T07:49:51.063Z</time>
      </trkpt>
      <trkpt lat="44.23205" lon="4.38657">
        <ele>304.485</ele>
        <time>2015-05-03T07:49:53.646Z</time>
      </trkpt>
      <trkpt lat="44.23219" lon="4.38656">
        <ele>304.937</ele>
        <time>2015-05-03T07:49:56.441Z</time>
      </trkpt>
      <trkpt lat="44.23228" lon="4.38645">
        <ele>305.755</ele>
        <time>2015-05-03T07:49:58.992Z</time>
      </trkpt>
      <trkpt lat="44.23235" lon="4.3863">
        <ele>306.603</ele>
        <time>2015-05-03T07:50:01.998Z</time>
      </trkpt>
      <trkpt lat="44.23242" lon="4.38617">
        <ele>306.596</ele>
        <time>2015-05-03T07:50:04.750Z</time>
      </trkpt>
      <trkpt lat="44.23252" lon="4.38603">
        <ele>305.589</ele>
        <time>2015-05-03T07:50:08.130Z</time>
      </trkpt>
      <trkpt lat="44.23263" lon="4.38597">
        <ele>304.615</ele>
        <time>2015-05-03T07:50:10.948Z</time>
      </trkpt>
      <trkpt lat="44.23275" lon="4.38588">
        <ele>304.824</ele>
        <time>2015-05-03T07:50:14.386Z</time>
      </trkpt>
      <trkpt lat="44.23286" lon="4.38585">
        <ele>306.072</ele>
        <time>2015-05-03T07:50:16.840Z</time>
      </trkpt>
      <trkpt lat="44.23298" lon="4.38577">
        <ele>307.545</ele>
        <time>2015-05-03T07:50:20.306Z</time>
      </trkpt>
      <trkpt lat="44.23314" lon="4.38566">
        <ele>308.705</ele>
        <time>2015-05-03T07:50:25.040Z</time>
      </trkpt>
      <trkpt lat="44.23331" lon="4.38564">
        <ele>309.384</ele>
        <time>2015-05-03T07:50:28.575Z</time>
      </trkpt>
      <trkpt lat="44.23343" lon="4.38555">
        <ele>309.534</ele>
        <time>2015-05-03T07:50:31.812Z</time>
      </trkpt>
      <trkpt lat="44.23343" lon="4.38555">
        <ele>309.335</ele>
        <time>2015-05-03T07:50:36.808Z</time>
      </trkpt>
      <trkpt lat="44.23343" lon="4.38555">
        <ele>309.081</ele>
        <time>2015-05-03T07:50:36.908Z</time>
      </trkpt>
      <trkpt lat="44.23359" lon="4.38541">
        <ele>308.952</ele>
        <time>2015-05-03T07:50:46.762Z</time>
      </trkpt>
      <trkpt lat="44.23368" lon="4.38537">
        <ele>308.454</ele>
        <time>2015-05-03T07:50:49.692Z</time>
      </trkpt>
      <trkpt lat="44.23379" lon="4.38538">
        <ele>306.957</ele>
        <time>2015-05-03T07:50:52.765Z</time>
      </trkpt>
      <trkpt lat="44.2339" lon="4.38538">
        <ele>305.262</ele>
        <time>2015-05-03T07:50:55.603Z</time>
      </trkpt>
      <trkpt lat="44.23399" lon="4.38539">
        <ele>304.778</ele>
        <time>2015-05-03T07:50:57.880Z</time>
      </trkpt>
      <trkpt lat="44.23413" lon="4.38541">
        <ele>305.411</ele>
        <time>2015-05-03T07:51:01.138Z</time>
      </trkpt>
      <trkpt lat="44.23427" lon="4.3854">
        <ele>305.883</ele>
        <time>2015-05-03T07:51:04.538Z</time>
      </trkpt>
      <trkpt lat="44.23438" lon="4.3854">
        <ele>305.549</ele>
        <time>2015-05-03T07:51:07.544Z</time>
      </trkpt>
      <trkpt lat="44.23448" lon="4.38545">
        <ele>304.879</ele>
        <time>2015-05-03T07:51:10.199Z</time>
      </trkpt>
      <trkpt lat="44.23457" lon="4.38544">
        <ele>304.523</ele>
        <time>2015-05-03T07:51:12.733Z</time>
      </trkpt>
      <trkpt lat="44.23469" lon="4.38542">
        <ele>304.79</ele>
        <time>2015-05-03T07:51:16.159Z</time>
      </trkpt>
      <trkpt lat="44.23481" lon="4.38541">
        <ele>305.904</ele>
        <time>2015-05-03T07:51:19.845Z</time>
      </trkpt>
      <trkpt lat="44.23486" lon="4.38529">
        <ele>307.493</ele>
        <time>2015-05-03T07:51:22.577Z</time>
      </trkpt>
      <trkpt lat="44.23489" lon="4.38514">
        <ele>308.552</ele>
        <time>2015-05-03T07:51:25.539Z</time>
      </trkpt>
      <trkpt lat="44.23491" lon="4.38496">
        <ele>308.365</ele>
        <time>2015-05-03T07:51:29.032Z</time>
      </trkpt>
      <trkpt lat="44.23495" lon="4.3848">
        <ele>307.104</ele>
        <time>2015-05-03T07:51:33.223Z</time>
      </trkpt>
      <trkpt lat="44.23489" lon="4.3847">
        <ele>305.604</ele>
        <time>2015-05-03T07:51:37.191Z</time>
      </trkpt>
      <trkpt lat="44.23479" lon="4.38465">
        <ele>304.736</ele>
        <time>2015-05-03T07:51:41.571Z</time>
      </trkpt>
      <trkpt lat="44.23481" lon="4.38453">
        <ele>304.665</ele>
        <time>2015-05-03T07:51:44.800Z</time>
      </trkpt>
      <trkpt lat="44.23474" lon="4.38439">
        <ele>304.093</ele>
        <time>2015-05-03T07:51:48.167Z</time>
      </trkpt>
      <trkpt lat="44.23465" lon="4.38433">
        <ele>301.589</ele>
        <time>2015-05-03T07:51:50.421Z</time>
      </trkpt>
      <trkpt lat="44.2345" lon="4.38426">
        <ele>298.055</ele>
        <time>2015-05-03T07:51:53.739Z</time>
      </trkpt>
      <trkpt lat="44.23434" lon="4.38418">
        <ele>295.917</ele>
        <time>2015-05-03T07:51:58.849Z</time>
      </trkpt>
      <trkpt lat="44.23426" lon="4.38413">
        <ele>296.637</ele>
        <time>2015-05-03T07:52:02.657Z</time>
      </trkpt>
      <trkpt lat="44.23419" lon="4.38401">
        <ele>299.441</ele>
        <time>2015-05-03T07:52:06.307Z</time>
      </trkpt>
      <trkpt lat="44.23426" lon="4.38393">
        <ele>301.937</ele>
        <time>2015-05-03T07:52:08.731Z</time>
      </trkpt>
      <trkpt lat="44.23438" lon="4.38387">
        <ele>302.757</ele>
        <time>2015-05-03T07:52:11.925Z</time>
      </trkpt>
      <trkpt lat="44.23451" lon="4.38382">
        <ele>302.336</ele>
        <time>2015-05-03T07:52:15.159Z</time>
      </trkpt>
      <trkpt lat="44.23464" lon="4.38378">
        <ele>301.141</ele>
        <time>2015-05-03T07:52:18.529Z</time>
      </trkpt>
      <trkpt lat="44.23473" lon="4.3837">
        <ele>299.469</ele>
        <time>2015-05-03T07:52:21.704Z</time>
      </trkpt>
      <trkpt lat="44.2348" lon="4.38358">
        <ele>297.469</ele>
        <time>2015-05-03T07:52:24.667Z</time>
      </trkpt>
      <trkpt lat="44.23488" lon="4.38348">
        <ele>295.347</ele>
        <time>2015-05-03T07:52:27.299Z</time>
      </trkpt>
      <trkpt lat="44.23485" lon="4.38335">
        <ele>294.333</ele>
        <time>2015-05-03T07:52:29.572Z</time>
      </trkpt>
      <trkpt lat="44.2348" lon="4.38319">
        <ele>295.234</ele>
        <time>2015-05-03T07:52:32.129Z</time>
      </trkpt>
      <trkpt lat="44.23477" lon="4.38305">
        <ele>296.837</ele>
        <time>2015-05-03T07:52:34.153Z</time>
      </trkpt>
      <trkpt lat="44.23476" lon="4.38287">
        <ele>297.761</ele>
        <time>2015-05-03T07:52:36.822Z</time>
      </trkpt>
      <trkpt lat="44.23469" lon="4.38269">
        <ele>297.812</ele>
        <time>2015-05-03T07:52:40.464Z</time>
      </trkpt>
      <trkpt lat="44.23462" lon="4.38244">
        <ele>297.423</ele>
        <time>2015-05-03T07:52:46.741Z</time>
      </trkpt>
      <trkpt lat="44.23455" lon="4.38233">
        <ele>297.128</ele>
        <time>2015-05-03T07:52:50.660Z</time>
      </trkpt>
      <trkpt lat="44.23463" lon="4.3822">
        <ele>297.126</ele>
        <time>2015-05-03T07:52:54.686Z</time>
      </trkpt>
      <trkpt lat="44.23469" lon="4.38206">
        <ele>297.023</ele>
        <time>2015-05-03T07:52:57.825Z</time>
      </trkpt>
      <trkpt lat="44.23464" lon="4.38195">
        <ele>296.493</ele>
        <time>2015-05-03T07:53:00.207Z</time>
      </trkpt>
      <trkpt lat="44.23453" lon="4.38188">
        <ele>296.441</ele>
        <time>2015-05-03T07:53:03.182Z</time>
      </trkpt>
      <trkpt lat="44.23442" lon="4.38182">
        <ele>297.59</ele>
        <time>2015-05-03T07:53:05.829Z</time>
      </trkpt>
      <trkpt lat="44.23435" lon="4.38173">
        <ele>298.943</ele>
        <time>2015-05-03T07:53:07.912Z</time>
      </trkpt>
      <trkpt lat="44.23432" lon="4.38156">
        <ele>299.14</ele>
        <time>2015-05-03T07:53:10.763Z</time>
      </trkpt>
      <trkpt lat="44.23427" lon="4.38138">
        <ele>298.102</ele>
        <time>2015-05-03T07:53:13.782Z</time>
      </trkpt>
      <trkpt lat="44.23422" lon="4.38122">
        <ele>296.754</ele>
        <time>2015-05-03T07:53:16.862Z</time>
      </trkpt>
      <trkpt lat="44.23419" lon="4.38102">
        <ele>296.198</ele>
        <time>2015-05-03T07:53:20.411Z</time>
      </trkpt>
      <trkpt lat="44.23415" lon="4.38086">
        <ele>296.694</ele>
        <time>2015-05-03T07:53:23.525Z</time>
      </trkpt>
      <trkpt lat="44.23409" lon="4.3807">
        <ele>297.612</ele>
        <time>2015-05-03T07:53:27.098Z</time>
      </trkpt>
      <trkpt lat="44.23406" lon="4.38054">
        <ele>298.241</ele>
        <time>2015-05-03T07:53:30.252Z</time>
      </trkpt>
      <trkpt lat="44.23402" lon="4.38042">
        <ele>298.378</ele>
        <time>2015-05-03T07:53:32.669Z</time>
      </trkpt>
      <trkpt lat="44.23398" lon="4.3803">
        <ele>298.185</ele>
        <time>2015-05-03T07:53:35.136Z</time>
      </trkpt>
      <trkpt lat="44.23394" lon="4.38019">
        <ele>297.955</ele>
        <time>2015-05-03T07:53:37.488Z</time>
      </trkpt>
      <trkpt lat="44.2339" lon="4.38">
        <ele>297.897</ele>
        <time>2015-05-03T07:53:40.989Z</time>
      </trkpt>
      <trkpt lat="44.23386" lon="4.37988">
        <ele>297.934</ele>
        <time>2015-05-03T07:53:43.320Z</time>
      </trkpt>
      <trkpt lat="44.23383" lon="4.37976">
        <ele>297.861</ele>
        <time>2015-05-03T07:53:45.988Z</time>
      </trkpt>
      <trkpt lat="44.23382" lon="4.37958">
        <ele>297.67</ele>
        <time>2015-05-03T07:53:50.036Z</time>
      </trkpt>
      <trkpt lat="44.23378" lon="4.3794">
        <ele>297.073</ele>
        <time>2015-05-03T07:53:55.000Z</time>
      </trkpt>
      <trkpt lat="44.23371" lon="4.37929">
        <ele>295.862</ele>
        <time>2015-05-03T07:53:58.887Z</time>
      </trkpt>
      <trkpt lat="44.23367" lon="4.37915">
        <ele>294.695</ele>
        <time>2015-05-03T07:54:02.037Z</time>
      </trkpt>
      <trkpt lat="44.23372" lon="4.37902">
        <ele>294.633</ele>
        <time>2015-05-03T07:54:04.739Z</time>
      </trkpt>
      <trkpt lat="44.23382" lon="4.37898">
        <ele>295.787</ele>
        <time>2015-05-03T07:54:07.419Z</time>
      </trkpt>
      <trkpt lat="44.23392" lon="4.37894">
        <ele>297.134</ele>
        <time>2015-05-03T07:54:09.637Z</time>
      </trkpt>
      <trkpt lat="44.23402" lon="4.37885">
        <ele>297.991</ele>
        <time>2015-05-03T07:54:12.086Z</time>
      </trkpt>
      <trkpt lat="44.23411" lon="4.37876">
        <ele>298.57</ele>
        <time>2015-05-03T07:54:14.407Z</time>
      </trkpt>
      <trkpt lat="44.23423" lon="4.37865">
        <ele>298.969</ele>
        <time>2015-05-03T07:54:17.002Z</time>
      </trkpt>
      <trkpt lat="44.23431" lon="4.37858">
        <ele>299.171</ele>
        <time>2015-05-03T07:54:18.684Z</time>
      </trkpt>
      <trkpt lat="44.23444" lon="4.37846">
        <ele>299.245</ele>
        <time>2015-05-03T07:54:21.534Z</time>
      </trkpt>
      <trkpt lat="44.23452" lon="4.37838">
        <ele>298.94</ele>
        <time>2015-05-03T07:54:23.211Z</time>
      </trkpt>
      <trkpt lat="44.2346" lon="4.37829">
        <ele>297.881</ele>
        <time>2015-05-03T07:54:24.985Z</time>
      </trkpt>
      <trkpt lat="44.23473" lon="4.37816">
        <ele>296.569</ele>
        <time>2015-05-03T07:54:28.109Z</time>
      </trkpt>
      <trkpt lat="44.23486" lon="4.37802">
        <ele>295.774</ele>
        <time>2015-05-03T07:54:31.719Z</time>
      </trkpt>
      <trkpt lat="44.23496" lon="4.37794">
        <ele>295.374</ele>
        <time>2015-05-03T07:54:34.663Z</time>
      </trkpt>
      <trkpt lat="44.23504" lon="4.37789">
        <ele>295.068</ele>
        <time>2015-05-03T07:54:37.065Z</time>
      </trkpt>
      <trkpt lat="44.23517" lon="4.37791">
        <ele>294.956</ele>
        <time>2015-05-03T07:54:40.280Z</time>
      </trkpt>
      <trkpt lat="44.23525" lon="4.37806">
        <ele>295.25</ele>
        <time>2015-05-03T07:54:43.300Z</time>
      </trkpt>
      <trkpt lat="44.2353" lon="4.37822">
        <ele>296.164</ele>
        <time>2015-05-03T07:54:46.066Z</time>
      </trkpt>
      <trkpt lat="44.23531" lon="4.37839">
        <ele>297.171</ele>
        <time>2015-05-03T07:54:48.745Z</time>
      </trkpt>
      <trkpt lat="44.23533" lon="4.37856">
        <ele>297.497</ele>
        <time>2015-05-03T07:54:51.353Z</time>
      </trkpt>
      <trkpt lat="44.23534" lon="4.37874">
        <ele>297.267</ele>
        <time>2015-05-03T07:54:54.061Z</time>
      </trkpt>
      <trkpt lat="44.23536" lon="4.37891">
        <ele>297.038</ele>
        <time>2015-05-03T07:54:56.585Z</time>
      </trkpt>
      <trkpt lat="44.23537" lon="4.37905">
        <ele>297.078</ele>
        <time>2015-05-03T07:54:58.540Z</time>
      </trkpt>
      <trkpt lat="44.23539" lon="4.37924">
        <ele>297.404</ele>
        <time>2015-05-03T07:55:01.576Z</time>
      </trkpt>
      <trkpt lat="44.2354" lon="4.37945">
        <ele>297.573</ele>
        <time>2015-05-03T07:55:04.872Z</time>
      </trkpt>
      <trkpt lat="44.23541" lon="4.37958">
        <ele>297.254</ele>
        <time>2015-05-03T07:55:07.921Z</time>
      </trkpt>
      <trkpt lat="44.23542" lon="4.37976">
        <ele>296.734</ele>
        <time>2015-05-03T07:55:12.629Z</time>
      </trkpt>
      <trkpt lat="44.23544" lon="4.37989">
        <ele>296.382</ele>
        <time>2015-05-03T07:55:15.929Z</time>
      </trkpt>
      <trkpt lat="44.23555" lon="4.37993">
        <ele>296.326</ele>
        <time>2015-05-03T07:55:19.320Z</time>
      </trkpt>
      <trkpt lat="44.23566" lon="4.37994">
        <ele>296.528</ele>
        <time>2015-05-03T07:55:22.268Z</time>
      </trkpt>
      <trkpt lat="44.23576" lon="4.37992">
        <ele>296.754</ele>
        <time>2015-05-03T07:55:24.969Z</time>
      </trkpt>
      <trkpt lat="44.23587" lon="4.37994">
        <ele>296.829</ele>
        <time>2015-05-03T07:55:27.328Z</time>
      </trkpt>
      <trkpt lat="44.23599" lon="4.37987">
        <ele>296.801</ele>
        <time>2015-05-03T07:55:30.186Z</time>
      </trkpt>
      <trkpt lat="44.23612" lon="4.37976">
        <ele>296.534</ele>
        <time>2015-05-03T07:55:33.385Z</time>
      </trkpt>
      <trkpt lat="44.23626" lon="4.3797">
        <ele>295.82</ele>
        <time>2015-05-03T07:55:36.261Z</time>
      </trkpt>
      <trkpt lat="44.23641" lon="4.37966">
        <ele>294.943</ele>
        <time>2015-05-03T07:55:39.221Z</time>
      </trkpt>
      <trkpt lat="44.23651" lon="4.37965">
        <ele>294.394</ele>
        <time>2015-05-03T07:55:41.215Z</time>
      </trkpt>
      <trkpt lat="44.23661" lon="4.37962">
        <ele>294.278</ele>
        <time>2015-05-03T07:55:43.266Z</time>
      </trkpt>
      <trkpt lat="44.23676" lon="4.37965">
        <ele>294.496</ele>
        <time>2015-05-03T07:55:46.265Z</time>
      </trkpt>
      <trkpt lat="44.23688" lon="4.37974">
        <ele>294.951</ele>
        <time>2015-05-03T07:55:48.971Z</time>
      </trkpt>
      <trkpt lat="44.23701" lon="4.37982">
        <ele>295.458</ele>
        <time>2015-05-03T07:55:51.943Z</time>
      </trkpt>
      <trkpt lat="44.23709" lon="4.3799">
        <ele>295.81</ele>
        <time>2015-05-03T07:55:53.782Z</time>
      </trkpt>
      <trkpt lat="44.23722" lon="4.37995">
        <ele>295.965</ele>
        <time>2015-05-03T07:55:56.462Z</time>
      </trkpt>
      <trkpt lat="44.23732" lon="4.38">
        <ele>295.86</ele>
        <time>2015-05-03T07:55:58.539Z</time>
      </trkpt>
      <trkpt lat="44.23741" lon="4.38005">
        <ele>295.491</ele>
        <time>2015-05-03T07:56:00.523Z</time>
      </trkpt>
      <trkpt lat="44.23754" lon="4.38013">
        <ele>295.263</ele>
        <time>2015-05-03T07:56:03.426Z</time>
      </trkpt>
      <trkpt lat="44.23764" lon="4.38017">
        <ele>295.482</ele>
        <time>2015-05-03T07:56:05.636Z</time>
      </trkpt>
      <trkpt lat="44.23775" lon="4.38029">
        <ele>295.654</ele>
        <time>2015-05-03T07:56:08.992Z</time>
      </trkpt>
      <trkpt lat="44.23784" lon="4.38036">
        <ele>295.171</ele>
        <time>2015-05-03T07:56:11.556Z</time>
      </trkpt>
      <trkpt lat="44.23794" lon="4.38033">
        <ele>294.257</ele>
        <time>2015-05-03T07:56:13.937Z</time>
      </trkpt>
      <trkpt lat="44.23807" lon="4.38031">
        <ele>293.688</ele>
        <time>2015-05-03T07:56:16.923Z</time>
      </trkpt>
      <trkpt lat="44.23816" lon="4.38028">
        <ele>293.777</ele>
        <time>2015-05-03T07:56:19.128Z</time>
      </trkpt>
      <trkpt lat="44.2383" lon="4.38023">
        <ele>294.036</ele>
        <time>2015-05-03T07:56:22.438Z</time>
      </trkpt>
      <trkpt lat="44.2384" lon="4.38013">
        <ele>293.993</ele>
        <time>2015-05-03T07:56:25.372Z</time>
      </trkpt>
      <trkpt lat="44.23846" lon="4.37997">
        <ele>293.753</ele>
        <time>2015-05-03T07:56:28.553Z</time>
      </trkpt>
      <trkpt lat="44.23848" lon="4.37985">
        <ele>293.57</ele>
        <time>2015-05-03T07:56:30.851Z</time>
      </trkpt>
      <trkpt lat="44.23844" lon="4.37969">
        <ele>293.087</ele>
        <time>2015-05-03T07:56:33.698Z</time>
      </trkpt>
      <trkpt lat="44.23837" lon="4.37954">
        <ele>292.009</ele>
        <time>2015-05-03T07:56:36.759Z</time>
      </trkpt>
      <trkpt lat="44.23834" lon="4.37938">
        <ele>291.062</ele>
        <time>2015-05-03T07:56:39.615Z</time>
      </trkpt>
      <trkpt lat="44.23831" lon="4.37924">
        <ele>290.916</ele>
        <time>2015-05-03T07:56:42.317Z</time>
      </trkpt>
      <trkpt lat="44.23827" lon="4.3791">
        <ele>291.216</ele>
        <time>2015-05-03T07:56:44.997Z</time>
      </trkpt>
      <trkpt lat="44.23821" lon="4.37899">
        <ele>291.512</ele>
        <time>2015-05-03T07:56:47.671Z</time>
      </trkpt>
      <trkpt lat="44.23815" lon="4.37887">
        <ele>291.886</ele>
        <time>2015-05-03T07:56:50.643Z</time>
      </trkpt>
      <trkpt lat="44.23808" lon="4.37875">
        <ele>292.533</ele>
        <time>2015-05-03T07:56:53.793Z</time>
      </trkpt>
      <trkpt lat="44.23803" lon="4.37861">
        <ele>293.326</ele>
        <time>2015-05-03T07:56:57.468Z</time>
      </trkpt>
      <trkpt lat="44.23806" lon="4.37849">
        <ele>293.981</ele>
        <time>2015-05-03T07:57:00.892Z</time>
      </trkpt>
      <trkpt lat="44.23806" lon="4.37833">
        <ele>294.35</ele>
        <time>2015-05-03T07:57:05.292Z</time>
      </trkpt>
      <trkpt lat="44.23811" lon="4.37821">
        <ele>294.355</ele>
        <time>2015-05-03T07:57:09.040Z</time>
      </trkpt>
      <trkpt lat="44.23808" lon="4.37809">
        <ele>294.059</ele>
        <time>2015-05-03T07:57:11.975Z</time>
      </trkpt>
      <trkpt lat="44.23802" lon="4.37795">
        <ele>293.728</ele>
        <time>2015-05-03T07:57:15.408Z</time>
      </trkpt>
      <trkpt lat="44.23795" lon="4.37781">
        <ele>293.78</ele>
        <time>2015-05-03T07:57:18.632Z</time>
      </trkpt>
      <trkpt lat="44.23789" lon="4.3777">
        <ele>294.309</ele>
        <time>2015-05-03T07:57:21.421Z</time>
      </trkpt>
      <trkpt lat="44.23784" lon="4.37756">
        <ele>294.568</ele>
        <time>2015-05-03T07:57:24.983Z</time>
      </trkpt>
      <trkpt lat="44.23782" lon="4.37743">
        <ele>293.881</ele>
        <time>2015-05-03T07:57:29.232Z</time>
      </trkpt>
      <trkpt lat="44.23789" lon="4.37734">
        <ele>292.747</ele>
        <time>2015-05-03T07:57:32.901Z</time>
      </trkpt>
      <trkpt lat="44.23799" lon="4.37739">
        <ele>292.266</ele>
        <time>2015-05-03T07:57:35.891Z</time>
      </trkpt>
      <trkpt lat="44.2381" lon="4.37746">
        <ele>292.846</ele>
        <time>2015-05-03T07:57:38.863Z</time>
      </trkpt>
      <trkpt lat="44.23822" lon="4.37751">
        <ele>293.859</ele>
        <time>2015-05-03T07:57:41.692Z</time>
      </trkpt>
      <trkpt lat="44.23836" lon="4.37757">
        <ele>294.477</ele>
        <time>2015-05-03T07:57:44.764Z</time>
      </trkpt>
      <trkpt lat="44.23848" lon="4.37762">
        <ele>294.513</ele>
        <time>2015-05-03T07:57:47.574Z</time>
      </trkpt>
      <trkpt lat="44.2386" lon="4.37766">
        <ele>294.156</ele>
        <time>2015-05-03T07:57:50.338Z</time>
      </trkpt>
      <trkpt lat="44.2387" lon="4.3777">
        <ele>293.676</ele>
        <time>2015-05-03T07:57:52.849Z</time>
      </trkpt>
      <trkpt lat="44.23882" lon="4.37773">
        <ele>293.468</ele>
        <time>2015-05-03T07:57:55.563Z</time>
      </trkpt>
      <trkpt lat="44.23894" lon="4.37777">
        <ele>293.91</ele>
        <time>2015-05-03T07:57:58.442Z</time>
      </trkpt>
      <trkpt lat="44.23905" lon="4.37779">
        <ele>294.866</ele>
        <time>2015-05-03T07:58:01.071Z</time>
      </trkpt>
      <trkpt lat="44.23916" lon="4.3778">
        <ele>295.957</ele>
        <time>2015-05-03T07:58:03.786Z</time>
      </trkpt>
      <trkpt lat="44.23929" lon="4.37781">
        <ele>296.937</ele>
        <time>2015-05-03T07:58:06.724Z</time>
      </trkpt>
      <trkpt lat="44.2394" lon="4.37781">
        <ele>297.407</ele>
        <time>2015-05-03T07:58:09.538Z</time>
      </trkpt>
      <trkpt lat="44.23952" lon="4.37781">
        <ele>297.18</ele>
        <time>2015-05-03T07:58:12.305Z</time>
      </trkpt>
      <trkpt lat="44.23964" lon="4.3778">
        <ele>296.799</ele>
        <time>2015-05-03T07:58:15.164Z</time>
      </trkpt>
      <trkpt lat="44.23976" lon="4.3778">
        <ele>296.734</ele>
        <time>2015-05-03T07:58:17.929Z</time>
      </trkpt>
      <trkpt lat="44.23987" lon="4.3778">
        <ele>296.879</ele>
        <time>2015-05-03T07:58:20.587Z</time>
      </trkpt>
      <trkpt lat="44.23998" lon="4.37779">
        <ele>297.019</ele>
        <time>2015-05-03T07:58:23.262Z</time>
      </trkpt>
      <trkpt lat="44.24009" lon="4.37779">
        <ele>297.253</ele>
        <time>2015-05-03T07:58:25.983Z</time>
      </trkpt>
      <trkpt lat="44.24021" lon="4.3778">
        <ele>297.769</ele>
        <time>2015-05-03T07:58:28.923Z</time>
      </trkpt>
      <trkpt lat="44.24033" lon="4.37778">
        <ele>298.433</ele>
        <time>2015-05-03T07:58:31.804Z</time>
      </trkpt>
      <trkpt lat="44.24044" lon="4.37771">
        <ele>298.965</ele>
        <time>2015-05-03T07:58:34.809Z</time>
      </trkpt>
      <trkpt lat="44.24051" lon="4.37757">
        <ele>299.473</ele>
        <time>2015-05-03T07:58:37.903Z</time>
      </trkpt>
      <trkpt lat="44.24054" lon="4.37741">
        <ele>300.103</ele>
        <time>2015-05-03T07:58:40.881Z</time>
      </trkpt>
      <trkpt lat="44.2406" lon="4.37725">
        <ele>300.477</ele>
        <time>2015-05-03T07:58:43.856Z</time>
      </trkpt>
      <trkpt lat="44.24067" lon="4.37715">
        <ele>300.304</ele>
        <time>2015-05-03T07:58:46.127Z</time>
      </trkpt>
      <trkpt lat="44.24077" lon="4.37705">
        <ele>300.184</ele>
        <time>2015-05-03T07:58:48.930Z</time>
      </trkpt>
      <trkpt lat="44.24089" lon="4.37698">
        <ele>300.636</ele>
        <time>2015-05-03T07:58:51.862Z</time>
      </trkpt>
      <trkpt lat="44.24101" lon="4.37692">
        <ele>301.276</ele>
        <time>2015-05-03T07:58:54.750Z</time>
      </trkpt>
      <trkpt lat="44.24113" lon="4.37686">
        <ele>301.822</ele>
        <time>2015-05-03T07:58:57.490Z</time>
      </trkpt>
      <trkpt lat="44.24126" lon="4.37681">
        <ele>302.493</ele>
        <time>2015-05-03T07:59:00.421Z</time>
      </trkpt>
      <trkpt lat="44.24135" lon="4.37676">
        <ele>303.414</ele>
        <time>2015-05-03T07:59:02.575Z</time>
      </trkpt>
      <trkpt lat="44.24147" lon="4.37669">
        <ele>304.416</ele>
        <time>2015-05-03T07:59:05.258Z</time>
      </trkpt>
      <trkpt lat="44.24159" lon="4.37662">
        <ele>304.894</ele>
        <time>2015-05-03T07:59:07.979Z</time>
      </trkpt>
      <trkpt lat="44.24169" lon="4.37657">
        <ele>304.468</ele>
        <time>2015-05-03T07:59:10.307Z</time>
      </trkpt>
      <trkpt lat="44.24178" lon="4.3765">
        <ele>303.525</ele>
        <time>2015-05-03T07:59:12.845Z</time>
      </trkpt>
      <trkpt lat="44.2418" lon="4.37636">
        <ele>302.617</ele>
        <time>2015-05-03T07:59:15.590Z</time>
      </trkpt>
      <trkpt lat="44.24173" lon="4.37625">
        <ele>302.254</ele>
        <time>2015-05-03T07:59:18.991Z</time>
      </trkpt>
      <trkpt lat="44.24161" lon="4.37619">
        <ele>302.806</ele>
        <time>2015-05-03T07:59:23.068Z</time>
      </trkpt>
      <trkpt lat="44.24149" lon="4.37614">
        <ele>303.896</ele>
        <time>2015-05-03T07:59:26.438Z</time>
      </trkpt>
      <trkpt lat="44.24139" lon="4.3761">
        <ele>304.763</ele>
        <time>2015-05-03T07:59:28.743Z</time>
      </trkpt>
      <trkpt lat="44.24122" lon="4.37607">
        <ele>305.089</ele>
        <time>2015-05-03T07:59:32.099Z</time>
      </trkpt>
      <trkpt lat="44.24111" lon="4.37607">
        <ele>304.749</ele>
        <time>2015-05-03T07:59:34.197Z</time>
      </trkpt>
      <trkpt lat="44.24098" lon="4.37617">
        <ele>303.808</ele>
        <time>2015-05-03T07:59:37.162Z</time>
      </trkpt>
      <trkpt lat="44.24086" lon="4.37622">
        <ele>302.922</ele>
        <time>2015-05-03T07:59:39.652Z</time>
      </trkpt>
      <trkpt lat="44.24074" lon="4.37628">
        <ele>302.704</ele>
        <time>2015-05-03T07:59:42.321Z</time>
      </trkpt>
      <trkpt lat="44.2406" lon="4.37633">
        <ele>303.359</ele>
        <time>2015-05-03T07:59:45.180Z</time>
      </trkpt>
      <trkpt lat="44.24051" lon="4.37634">
        <ele>304.7</ele>
        <time>2015-05-03T07:59:47.091Z</time>
      </trkpt>
      <trkpt lat="44.24038" lon="4.37633">
        <ele>305.909</ele>
        <time>2015-05-03T07:59:50.010Z</time>
      </trkpt>
      <trkpt lat="44.2403" lon="4.37617">
        <ele>306.081</ele>
        <time>2015-05-03T07:59:53.259Z</time>
      </trkpt>
      <trkpt lat="44.24025" lon="4.37599">
        <ele>305.203</ele>
        <time>2015-05-03T07:59:56.448Z</time>
      </trkpt>
      <trkpt lat="44.24018" lon="4.37589">
        <ele>303.986</ele>
        <time>2015-05-03T07:59:58.668Z</time>
      </trkpt>
      <trkpt lat="44.24008" lon="4.37575">
        <ele>302.99</ele>
        <time>2015-05-03T08:00:01.643Z</time>
      </trkpt>
      <trkpt lat="44.23994" lon="4.3757">
        <ele>302.37</ele>
        <time>2015-05-03T08:00:04.768Z</time>
      </trkpt>
      <trkpt lat="44.23984" lon="4.37573">
        <ele>302.319</ele>
        <time>2015-05-03T08:00:06.896Z</time>
      </trkpt>
      <trkpt lat="44.23972" lon="4.37577">
        <ele>302.798</ele>
        <time>2015-05-03T08:00:09.683Z</time>
      </trkpt>
      <trkpt lat="44.23961" lon="4.37583">
        <ele>303.069</ele>
        <time>2015-05-03T08:00:12.503Z</time>
      </trkpt>
      <trkpt lat="44.23952" lon="4.37574">
        <ele>302.603</ele>
        <time>2015-05-03T08:00:15.179Z</time>
      </trkpt>
      <trkpt lat="44.23944" lon="4.37565">
        <ele>301.825</ele>
        <time>2015-05-03T08:00:17.714Z</time>
      </trkpt>
      <trkpt lat="44.23936" lon="4.37559">
        <ele>301.354</ele>
        <time>2015-05-03T08:00:20.226Z</time>
      </trkpt>
      <trkpt lat="44.23929" lon="4.37546">
        <ele>301.234</ele>
        <time>2015-05-03T08:00:23.223Z</time>
      </trkpt>
      <trkpt lat="44.2392" lon="4.37538">
        <ele>301.286</ele>
        <time>2015-05-03T08:00:25.999Z</time>
      </trkpt>
      <trkpt lat="44.23913" lon="4.37524">
        <ele>301.487</ele>
        <time>2015-05-03T08:00:29.213Z</time>
      </trkpt>
      <trkpt lat="44.23908" lon="4.37513">
        <ele>301.801</ele>
        <time>2015-05-03T08:00:31.374Z</time>
      </trkpt>
      <trkpt lat="44.23901" lon="4.37504">
        <ele>301.655</ele>
        <time>2015-05-03T08:00:33.546Z</time>
      </trkpt>
      <trkpt lat="44.23889" lon="4.37493">
        <ele>300.781</ele>
        <time>2015-05-03T08:00:36.698Z</time>
      </trkpt>
      <trkpt lat="44.23884" lon="4.37482">
        <ele>299.999</ele>
        <time>2015-05-03T08:00:38.719Z</time>
      </trkpt>
      <trkpt lat="44.23875" lon="4.37467">
        <ele>300.023</ele>
        <time>2015-05-03T08:00:41.725Z</time>
      </trkpt>
      <trkpt lat="44.23866" lon="4.37457">
        <ele>300.46</ele>
        <time>2015-05-03T08:00:44.233Z</time>
      </trkpt>
      <trkpt lat="44.23863" lon="4.37439">
        <ele>300.694</ele>
        <time>2015-05-03T08:00:47.172Z</time>
      </trkpt>
      <trkpt lat="44.23857" lon="4.37427">
        <ele>300.437</ele>
        <time>2015-05-03T08:00:49.410Z</time>
      </trkpt>
      <trkpt lat="44.23844" lon="4.37415">
        <ele>299.804</ele>
        <time>2015-05-03T08:00:52.619Z</time>
      </trkpt>
      <trkpt lat="44.23836" lon="4.37408">
        <ele>299.17</ele>
        <time>2015-05-03T08:00:54.678Z</time>
      </trkpt>
      <trkpt lat="44.23829" lon="4.37398">
        <ele>298.751</ele>
        <time>2015-05-03T08:00:56.732Z</time>
      </trkpt>
      <trkpt lat="44.23821" lon="4.3739">
        <ele>298.617</ele>
        <time>2015-05-03T08:00:58.975Z</time>
      </trkpt>
      <trkpt lat="44.23811" lon="4.3738">
        <ele>298.802</ele>
        <time>2015-05-03T08:01:01.691Z</time>
      </trkpt>
      <trkpt lat="44.23802" lon="4.37366">
        <ele>299.147</ele>
        <time>2015-05-03T08:01:05.189Z</time>
      </trkpt>
      <trkpt lat="44.23792" lon="4.37354">
        <ele>299.29</ele>
        <time>2015-05-03T08:01:08.305Z</time>
      </trkpt>
      <trkpt lat="44.23785" lon="4.37337">
        <ele>298.925</ele>
        <time>2015-05-03T08:01:11.363Z</time>
      </trkpt>
      <trkpt lat="44.2378" lon="4.3732">
        <ele>298.216</ele>
        <time>2015-05-03T08:01:14.364Z</time>
      </trkpt>
      <trkpt lat="44.23771" lon="4.3731">
        <ele>297.68</ele>
        <time>2015-05-03T08:01:17.153Z</time>
      </trkpt>
      <trkpt lat="44.23761" lon="4.373">
        <ele>297.55</ele>
        <time>2015-05-03T08:01:19.882Z</time>
      </trkpt>
      <trkpt lat="44.2375" lon="4.37287">
        <ele>297.48</ele>
        <time>2015-05-03T08:01:23.134Z</time>
      </trkpt>
      <trkpt lat="44.23737" lon="4.37276">
        <ele>297.067</ele>
        <time>2015-05-03T08:01:26.525Z</time>
      </trkpt>
      <trkpt lat="44.23724" lon="4.37266">
        <ele>296.437</ele>
        <time>2015-05-03T08:01:29.519Z</time>
      </trkpt>
      <trkpt lat="44.23714" lon="4.37251">
        <ele>296.401</ele>
        <time>2015-05-03T08:01:32.576Z</time>
      </trkpt>
      <trkpt lat="44.23705" lon="4.37247">
        <ele>297.323</ele>
        <time>2015-05-03T08:01:34.549Z</time>
      </trkpt>
      <trkpt lat="44.23694" lon="4.37235">
        <ele>298.297</ele>
        <time>2015-05-03T08:01:37.487Z</time>
      </trkpt>
      <trkpt lat="44.23687" lon="4.37224">
        <ele>298.3</ele>
        <time>2015-05-03T08:01:39.607Z</time>
      </trkpt>
      <trkpt lat="44.23676" lon="4.37216">
        <ele>297.237</ele>
        <time>2015-05-03T08:01:42.061Z</time>
      </trkpt>
      <trkpt lat="44.23667" lon="4.37213">
        <ele>295.698</ele>
        <time>2015-05-03T08:01:44.044Z</time>
      </trkpt>
      <trkpt lat="44.23654" lon="4.37216">
        <ele>294.511</ele>
        <time>2015-05-03T08:01:46.975Z</time>
      </trkpt>
      <trkpt lat="44.23646" lon="4.37205">
        <ele>293.991</ele>
        <time>2015-05-03T08:01:49.623Z</time>
      </trkpt>
      <trkpt lat="44.23642" lon="4.37191">
        <ele>293.874</ele>
        <time>2015-05-03T08:01:52.504Z</time>
      </trkpt>
      <trkpt lat="44.23641" lon="4.37173">
        <ele>293.89</ele>
        <time>2015-05-03T08:01:55.780Z</time>
      </trkpt>
      <trkpt lat="44.23639" lon="4.3716">
        <ele>293.928</ele>
        <time>2015-05-03T08:01:58.275Z</time>
      </trkpt>
      <trkpt lat="44.23629" lon="4.37149">
        <ele>293.925</ele>
        <time>2015-05-03T08:02:01.361Z</time>
      </trkpt>
      <trkpt lat="44.23615" lon="4.37142">
        <ele>293.73</ele>
        <time>2015-05-03T08:02:05.105Z</time>
      </trkpt>
      <trkpt lat="44.23605" lon="4.37139">
        <ele>293.311</ele>
        <time>2015-05-03T08:02:07.310Z</time>
      </trkpt>
      <trkpt lat="44.23592" lon="4.37135">
        <ele>292.919</ele>
        <time>2015-05-03T08:02:10.333Z</time>
      </trkpt>
      <trkpt lat="44.23578" lon="4.37135">
        <ele>292.739</ele>
        <time>2015-05-03T08:02:13.278Z</time>
      </trkpt>
      <trkpt lat="44.23565" lon="4.37135">
        <ele>292.709</ele>
        <time>2015-05-03T08:02:15.912Z</time>
      </trkpt>
      <trkpt lat="44.23553" lon="4.37127">
        <ele>292.772</ele>
        <time>2015-05-03T08:02:18.857Z</time>
      </trkpt>
      <trkpt lat="44.23544" lon="4.37112">
        <ele>293</ele>
        <time>2015-05-03T08:02:22.089Z</time>
      </trkpt>
      <trkpt lat="44.23538" lon="4.37101">
        <ele>293.523</ele>
        <time>2015-05-03T08:02:24.276Z</time>
      </trkpt>
      <trkpt lat="44.23529" lon="4.37088">
        <ele>294.154</ele>
        <time>2015-05-03T08:02:27.006Z</time>
      </trkpt>
      <trkpt lat="44.23517" lon="4.37082">
        <ele>294.499</ele>
        <time>2015-05-03T08:02:29.981Z</time>
      </trkpt>
      <trkpt lat="44.23507" lon="4.3708">
        <ele>294.408</ele>
        <time>2015-05-03T08:02:32.137Z</time>
      </trkpt>
      <trkpt lat="44.23494" lon="4.37084">
        <ele>293.913</ele>
        <time>2015-05-03T08:02:35.023Z</time>
      </trkpt>
      <trkpt lat="44.23483" lon="4.37077">
        <ele>293.049</ele>
        <time>2015-05-03T08:02:37.841Z</time>
      </trkpt>
      <trkpt lat="44.23474" lon="4.37074">
        <ele>292.082</ele>
        <time>2015-05-03T08:02:39.818Z</time>
      </trkpt>
      <trkpt lat="44.23464" lon="4.37072">
        <ele>291.419</ele>
        <time>2015-05-03T08:02:41.979Z</time>
      </trkpt>
      <trkpt lat="44.23451" lon="4.3707">
        <ele>291.36</ele>
        <time>2015-05-03T08:02:44.772Z</time>
      </trkpt>
      <trkpt lat="44.23441" lon="4.37064">
        <ele>291.976</ele>
        <time>2015-05-03T08:02:47.219Z</time>
      </trkpt>
      <trkpt lat="44.23435" lon="4.37054">
        <ele>293.148</ele>
        <time>2015-05-03T08:02:49.528Z</time>
      </trkpt>
      <trkpt lat="44.23422" lon="4.3705">
        <ele>294.428</ele>
        <time>2015-05-03T08:02:52.446Z</time>
      </trkpt>
      <trkpt lat="44.23409" lon="4.37047">
        <ele>294.993</ele>
        <time>2015-05-03T08:02:55.381Z</time>
      </trkpt>
      <trkpt lat="44.23398" lon="4.37043">
        <ele>294.496</ele>
        <time>2015-05-03T08:02:58.120Z</time>
      </trkpt>
      <trkpt lat="44.2339" lon="4.37034">
        <ele>293.484</ele>
        <time>2015-05-03T08:03:00.790Z</time>
      </trkpt>
      <trkpt lat="44.23387" lon="4.37022">
        <ele>292.605</ele>
        <time>2015-05-03T08:03:03.441Z</time>
      </trkpt>
      <trkpt lat="44.23386" lon="4.37008">
        <ele>292</ele>
        <time>2015-05-03T08:03:07.060Z</time>
      </trkpt>
      <trkpt lat="44.23386" lon="4.36992">
        <ele>291.688</ele>
        <time>2015-05-03T08:03:12.150Z</time>
      </trkpt>
      <trkpt lat="44.23385" lon="4.36977">
        <ele>291.603</ele>
        <time>2015-05-03T08:03:18.071Z</time>
      </trkpt>
      <trkpt lat="44.23386" lon="4.36963">
        <ele>291.533</ele>
        <time>2015-05-03T08:03:22.412Z</time>
      </trkpt>
      <trkpt lat="44.23391" lon="4.36948">
        <ele>291.393</ele>
        <time>2015-05-03T08:03:27.117Z</time>
      </trkpt>
      <trkpt lat="44.23387" lon="4.36935">
        <ele>291.307</ele>
        <time>2015-05-03T08:03:30.760Z</time>
      </trkpt>
      <trkpt lat="44.23385" lon="4.36918">
        <ele>290.932</ele>
        <time>2015-05-03T08:03:34.927Z</time>
      </trkpt>
      <trkpt lat="44.23381" lon="4.36899">
        <ele>290.027</ele>
        <time>2015-05-03T08:03:38.891Z</time>
      </trkpt>
      <trkpt lat="44.23375" lon="4.36882">
        <ele>289.103</ele>
        <time>2015-05-03T08:03:42.202Z</time>
      </trkpt>
      <trkpt lat="44.2337" lon="4.36865">
        <ele>288.435</ele>
        <time>2015-05-03T08:03:45.201Z</time>
      </trkpt>
      <trkpt lat="44.23367" lon="4.36848">
        <ele>287.767</ele>
        <time>2015-05-03T08:03:48.025Z</time>
      </trkpt>
      <trkpt lat="44.23366" lon="4.36833">
        <ele>287.593</ele>
        <time>2015-05-03T08:03:50.478Z</time>
      </trkpt>
      <trkpt lat="44.23362" lon="4.36815">
        <ele>288.338</ele>
        <time>2015-05-03T08:03:53.375Z</time>
      </trkpt>
      <trkpt lat="44.23357" lon="4.36797">
        <ele>289.317</ele>
        <time>2015-05-03T08:03:56.352Z</time>
      </trkpt>
      <trkpt lat="44.23355" lon="4.36784">
        <ele>289.92</ele>
        <time>2015-05-03T08:03:58.348Z</time>
      </trkpt>
      <trkpt lat="44.2335" lon="4.36765">
        <ele>290.315</ele>
        <time>2015-05-03T08:04:01.349Z</time>
      </trkpt>
      <trkpt lat="44.23343" lon="4.36747">
        <ele>290.657</ele>
        <time>2015-05-03T08:04:04.411Z</time>
      </trkpt>
      <trkpt lat="44.23338" lon="4.3673">
        <ele>290.686</ele>
        <time>2015-05-03T08:04:07.089Z</time>
      </trkpt>
      <trkpt lat="44.23337" lon="4.36708">
        <ele>290.02</ele>
        <time>2015-05-03T08:04:10.290Z</time>
      </trkpt>
      <trkpt lat="44.23339" lon="4.36695">
        <ele>288.877</ele>
        <time>2015-05-03T08:04:12.355Z</time>
      </trkpt>
      <trkpt lat="44.2334" lon="4.36676">
        <ele>288.01</ele>
        <time>2015-05-03T08:04:15.185Z</time>
      </trkpt>
      <trkpt lat="44.23335" lon="4.36663">
        <ele>288.12</ele>
        <time>2015-05-03T08:04:17.402Z</time>
      </trkpt>
      <trkpt lat="44.23334" lon="4.36651">
        <ele>289.237</ele>
        <time>2015-05-03T08:04:19.509Z</time>
      </trkpt>
      <trkpt lat="44.2333" lon="4.36637">
        <ele>290.576</ele>
        <time>2015-05-03T08:04:22.062Z</time>
      </trkpt>
      <trkpt lat="44.23323" lon="4.36627">
        <ele>291.667</ele>
        <time>2015-05-03T08:04:24.853Z</time>
      </trkpt>
      <trkpt lat="44.23316" lon="4.36614">
        <ele>292.645</ele>
        <time>2015-05-03T08:04:28.123Z</time>
      </trkpt>
      <trkpt lat="44.23309" lon="4.36601">
        <ele>293.339</ele>
        <time>2015-05-03T08:04:31.696Z</time>
      </trkpt>
      <trkpt lat="44.23299" lon="4.36591">
        <ele>293.348</ele>
        <time>2015-05-03T08:04:34.869Z</time>
      </trkpt>
      <trkpt lat="44.23292" lon="4.36583">
        <ele>292.939</ele>
        <time>2015-05-03T08:04:37.617Z</time>
      </trkpt>
      <trkpt lat="44.23283" lon="4.36572">
        <ele>292.58</ele>
        <time>2015-05-03T08:04:40.658Z</time>
      </trkpt>
      <trkpt lat="44.2328" lon="4.36557">
        <ele>292.272</ele>
        <time>2015-05-03T08:04:43.669Z</time>
      </trkpt>
      <trkpt lat="44.23274" lon="4.3654">
        <ele>291.943</ele>
        <time>2015-05-03T08:04:47.369Z</time>
      </trkpt>
      <trkpt lat="44.23264" lon="4.36531">
        <ele>291.702</ele>
        <time>2015-05-03T08:04:50.424Z</time>
      </trkpt>
      <trkpt lat="44.23252" lon="4.36526">
        <ele>291.422</ele>
        <time>2015-05-03T08:04:53.618Z</time>
      </trkpt>
      <trkpt lat="44.23239" lon="4.36527">
        <ele>290.997</ele>
        <time>2015-05-03T08:04:57.079Z</time>
      </trkpt>
      <trkpt lat="44.23225" lon="4.36532">
        <ele>290.608</ele>
        <time>2015-05-03T08:05:00.482Z</time>
      </trkpt>
      <trkpt lat="44.23215" lon="4.36534">
        <ele>290.604</ele>
        <time>2015-05-03T08:05:02.578Z</time>
      </trkpt>
      <trkpt lat="44.23206" lon="4.36532">
        <ele>290.976</ele>
        <time>2015-05-03T08:05:04.579Z</time>
      </trkpt>
      <trkpt lat="44.23193" lon="4.36525">
        <ele>291.356</ele>
        <time>2015-05-03T08:05:07.658Z</time>
      </trkpt>
      <trkpt lat="44.23184" lon="4.36519">
        <ele>291.124</ele>
        <time>2015-05-03T08:05:09.715Z</time>
      </trkpt>
      <trkpt lat="44.23173" lon="4.36515">
        <ele>290.09</ele>
        <time>2015-05-03T08:05:12.201Z</time>
      </trkpt>
      <trkpt lat="44.23162" lon="4.36514">
        <ele>289.081</ele>
        <time>2015-05-03T08:05:14.499Z</time>
      </trkpt>
      <trkpt lat="44.23151" lon="4.36511">
        <ele>289.216</ele>
        <time>2015-05-03T08:05:17.234Z</time>
      </trkpt>
      <trkpt lat="44.23137" lon="4.36505">
        <ele>290.457</ele>
        <time>2015-05-03T08:05:20.848Z</time>
      </trkpt>
      <trkpt lat="44.23128" lon="4.36499">
        <ele>291.567</ele>
        <time>2015-05-03T08:05:23.467Z</time>
      </trkpt>
      <trkpt lat="44.23118" lon="4.36495">
        <ele>291.56</ele>
        <time>2015-05-03T08:05:25.924Z</time>
      </trkpt>
      <trkpt lat="44.23105" lon="4.36488">
        <ele>290.794</ele>
        <time>2015-05-03T08:05:29.050Z</time>
      </trkpt>
      <trkpt lat="44.23091" lon="4.36479">
        <ele>290.154</ele>
        <time>2015-05-03T08:05:32.374Z</time>
      </trkpt>
      <trkpt lat="44.23076" lon="4.3647">
        <ele>290.16</ele>
        <time>2015-05-03T08:05:35.760Z</time>
      </trkpt>
      <trkpt lat="44.23067" lon="4.36465">
        <ele>290.675</ele>
        <time>2015-05-03T08:05:37.565Z</time>
      </trkpt>
      <trkpt lat="44.23054" lon="4.36457">
        <ele>291.323</ele>
        <time>2015-05-03T08:05:40.402Z</time>
      </trkpt>
      <trkpt lat="44.23041" lon="4.36448">
        <ele>292.03</ele>
        <time>2015-05-03T08:05:43.382Z</time>
      </trkpt>
      <trkpt lat="44.23031" lon="4.36441">
        <ele>292.754</ele>
        <time>2015-05-03T08:05:45.594Z</time>
      </trkpt>
      <trkpt lat="44.2302" lon="4.36434">
        <ele>293.23</ele>
        <time>2015-05-03T08:05:47.863Z</time>
      </trkpt>
      <trkpt lat="44.23004" lon="4.36424">
        <ele>293.24</ele>
        <time>2015-05-03T08:05:51.214Z</time>
      </trkpt>
      <trkpt lat="44.22988" lon="4.36417">
        <ele>292.424</ele>
        <time>2015-05-03T08:05:54.224Z</time>
      </trkpt>
      <trkpt lat="44.22978" lon="4.36414">
        <ele>290.874</ele>
        <time>2015-05-03T08:05:55.982Z</time>
      </trkpt>
      <trkpt lat="44.22968" lon="4.3641">
        <ele>289.453</ele>
        <time>2015-05-03T08:05:57.960Z</time>
      </trkpt>
      <trkpt lat="44.22954" lon="4.36396">
        <ele>288.859</ele>
        <time>2015-05-03T08:06:00.990Z</time>
      </trkpt>
      <trkpt lat="44.22945" lon="4.3638">
        <ele>288.94</ele>
        <time>2015-05-03T08:06:03.751Z</time>
      </trkpt>
      <trkpt lat="44.2294" lon="4.36369">
        <ele>289.234</ele>
        <time>2015-05-03T08:06:05.604Z</time>
      </trkpt>
      <trkpt lat="44.22932" lon="4.36354">
        <ele>289.483</ele>
        <time>2015-05-03T08:06:08.139Z</time>
      </trkpt>
      <trkpt lat="44.22924" lon="4.36337">
        <ele>289.809</ele>
        <time>2015-05-03T08:06:10.992Z</time>
      </trkpt>
      <trkpt lat="44.22916" lon="4.36321">
        <ele>290.266</ele>
        <time>2015-05-03T08:06:13.755Z</time>
      </trkpt>
      <trkpt lat="44.22908" lon="4.36308">
        <ele>290.668</ele>
        <time>2015-05-03T08:06:16.207Z</time>
      </trkpt>
      <trkpt lat="44.22899" lon="4.36295">
        <ele>290.879</ele>
        <time>2015-05-03T08:06:18.811Z</time>
      </trkpt>
      <trkpt lat="44.22899" lon="4.36295">
        <ele>290.995</ele>
        <time>2015-05-03T08:06:20.810Z</time>
      </trkpt>
      <trkpt lat="44.22899" lon="4.36295">
        <ele>291.005</ele>
        <time>2015-05-03T08:06:20.910Z</time>
      </trkpt>
      <trkpt lat="44.22885" lon="4.3627">
        <ele>290.879</ele>
        <time>2015-05-03T08:06:25.814Z</time>
      </trkpt>
      <trkpt lat="44.22885" lon="4.3627">
        <ele>290.726</ele>
        <time>2015-05-03T08:06:30.805Z</time>
      </trkpt>
      <trkpt lat="44.22885" lon="4.3627">
        <ele>290.631</ele>
        <time>2015-05-03T08:06:58.858Z</time>
      </trkpt>
      <trkpt lat="44.22867" lon="4.36254">
        <ele>290.574</ele>
        <time>2015-05-03T08:07:29.995Z</time>
      </trkpt>
      <trkpt lat="44.22859" lon="4.36245">
        <ele>290.675</ele>
        <time>2015-05-03T08:07:33.736Z</time>
      </trkpt>
      <trkpt lat="44.22851" lon="4.36234">
        <ele>291.218</ele>
        <time>2015-05-03T08:07:36.783Z</time>
      </trkpt>
      <trkpt lat="44.22845" lon="4.36225">
        <ele>292.28</ele>
        <time>2015-05-03T08:07:38.991Z</time>
      </trkpt>
      <trkpt lat="44.22839" lon="4.36215">
        <ele>293.443</ele>
        <time>2015-05-03T08:07:41.141Z</time>
      </trkpt>
      <trkpt lat="44.22829" lon="4.36201">
        <ele>294.075</ele>
        <time>2015-05-03T08:07:44.285Z</time>
      </trkpt>
      <trkpt lat="44.22824" lon="4.36191">
        <ele>294.016</ele>
        <time>2015-05-03T08:07:46.384Z</time>
      </trkpt>
      <trkpt lat="44.22815" lon="4.36181">
        <ele>293.681</ele>
        <time>2015-05-03T08:07:49.103Z</time>
      </trkpt>
      <trkpt lat="44.22805" lon="4.3617">
        <ele>293.262</ele>
        <time>2015-05-03T08:07:52.131Z</time>
      </trkpt>
      <trkpt lat="44.22795" lon="4.36161">
        <ele>292.562</ele>
        <time>2015-05-03T08:07:55.172Z</time>
      </trkpt>
      <trkpt lat="44.22785" lon="4.3615">
        <ele>291.715</ele>
        <time>2015-05-03T08:07:58.595Z</time>
      </trkpt>
      <trkpt lat="44.22777" lon="4.3614">
        <ele>291.358</ele>
        <time>2015-05-03T08:08:01.469Z</time>
      </trkpt>
      <trkpt lat="44.22775" lon="4.36127">
        <ele>291.932</ele>
        <time>2015-05-03T08:08:04.255Z</time>
      </trkpt>
      <trkpt lat="44.22772" lon="4.36112">
        <ele>293.282</ele>
        <time>2015-05-03T08:08:07.308Z</time>
      </trkpt>
      <trkpt lat="44.22767" lon="4.361">
        <ele>294.808</ele>
        <time>2015-05-03T08:08:10.371Z</time>
      </trkpt>
      <trkpt lat="44.22761" lon="4.36089">
        <ele>296.058</ele>
        <time>2015-05-03T08:08:13.005Z</time>
      </trkpt>
      <trkpt lat="44.22756" lon="4.36077">
        <ele>296.929</ele>
        <time>2015-05-03T08:08:15.571Z</time>
      </trkpt>
      <trkpt lat="44.2275" lon="4.36063">
        <ele>297.403</ele>
        <time>2015-05-03T08:08:18.844Z</time>
      </trkpt>
      <trkpt lat="44.22741" lon="4.36051">
        <ele>297.429</ele>
        <time>2015-05-03T08:08:22.104Z</time>
      </trkpt>
      <trkpt lat="44.22733" lon="4.3604">
        <ele>297.162</ele>
        <time>2015-05-03T08:08:25.513Z</time>
      </trkpt>
      <trkpt lat="44.22726" lon="4.36026">
        <ele>297.163</ele>
        <time>2015-05-03T08:08:30.156Z</time>
      </trkpt>
      <trkpt lat="44.22726" lon="4.36011">
        <ele>297.919</ele>
        <time>2015-05-03T08:08:34.063Z</time>
      </trkpt>
      <trkpt lat="44.22734" lon="4.36003">
        <ele>299.082</ele>
        <time>2015-05-03T08:08:37.644Z</time>
      </trkpt>
      <trkpt lat="44.22746" lon="4.36">
        <ele>300.077</ele>
        <time>2015-05-03T08:08:41.773Z</time>
      </trkpt>
      <trkpt lat="44.22757" lon="4.35994">
        <ele>300.635</ele>
        <time>2015-05-03T08:08:45.635Z</time>
      </trkpt>
      <trkpt lat="44.22761" lon="4.35982">
        <ele>300.802</ele>
        <time>2015-05-03T08:08:48.546Z</time>
      </trkpt>
      <trkpt lat="44.22762" lon="4.35968">
        <ele>301.029</ele>
        <time>2015-05-03T08:08:51.409Z</time>
      </trkpt>
      <trkpt lat="44.22764" lon="4.35956">
        <ele>301.532</ele>
        <time>2015-05-03T08:08:53.764Z</time>
      </trkpt>
      <trkpt lat="44.22763" lon="4.35942">
        <ele>301.768</ele>
        <time>2015-05-03T08:08:56.139Z</time>
      </trkpt>
      <trkpt lat="44.22761" lon="4.35925">
        <ele>301.176</ele>
        <time>2015-05-03T08:08:58.786Z</time>
      </trkpt>
      <trkpt lat="44.22755" lon="4.35905">
        <ele>299.995</ele>
        <time>2015-05-03T08:09:01.819Z</time>
      </trkpt>
      <trkpt lat="44.22748" lon="4.35894">
        <ele>298.997</ele>
        <time>2015-05-03T08:09:03.987Z</time>
      </trkpt>
      <trkpt lat="44.22736" lon="4.35879">
        <ele>298.382</ele>
        <time>2015-05-03T08:09:06.986Z</time>
      </trkpt>
      <trkpt lat="44.22728" lon="4.35861">
        <ele>297.793</ele>
        <time>2015-05-03T08:09:09.874Z</time>
      </trkpt>
      <trkpt lat="44.22724" lon="4.35849">
        <ele>297.022</ele>
        <time>2015-05-03T08:09:11.790Z</time>
      </trkpt>
      <trkpt lat="44.22718" lon="4.35828">
        <ele>296.211</ele>
        <time>2015-05-03T08:09:14.993Z</time>
      </trkpt>
      <trkpt lat="44.22711" lon="4.3581">
        <ele>295.872</ele>
        <time>2015-05-03T08:09:18.196Z</time>
      </trkpt>
      <trkpt lat="44.22708" lon="4.35793">
        <ele>296.274</ele>
        <time>2015-05-03T08:09:20.986Z</time>
      </trkpt>
      <trkpt lat="44.22704" lon="4.35777">
        <ele>296.909</ele>
        <time>2015-05-03T08:09:23.367Z</time>
      </trkpt>
      <trkpt lat="44.22705" lon="4.35764">
        <ele>297.035</ele>
        <time>2015-05-03T08:09:25.176Z</time>
      </trkpt>
      <trkpt lat="44.22711" lon="4.35744">
        <ele>296.52</ele>
        <time>2015-05-03T08:09:28.130Z</time>
      </trkpt>
      <trkpt lat="44.22716" lon="4.35721">
        <ele>296.113</ele>
        <time>2015-05-03T08:09:31.466Z</time>
      </trkpt>
      <trkpt lat="44.22714" lon="4.35697">
        <ele>296.394</ele>
        <time>2015-05-03T08:09:34.715Z</time>
      </trkpt>
      <trkpt lat="44.22708" lon="4.35685">
        <ele>296.978</ele>
        <time>2015-05-03T08:09:36.778Z</time>
      </trkpt>
      <trkpt lat="44.22698" lon="4.35667">
        <ele>297.259</ele>
        <time>2015-05-03T08:09:40.398Z</time>
      </trkpt>
      <trkpt lat="44.22689" lon="4.35653">
        <ele>296.99</ele>
        <time>2015-05-03T08:09:43.646Z</time>
      </trkpt>
      <trkpt lat="44.22686" lon="4.35641">
        <ele>296.34</ele>
        <time>2015-05-03T08:09:46.049Z</time>
      </trkpt>
      <trkpt lat="44.22683" lon="4.35628">
        <ele>295.743</ele>
        <time>2015-05-03T08:09:48.637Z</time>
      </trkpt>
      <trkpt lat="44.2268" lon="4.35615">
        <ele>295.586</ele>
        <time>2015-05-03T08:09:51.250Z</time>
      </trkpt>
      <trkpt lat="44.22678" lon="4.35601">
        <ele>295.925</ele>
        <time>2015-05-03T08:09:54.014Z</time>
      </trkpt>
      <trkpt lat="44.22676" lon="4.35586">
        <ele>296.882</ele>
        <time>2015-05-03T08:09:56.940Z</time>
      </trkpt>
      <trkpt lat="44.22674" lon="4.35571">
        <ele>298.501</ele>
        <time>2015-05-03T08:09:59.802Z</time>
      </trkpt>
      <trkpt lat="44.22673" lon="4.35556">
        <ele>300.088</ele>
        <time>2015-05-03T08:10:02.732Z</time>
      </trkpt>
      <trkpt lat="44.2267" lon="4.35542">
        <ele>301.004</ele>
        <time>2015-05-03T08:10:05.658Z</time>
      </trkpt>
      <trkpt lat="44.22664" lon="4.35528">
        <ele>301.321</ele>
        <time>2015-05-03T08:10:08.653Z</time>
      </trkpt>
      <trkpt lat="44.22659" lon="4.35518">
        <ele>301.163</ele>
        <time>2015-05-03T08:10:11.122Z</time>
      </trkpt>
      <trkpt lat="44.22653" lon="4.35505">
        <ele>300.772</ele>
        <time>2015-05-03T08:10:13.901Z</time>
      </trkpt>
      <trkpt lat="44.22649" lon="4.35491">
        <ele>300.487</ele>
        <time>2015-05-03T08:10:16.707Z</time>
      </trkpt>
      <trkpt lat="44.22643" lon="4.35475">
        <ele>300.397</ele>
        <time>2015-05-03T08:10:19.983Z</time>
      </trkpt>
      <trkpt lat="44.22637" lon="4.35462">
        <ele>300.434</ele>
        <time>2015-05-03T08:10:22.740Z</time>
      </trkpt>
      <trkpt lat="44.22631" lon="4.35449">
        <ele>300.5</ele>
        <time>2015-05-03T08:10:25.536Z</time>
      </trkpt>
      <trkpt lat="44.22624" lon="4.35439">
        <ele>300.447</ele>
        <time>2015-05-03T08:10:28.237Z</time>
      </trkpt>
      <trkpt lat="44.22616" lon="4.35427">
        <ele>300.217</ele>
        <time>2015-05-03T08:10:31.229Z</time>
      </trkpt>
      <trkpt lat="44.22611" lon="4.35413">
        <ele>300.1</ele>
        <time>2015-05-03T08:10:34.178Z</time>
      </trkpt>
      <trkpt lat="44.22605" lon="4.35401">
        <ele>300.478</ele>
        <time>2015-05-03T08:10:36.898Z</time>
      </trkpt>
      <trkpt lat="44.22596" lon="4.35392">
        <ele>301.216</ele>
        <time>2015-05-03T08:10:39.638Z</time>
      </trkpt>
      <trkpt lat="44.22586" lon="4.35383">
        <ele>301.649</ele>
        <time>2015-05-03T08:10:42.687Z</time>
      </trkpt>
      <trkpt lat="44.22577" lon="4.35369">
        <ele>301.437</ele>
        <time>2015-05-03T08:10:45.536Z</time>
      </trkpt>
      <trkpt lat="44.2257" lon="4.35353">
        <ele>300.755</ele>
        <time>2015-05-03T08:10:48.518Z</time>
      </trkpt>
      <trkpt lat="44.22564" lon="4.35342">
        <ele>299.905</ele>
        <time>2015-05-03T08:10:50.543Z</time>
      </trkpt>
      <trkpt lat="44.22556" lon="4.35325">
        <ele>299.31</ele>
        <time>2015-05-03T08:10:53.452Z</time>
      </trkpt>
      <trkpt lat="44.22551" lon="4.35315">
        <ele>299.359</ele>
        <time>2015-05-03T08:10:55.281Z</time>
      </trkpt>
      <trkpt lat="44.22546" lon="4.35304">
        <ele>299.897</ele>
        <time>2015-05-03T08:10:57.276Z</time>
      </trkpt>
      <trkpt lat="44.2254" lon="4.35292">
        <ele>300.15</ele>
        <time>2015-05-03T08:10:59.341Z</time>
      </trkpt>
      <trkpt lat="44.22535" lon="4.3528">
        <ele>299.654</ele>
        <time>2015-05-03T08:11:01.453Z</time>
      </trkpt>
      <trkpt lat="44.22533" lon="4.35267">
        <ele>299.193</ele>
        <time>2015-05-03T08:11:03.801Z</time>
      </trkpt>
      <trkpt lat="44.22534" lon="4.3525">
        <ele>299.486</ele>
        <time>2015-05-03T08:11:06.587Z</time>
      </trkpt>
      <trkpt lat="44.22537" lon="4.35235">
        <ele>300.133</ele>
        <time>2015-05-03T08:11:09.387Z</time>
      </trkpt>
      <trkpt lat="44.22541" lon="4.35221">
        <ele>300.598</ele>
        <time>2015-05-03T08:11:12.092Z</time>
      </trkpt>
      <trkpt lat="44.22544" lon="4.35205">
        <ele>301.047</ele>
        <time>2015-05-03T08:11:14.944Z</time>
      </trkpt>
      <trkpt lat="44.22546" lon="4.35188">
        <ele>301.968</ele>
        <time>2015-05-03T08:11:17.788Z</time>
      </trkpt>
      <trkpt lat="44.22548" lon="4.35173">
        <ele>303.28</ele>
        <time>2015-05-03T08:11:20.517Z</time>
      </trkpt>
      <trkpt lat="44.2255" lon="4.35158">
        <ele>304.307</ele>
        <time>2015-05-03T08:11:23.250Z</time>
      </trkpt>
      <trkpt lat="44.2255" lon="4.35142">
        <ele>304.766</ele>
        <time>2015-05-03T08:11:26.041Z</time>
      </trkpt>
      <trkpt lat="44.2255" lon="4.35126">
        <ele>304.855</ele>
        <time>2015-05-03T08:11:28.949Z</time>
      </trkpt>
      <trkpt lat="44.22554" lon="4.35112">
        <ele>304.592</ele>
        <time>2015-05-03T08:11:32.208Z</time>
      </trkpt>
      <trkpt lat="44.2256" lon="4.35102">
        <ele>304.017</ele>
        <time>2015-05-03T08:11:34.891Z</time>
      </trkpt>
      <trkpt lat="44.22566" lon="4.35088">
        <ele>303.533</ele>
        <time>2015-05-03T08:11:38.345Z</time>
      </trkpt>
      <trkpt lat="44.22572" lon="4.35077">
        <ele>303.602</ele>
        <time>2015-05-03T08:11:41.288Z</time>
      </trkpt>
      <trkpt lat="44.22578" lon="4.35064">
        <ele>304.177</ele>
        <time>2015-05-03T08:11:44.514Z</time>
      </trkpt>
      <trkpt lat="44.22585" lon="4.35056">
        <ele>304.704</ele>
        <time>2015-05-03T08:11:47.327Z</time>
      </trkpt>
      <trkpt lat="44.22595" lon="4.3505">
        <ele>304.772</ele>
        <time>2015-05-03T08:11:50.807Z</time>
      </trkpt>
      <trkpt lat="44.22595" lon="4.3505">
        <ele>304.563</ele>
        <time>2015-05-03T08:11:53.808Z</time>
      </trkpt>
      <trkpt lat="44.22595" lon="4.3505">
        <ele>304.371</ele>
        <time>2015-05-03T08:18:07.194Z</time>
      </trkpt>
      <trkpt lat="44.22608" lon="4.35068">
        <ele>304.261</ele>
        <time>2015-05-03T08:18:31.723Z</time>
      </trkpt>
      <trkpt lat="44.22612" lon="4.3508">
        <ele>303.893</ele>
        <time>2015-05-03T08:18:37.811Z</time>
      </trkpt>
      <trkpt lat="44.22612" lon="4.3508">
        <ele>303.074</ele>
        <time>2015-05-03T08:18:43.809Z</time>
      </trkpt>
      <trkpt lat="44.22612" lon="4.3508">
        <ele>302.358</ele>
        <time>2015-05-03T08:18:50.606Z</time>
      </trkpt>
      <trkpt lat="44.22604" lon="4.35065">
        <ele>302.245</ele>
        <time>2015-05-03T08:19:21.810Z</time>
      </trkpt>
      <trkpt lat="44.22604" lon="4.35065">
        <ele>302.355</ele>
        <time>2015-05-03T08:19:26.811Z</time>
      </trkpt>
      <trkpt lat="44.22604" lon="4.35065">
        <ele>302.257</ele>
        <time>2015-05-03T08:22:05.921Z</time>
      </trkpt>
      <trkpt lat="44.22581" lon="4.35066">
        <ele>302.052</ele>
        <time>2015-05-03T08:22:37.119Z</time>
      </trkpt>
      <trkpt lat="44.22572" lon="4.35074">
        <ele>301.955</ele>
        <time>2015-05-03T08:22:43.852Z</time>
      </trkpt>
      <trkpt lat="44.22566" lon="4.35084">
        <ele>302.06</ele>
        <time>2015-05-03T08:22:49.462Z</time>
      </trkpt>
      <trkpt lat="44.22557" lon="4.35091">
        <ele>302.055</ele>
        <time>2015-05-03T08:22:54.886Z</time>
      </trkpt>
      <trkpt lat="44.22547" lon="4.35091">
        <ele>301.714</ele>
        <time>2015-05-03T08:22:59.753Z</time>
      </trkpt>
      <trkpt lat="44.22537" lon="4.3509">
        <ele>301.355</ele>
        <time>2015-05-03T08:23:03.851Z</time>
      </trkpt>
      <trkpt lat="44.22526" lon="4.35092">
        <ele>301.267</ele>
        <time>2015-05-03T08:23:07.397Z</time>
      </trkpt>
      <trkpt lat="44.22516" lon="4.35094">
        <ele>301.507</ele>
        <time>2015-05-03T08:23:10.608Z</time>
      </trkpt>
      <trkpt lat="44.22505" lon="4.35094">
        <ele>302.067</ele>
        <time>2015-05-03T08:23:13.793Z</time>
      </trkpt>
      <trkpt lat="44.22494" lon="4.35096">
        <ele>302.599</ele>
        <time>2015-05-03T08:23:16.682Z</time>
      </trkpt>
      <trkpt lat="44.22483" lon="4.35097">
        <ele>302.863</ele>
        <time>2015-05-03T08:23:19.800Z</time>
      </trkpt>
      <trkpt lat="44.22471" lon="4.35099">
        <ele>302.849</ele>
        <time>2015-05-03T08:23:22.866Z</time>
      </trkpt>
      <trkpt lat="44.2246" lon="4.35098">
        <ele>302.649</ele>
        <time>2015-05-03T08:23:25.869Z</time>
      </trkpt>
      <trkpt lat="44.22448" lon="4.35099">
        <ele>303.024</ele>
        <time>2015-05-03T08:23:28.707Z</time>
      </trkpt>
      <trkpt lat="44.22437" lon="4.35101">
        <ele>304.496</ele>
        <time>2015-05-03T08:23:31.517Z</time>
      </trkpt>
      <trkpt lat="44.22426" lon="4.35102">
        <ele>306.345</ele>
        <time>2015-05-03T08:23:34.332Z</time>
      </trkpt>
      <trkpt lat="44.22413" lon="4.35102">
        <ele>307.675</ele>
        <time>2015-05-03T08:23:37.297Z</time>
      </trkpt>
      <trkpt lat="44.22401" lon="4.35102">
        <ele>308.435</ele>
        <time>2015-05-03T08:23:40.147Z</time>
      </trkpt>
      <trkpt lat="44.22389" lon="4.35103">
        <ele>308.954</ele>
        <time>2015-05-03T08:23:43.088Z</time>
      </trkpt>
      <trkpt lat="44.22375" lon="4.35103">
        <ele>309.432</ele>
        <time>2015-05-03T08:23:46.162Z</time>
      </trkpt>
      <trkpt lat="44.22366" lon="4.35104">
        <ele>309.617</ele>
        <time>2015-05-03T08:23:48.282Z</time>
      </trkpt>
      <trkpt lat="44.22355" lon="4.35105">
        <ele>309.332</ele>
        <time>2015-05-03T08:23:50.964Z</time>
      </trkpt>
      <trkpt lat="44.22342" lon="4.35105">
        <ele>308.764</ele>
        <time>2015-05-03T08:23:53.882Z</time>
      </trkpt>
      <trkpt lat="44.2233" lon="4.35107">
        <ele>308.182</ele>
        <time>2015-05-03T08:23:56.744Z</time>
      </trkpt>
      <trkpt lat="44.22319" lon="4.35109">
        <ele>307.746</ele>
        <time>2015-05-03T08:23:59.347Z</time>
      </trkpt>
      <trkpt lat="44.22308" lon="4.35114">
        <ele>307.542</ele>
        <time>2015-05-03T08:24:02.153Z</time>
      </trkpt>
      <trkpt lat="44.22297" lon="4.35119">
        <ele>307.528</ele>
        <time>2015-05-03T08:24:04.973Z</time>
      </trkpt>
      <trkpt lat="44.22286" lon="4.35124">
        <ele>307.74</ele>
        <time>2015-05-03T08:24:07.740Z</time>
      </trkpt>
      <trkpt lat="44.22275" lon="4.35119">
        <ele>308.281</ele>
        <time>2015-05-03T08:24:10.527Z</time>
      </trkpt>
      <trkpt lat="44.22263" lon="4.3511">
        <ele>308.987</ele>
        <time>2015-05-03T08:24:13.617Z</time>
      </trkpt>
      <trkpt lat="44.22255" lon="4.35104">
        <ele>309.52</ele>
        <time>2015-05-03T08:24:15.602Z</time>
      </trkpt>
      <trkpt lat="44.22244" lon="4.35094">
        <ele>309.755</ele>
        <time>2015-05-03T08:24:18.413Z</time>
      </trkpt>
      <trkpt lat="44.22234" lon="4.35083">
        <ele>309.74</ele>
        <time>2015-05-03T08:24:21.344Z</time>
      </trkpt>
      <trkpt lat="44.22223" lon="4.35072">
        <ele>309.644</ele>
        <time>2015-05-03T08:24:24.301Z</time>
      </trkpt>
      <trkpt lat="44.22213" lon="4.3506">
        <ele>309.503</ele>
        <time>2015-05-03T08:24:27.076Z</time>
      </trkpt>
      <trkpt lat="44.22202" lon="4.35054">
        <ele>309.088</ele>
        <time>2015-05-03T08:24:29.833Z</time>
      </trkpt>
      <trkpt lat="44.2219" lon="4.35055">
        <ele>308.383</ele>
        <time>2015-05-03T08:24:32.497Z</time>
      </trkpt>
      <trkpt lat="44.22179" lon="4.35057">
        <ele>307.8</ele>
        <time>2015-05-03T08:24:35.094Z</time>
      </trkpt>
      <trkpt lat="44.22167" lon="4.3506">
        <ele>307.557</ele>
        <time>2015-05-03T08:24:37.723Z</time>
      </trkpt>
      <trkpt lat="44.22153" lon="4.35062">
        <ele>307.596</ele>
        <time>2015-05-03T08:24:40.763Z</time>
      </trkpt>
      <trkpt lat="44.22144" lon="4.35064">
        <ele>307.952</ele>
        <time>2015-05-03T08:24:42.814Z</time>
      </trkpt>
      <trkpt lat="44.22133" lon="4.35066">
        <ele>308.542</ele>
        <time>2015-05-03T08:24:45.340Z</time>
      </trkpt>
      <trkpt lat="44.2212" lon="4.35071">
        <ele>308.94</ele>
        <time>2015-05-03T08:24:48.255Z</time>
      </trkpt>
      <trkpt lat="44.2211" lon="4.35073">
        <ele>308.912</ele>
        <time>2015-05-03T08:24:50.388Z</time>
      </trkpt>
      <trkpt lat="44.22096" lon="4.35068">
        <ele>308.662</ele>
        <time>2015-05-03T08:24:53.313Z</time>
      </trkpt>
      <trkpt lat="44.22082" lon="4.35058">
        <ele>308.556</ele>
        <time>2015-05-03T08:24:56.531Z</time>
      </trkpt>
      <trkpt lat="44.22069" lon="4.35049">
        <ele>308.833</ele>
        <time>2015-05-03T08:24:59.426Z</time>
      </trkpt>
      <trkpt lat="44.22059" lon="4.35046">
        <ele>309.37</ele>
        <time>2015-05-03T08:25:01.334Z</time>
      </trkpt>
      <trkpt lat="44.22046" lon="4.35044">
        <ele>309.786</ele>
        <time>2015-05-03T08:25:04.144Z</time>
      </trkpt>
      <trkpt lat="44.22032" lon="4.35041">
        <ele>309.679</ele>
        <time>2015-05-03T08:25:06.916Z</time>
      </trkpt>
      <trkpt lat="44.22019" lon="4.35038">
        <ele>309.033</ele>
        <time>2015-05-03T08:25:09.613Z</time>
      </trkpt>
      <trkpt lat="44.22009" lon="4.35035">
        <ele>308.492</ele>
        <time>2015-05-03T08:25:11.585Z</time>
      </trkpt>
      <trkpt lat="44.21995" lon="4.35031">
        <ele>308.568</ele>
        <time>2015-05-03T08:25:14.499Z</time>
      </trkpt>
      <trkpt lat="44.2198" lon="4.35026">
        <ele>308.997</ele>
        <time>2015-05-03T08:25:17.400Z</time>
      </trkpt>
      <trkpt lat="44.21967" lon="4.3502">
        <ele>309.357</ele>
        <time>2015-05-03T08:25:20.211Z</time>
      </trkpt>
      <trkpt lat="44.21954" lon="4.3501">
        <ele>309.456</ele>
        <time>2015-05-03T08:25:23.239Z</time>
      </trkpt>
      <trkpt lat="44.21947" lon="4.35001">
        <ele>309.309</ele>
        <time>2015-05-03T08:25:25.066Z</time>
      </trkpt>
      <trkpt lat="44.2194" lon="4.34987">
        <ele>309.175</ele>
        <time>2015-05-03T08:25:27.638Z</time>
      </trkpt>
      <trkpt lat="44.21931" lon="4.34974">
        <ele>309.568</ele>
        <time>2015-05-03T08:25:30.390Z</time>
      </trkpt>
      <trkpt lat="44.21919" lon="4.34965">
        <ele>310.634</ele>
        <time>2015-05-03T08:25:33.190Z</time>
      </trkpt>
      <trkpt lat="44.21909" lon="4.34962">
        <ele>311.763</ele>
        <time>2015-05-03T08:25:35.515Z</time>
      </trkpt>
      <trkpt lat="44.21898" lon="4.34964">
        <ele>312.383</ele>
        <time>2015-05-03T08:25:38.008Z</time>
      </trkpt>
      <trkpt lat="44.21887" lon="4.3497">
        <ele>312.537</ele>
        <time>2015-05-03T08:25:40.795Z</time>
      </trkpt>
      <trkpt lat="44.21879" lon="4.34978">
        <ele>312.47</ele>
        <time>2015-05-03T08:25:43.068Z</time>
      </trkpt>
      <trkpt lat="44.21868" lon="4.34992">
        <ele>312.369</ele>
        <time>2015-05-03T08:25:46.534Z</time>
      </trkpt>
      <trkpt lat="44.21859" lon="4.35002">
        <ele>312.414</ele>
        <time>2015-05-03T08:25:48.813Z</time>
      </trkpt>
      <trkpt lat="44.21851" lon="4.35017">
        <ele>312.659</ele>
        <time>2015-05-03T08:25:51.681Z</time>
      </trkpt>
      <trkpt lat="44.21839" lon="4.35029">
        <ele>312.899</ele>
        <time>2015-05-03T08:25:54.698Z</time>
      </trkpt>
      <trkpt lat="44.21831" lon="4.35039">
        <ele>312.714</ele>
        <time>2015-05-03T08:25:57.174Z</time>
      </trkpt>
      <trkpt lat="44.21817" lon="4.35055">
        <ele>312.035</ele>
        <time>2015-05-03T08:26:00.985Z</time>
      </trkpt>
      <trkpt lat="44.21808" lon="4.35065">
        <ele>311.339</ele>
        <time>2015-05-03T08:26:03.182Z</time>
      </trkpt>
      <trkpt lat="44.21793" lon="4.3508">
        <ele>310.993</ele>
        <time>2015-05-03T08:26:06.416Z</time>
      </trkpt>
      <trkpt lat="44.21777" lon="4.35096">
        <ele>310.903</ele>
        <time>2015-05-03T08:26:09.539Z</time>
      </trkpt>
      <trkpt lat="44.21759" lon="4.35115">
        <ele>310.909</ele>
        <time>2015-05-03T08:26:12.407Z</time>
      </trkpt>
      <trkpt lat="44.2174" lon="4.35135">
        <ele>310.614</ele>
        <time>2015-05-03T08:26:15.255Z</time>
      </trkpt>
      <trkpt lat="44.21726" lon="4.35149">
        <ele>309.613</ele>
        <time>2015-05-03T08:26:17.288Z</time>
      </trkpt>
      <trkpt lat="44.21715" lon="4.3516">
        <ele>308.164</ele>
        <time>2015-05-03T08:26:19.161Z</time>
      </trkpt>
      <trkpt lat="44.21707" lon="4.35168">
        <ele>306.456</ele>
        <time>2015-05-03T08:26:20.961Z</time>
      </trkpt>
      <trkpt lat="44.217" lon="4.35176">
        <ele>304.531</ele>
        <time>2015-05-03T08:26:22.742Z</time>
      </trkpt>
      <trkpt lat="44.21692" lon="4.35182">
        <ele>303.051</ele>
        <time>2015-05-03T08:26:24.583Z</time>
      </trkpt>
      <trkpt lat="44.21678" lon="4.35181">
        <ele>302.27</ele>
        <time>2015-05-03T08:26:27.284Z</time>
      </trkpt>
      <trkpt lat="44.21668" lon="4.3518">
        <ele>301.917</ele>
        <time>2015-05-03T08:26:29.491Z</time>
      </trkpt>
      <trkpt lat="44.21657" lon="4.35172">
        <ele>302.034</ele>
        <time>2015-05-03T08:26:32.867Z</time>
      </trkpt>
      <trkpt lat="44.21648" lon="4.3516">
        <ele>302.464</ele>
        <time>2015-05-03T08:26:36.715Z</time>
      </trkpt>
      <trkpt lat="44.21637" lon="4.35162">
        <ele>303.196</ele>
        <time>2015-05-03T08:26:39.978Z</time>
      </trkpt>
      <trkpt lat="44.21627" lon="4.35168">
        <ele>304.444</ele>
        <time>2015-05-03T08:26:44.304Z</time>
      </trkpt>
      <trkpt lat="44.21617" lon="4.35167">
        <ele>305.759</ele>
        <time>2015-05-03T08:26:49.259Z</time>
      </trkpt>
      <trkpt lat="44.21611" lon="4.35155">
        <ele>306.521</ele>
        <time>2015-05-03T08:26:53.808Z</time>
      </trkpt>
      <trkpt lat="44.21611" lon="4.35155">
        <ele>306.667</ele>
        <time>2015-05-03T08:26:57.810Z</time>
      </trkpt>
      <trkpt lat="44.21611" lon="4.35155">
        <ele>306.475</ele>
        <time>2015-05-03T08:26:57.810Z</time>
      </trkpt>
      <trkpt lat="44.21611" lon="4.35155">
        <ele>306.257</ele>
        <time>2015-05-03T08:27:23.865Z</time>
      </trkpt>
      <trkpt lat="44.21604" lon="4.35131">
        <ele>306.141</ele>
        <time>2015-05-03T08:27:34.725Z</time>
      </trkpt>
      <trkpt lat="44.216" lon="4.35118">
        <ele>306.105</ele>
        <time>2015-05-03T08:27:37.648Z</time>
      </trkpt>
      <trkpt lat="44.21595" lon="4.35101">
        <ele>306.107</ele>
        <time>2015-05-03T08:27:41.233Z</time>
      </trkpt>
      <trkpt lat="44.21595" lon="4.35088">
        <ele>306.126</ele>
        <time>2015-05-03T08:27:43.914Z</time>
      </trkpt>
      <trkpt lat="44.21594" lon="4.35074">
        <ele>305.518</ele>
        <time>2015-05-03T08:27:46.822Z</time>
      </trkpt>
      <trkpt lat="44.21592" lon="4.35061">
        <ele>303.901</ele>
        <time>2015-05-03T08:27:49.735Z</time>
      </trkpt>
      <trkpt lat="44.2159" lon="4.35047">
        <ele>302.919</ele>
        <time>2015-05-03T08:27:53.115Z</time>
      </trkpt>
      <trkpt lat="44.21586" lon="4.35035">
        <ele>303.908</ele>
        <time>2015-05-03T08:27:56.381Z</time>
      </trkpt>
      <trkpt lat="44.21582" lon="4.35021">
        <ele>305.616</ele>
        <time>2015-05-03T08:27:59.893Z</time>
      </trkpt>
      <trkpt lat="44.21579" lon="4.35007">
        <ele>306.953</ele>
        <time>2015-05-03T08:28:03.366Z</time>
      </trkpt>
      <trkpt lat="44.21575" lon="4.34994">
        <ele>308.597</ele>
        <time>2015-05-03T08:28:06.612Z</time>
      </trkpt>
      <trkpt lat="44.2157" lon="4.34982">
        <ele>311.044</ele>
        <time>2015-05-03T08:28:09.478Z</time>
      </trkpt>
      <trkpt lat="44.21565" lon="4.34972">
        <ele>313.612</ele>
        <time>2015-05-03T08:28:12.239Z</time>
      </trkpt>
      <trkpt lat="44.21558" lon="4.34963">
        <ele>315.372</ele>
        <time>2015-05-03T08:28:15.107Z</time>
      </trkpt>
      <trkpt lat="44.21556" lon="4.34948">
        <ele>316.119</ele>
        <time>2015-05-03T08:28:18.710Z</time>
      </trkpt>
      <trkpt lat="44.21555" lon="4.34934">
        <ele>316.213</ele>
        <time>2015-05-03T08:28:22.177Z</time>
      </trkpt>
      <trkpt lat="44.21551" lon="4.34921">
        <ele>315.856</ele>
        <time>2015-05-03T08:28:25.190Z</time>
      </trkpt>
      <trkpt lat="44.21549" lon="4.34907">
        <ele>315.038</ele>
        <time>2015-05-03T08:28:28.540Z</time>
      </trkpt>
      <trkpt lat="44.21544" lon="4.34893">
        <ele>314.204</ele>
        <time>2015-05-03T08:28:31.782Z</time>
      </trkpt>
      <trkpt lat="44.21542" lon="4.34877">
        <ele>314.127</ele>
        <time>2015-05-03T08:28:35.131Z</time>
      </trkpt>
      <trkpt lat="44.21539" lon="4.34863">
        <ele>314.823</ele>
        <time>2015-05-03T08:28:38.339Z</time>
      </trkpt>
      <trkpt lat="44.21537" lon="4.34848">
        <ele>315.349</ele>
        <time>2015-05-03T08:28:41.735Z</time>
      </trkpt>
      <trkpt lat="44.21536" lon="4.34834">
        <ele>315.082</ele>
        <time>2015-05-03T08:28:44.769Z</time>
      </trkpt>
      <trkpt lat="44.21532" lon="4.34822">
        <ele>314.349</ele>
        <time>2015-05-03T08:28:47.682Z</time>
      </trkpt>
      <trkpt lat="44.21528" lon="4.3481">
        <ele>313.767</ele>
        <time>2015-05-03T08:28:50.757Z</time>
      </trkpt>
      <trkpt lat="44.21522" lon="4.34798">
        <ele>313.759</ele>
        <time>2015-05-03T08:28:54.116Z</time>
      </trkpt>
      <trkpt lat="44.21519" lon="4.34784">
        <ele>314.904</ele>
        <time>2015-05-03T08:28:57.430Z</time>
      </trkpt>
      <trkpt lat="44.21517" lon="4.3477">
        <ele>317.225</ele>
        <time>2015-05-03T08:29:00.632Z</time>
      </trkpt>
      <trkpt lat="44.21514" lon="4.34754">
        <ele>319.547</ele>
        <time>2015-05-03T08:29:04.194Z</time>
      </trkpt>
      <trkpt lat="44.21511" lon="4.34736">
        <ele>320.065</ele>
        <time>2015-05-03T08:29:07.710Z</time>
      </trkpt>
      <trkpt lat="44.21508" lon="4.34719">
        <ele>318.388</ele>
        <time>2015-05-03T08:29:10.990Z</time>
      </trkpt>
      <trkpt lat="44.21504" lon="4.34707">
        <ele>316.2</ele>
        <time>2015-05-03T08:29:13.318Z</time>
      </trkpt>
      <trkpt lat="44.21494" lon="4.34693">
        <ele>315.022</ele>
        <time>2015-05-03T08:29:16.575Z</time>
      </trkpt>
      <trkpt lat="44.21487" lon="4.34677">
        <ele>314.903</ele>
        <time>2015-05-03T08:29:19.805Z</time>
      </trkpt>
      <trkpt lat="44.21476" lon="4.34668">
        <ele>315.546</ele>
        <time>2015-05-03T08:29:22.821Z</time>
      </trkpt>
      <trkpt lat="44.2147" lon="4.34656">
        <ele>316.595</ele>
        <time>2015-05-03T08:29:25.493Z</time>
      </trkpt>
      <trkpt lat="44.21468" lon="4.34642">
        <ele>317.427</ele>
        <time>2015-05-03T08:29:28.033Z</time>
      </trkpt>
      <trkpt lat="44.21462" lon="4.3463">
        <ele>317.227</ele>
        <time>2015-05-03T08:29:30.847Z</time>
      </trkpt>
      <trkpt lat="44.2146" lon="4.34612">
        <ele>315.935</ele>
        <time>2015-05-03T08:29:34.516Z</time>
      </trkpt>
      <trkpt lat="44.21451" lon="4.34604">
        <ele>314.466</ele>
        <time>2015-05-03T08:29:38.041Z</time>
      </trkpt>
      <trkpt lat="44.21442" lon="4.34608">
        <ele>313.454</ele>
        <time>2015-05-03T08:29:42.328Z</time>
      </trkpt>
      <trkpt lat="44.21433" lon="4.34614">
        <ele>312.936</ele>
        <time>2015-05-03T08:29:47.297Z</time>
      </trkpt>
      <trkpt lat="44.21426" lon="4.34622">
        <ele>313.056</ele>
        <time>2015-05-03T08:29:51.134Z</time>
      </trkpt>
      <trkpt lat="44.21417" lon="4.34625">
        <ele>313.758</ele>
        <time>2015-05-03T08:29:54.349Z</time>
      </trkpt>
      <trkpt lat="44.21409" lon="4.34635">
        <ele>314.28</ele>
        <time>2015-05-03T08:29:58.276Z</time>
      </trkpt>
      <trkpt lat="44.21402" lon="4.34648">
        <ele>314.058</ele>
        <time>2015-05-03T08:30:02.053Z</time>
      </trkpt>
      <trkpt lat="44.21394" lon="4.34658">
        <ele>313.958</ele>
        <time>2015-05-03T08:30:05.847Z</time>
      </trkpt>
      <trkpt lat="44.21386" lon="4.34667">
        <ele>314.756</ele>
        <time>2015-05-03T08:30:08.998Z</time>
      </trkpt>
      <trkpt lat="44.21379" lon="4.34673">
        <ele>315.691</ele>
        <time>2015-05-03T08:30:11.966Z</time>
      </trkpt>
      <trkpt lat="44.21372" lon="4.34686">
        <ele>315.926</ele>
        <time>2015-05-03T08:30:15.619Z</time>
      </trkpt>
      <trkpt lat="44.21367" lon="4.34699">
        <ele>316.243</ele>
        <time>2015-05-03T08:30:19.361Z</time>
      </trkpt>
      <trkpt lat="44.21362" lon="4.34712">
        <ele>317.412</ele>
        <time>2015-05-03T08:30:23.078Z</time>
      </trkpt>
      <trkpt lat="44.21354" lon="4.3472">
        <ele>318.736</ele>
        <time>2015-05-03T08:30:26.872Z</time>
      </trkpt>
      <trkpt lat="44.21344" lon="4.34716">
        <ele>319.306</ele>
        <time>2015-05-03T08:30:31.211Z</time>
      </trkpt>
      <trkpt lat="44.21336" lon="4.3471">
        <ele>319.28</ele>
        <time>2015-05-03T08:30:35.118Z</time>
      </trkpt>
      <trkpt lat="44.21327" lon="4.34704">
        <ele>319.712</ele>
        <time>2015-05-03T08:30:38.437Z</time>
      </trkpt>
      <trkpt lat="44.21317" lon="4.34694">
        <ele>321.13</ele>
        <time>2015-05-03T08:30:42.047Z</time>
      </trkpt>
      <trkpt lat="44.21309" lon="4.34686">
        <ele>321.802</ele>
        <time>2015-05-03T08:30:45.167Z</time>
      </trkpt>
      <trkpt lat="44.21303" lon="4.34697">
        <ele>320.403</ele>
        <time>2015-05-03T08:30:48.449Z</time>
      </trkpt>
      <trkpt lat="44.21306" lon="4.34711">
        <ele>318.391</ele>
        <time>2015-05-03T08:30:53.733Z</time>
      </trkpt>
      <trkpt lat="44.21305" lon="4.34726">
        <ele>317.983</ele>
        <time>2015-05-03T08:30:59.453Z</time>
      </trkpt>
      <trkpt lat="44.21303" lon="4.3474">
        <ele>319.46</ele>
        <time>2015-05-03T08:31:03.851Z</time>
      </trkpt>
      <trkpt lat="44.21298" lon="4.34751">
        <ele>320.566</ele>
        <time>2015-05-03T08:31:07.826Z</time>
      </trkpt>
      <trkpt lat="44.2129" lon="4.3476">
        <ele>319.584</ele>
        <time>2015-05-03T08:31:12.507Z</time>
      </trkpt>
      <trkpt lat="44.2128" lon="4.34767">
        <ele>317.709</ele>
        <time>2015-05-03T08:31:17.779Z</time>
      </trkpt>
      <trkpt lat="44.21272" lon="4.34776">
        <ele>317.35</ele>
        <time>2015-05-03T08:31:22.295Z</time>
      </trkpt>
      <trkpt lat="44.21263" lon="4.34782">
        <ele>319.205</ele>
        <time>2015-05-03T08:31:27.091Z</time>
      </trkpt>
      <trkpt lat="44.21253" lon="4.34783">
        <ele>321.991</ele>
        <time>2015-05-03T08:31:32.250Z</time>
      </trkpt>
      <trkpt lat="44.21243" lon="4.34788">
        <ele>324.422</ele>
        <time>2015-05-03T08:31:37.521Z</time>
      </trkpt>
      <trkpt lat="44.21234" lon="4.34793">
        <ele>326.2</ele>
        <time>2015-05-03T08:31:41.744Z</time>
      </trkpt>
      <trkpt lat="44.21225" lon="4.34797">
        <ele>327.213</ele>
        <time>2015-05-03T08:31:45.935Z</time>
      </trkpt>
      <trkpt lat="44.21215" lon="4.34795">
        <ele>327.661</ele>
        <time>2015-05-03T08:31:50.302Z</time>
      </trkpt>
      <trkpt lat="44.21205" lon="4.34792">
        <ele>327.762</ele>
        <time>2015-05-03T08:31:54.664Z</time>
      </trkpt>
      <trkpt lat="44.21195" lon="4.34791">
        <ele>327.697</ele>
        <time>2015-05-03T08:31:59.243Z</time>
      </trkpt>
      <trkpt lat="44.21187" lon="4.34798">
        <ele>327.597</ele>
        <time>2015-05-03T08:32:03.394Z</time>
      </trkpt>
      <trkpt lat="44.21177" lon="4.34805">
        <ele>327.284</ele>
        <time>2015-05-03T08:32:08.231Z</time>
      </trkpt>
      <trkpt lat="44.21173" lon="4.34817">
        <ele>326.301</ele>
        <time>2015-05-03T08:32:12.198Z</time>
      </trkpt>
      <trkpt lat="44.21169" lon="4.3483">
        <ele>324.586</ele>
        <time>2015-05-03T08:32:15.765Z</time>
      </trkpt>
      <trkpt lat="44.21171" lon="4.34846">
        <ele>322.848</ele>
        <time>2015-05-03T08:32:19.515Z</time>
      </trkpt>
      <trkpt lat="44.21171" lon="4.34861">
        <ele>322.028</ele>
        <time>2015-05-03T08:32:22.981Z</time>
      </trkpt>
      <trkpt lat="44.21174" lon="4.3488">
        <ele>322.306</ele>
        <time>2015-05-03T08:32:27.266Z</time>
      </trkpt>
      <trkpt lat="44.21168" lon="4.34896">
        <ele>322.782</ele>
        <time>2015-05-03T08:32:30.849Z</time>
      </trkpt>
      <trkpt lat="44.21158" lon="4.34911">
        <ele>322.723</ele>
        <time>2015-05-03T08:32:34.650Z</time>
      </trkpt>
      <trkpt lat="44.2115" lon="4.34922">
        <ele>322.153</ele>
        <time>2015-05-03T08:32:38.119Z</time>
      </trkpt>
      <trkpt lat="44.21155" lon="4.34932">
        <ele>321.35</ele>
        <time>2015-05-03T08:32:41.273Z</time>
      </trkpt>
      <trkpt lat="44.21164" lon="4.34938">
        <ele>320.235</ele>
        <time>2015-05-03T08:32:45.066Z</time>
      </trkpt>
      <trkpt lat="44.21172" lon="4.34947">
        <ele>318.654</ele>
        <time>2015-05-03T08:32:48.739Z</time>
      </trkpt>
      <trkpt lat="44.21178" lon="4.34959">
        <ele>317.1</ele>
        <time>2015-05-03T08:32:52.461Z</time>
      </trkpt>
      <trkpt lat="44.21183" lon="4.3497">
        <ele>315.936</ele>
        <time>2015-05-03T08:32:55.721Z</time>
      </trkpt>
      <trkpt lat="44.21189" lon="4.34982">
        <ele>314.75</ele>
        <time>2015-05-03T08:32:59.440Z</time>
      </trkpt>
      <trkpt lat="44.21193" lon="4.34997">
        <ele>313.707</ele>
        <time>2015-05-03T08:33:03.437Z</time>
      </trkpt>
      <trkpt lat="44.21195" lon="4.3501">
        <ele>313.239</ele>
        <time>2015-05-03T08:33:06.849Z</time>
      </trkpt>
      <trkpt lat="44.2119" lon="4.35023">
        <ele>313.128</ele>
        <time>2015-05-03T08:33:10.977Z</time>
      </trkpt>
      <trkpt lat="44.21188" lon="4.35038">
        <ele>313.01</ele>
        <time>2015-05-03T08:33:15.280Z</time>
      </trkpt>
      <trkpt lat="44.21185" lon="4.35051">
        <ele>312.715</ele>
        <time>2015-05-03T08:33:18.791Z</time>
      </trkpt>
      <trkpt lat="44.21181" lon="4.35064">
        <ele>312.363</ele>
        <time>2015-05-03T08:33:21.924Z</time>
      </trkpt>
      <trkpt lat="44.21183" lon="4.35077">
        <ele>312.167</ele>
        <time>2015-05-03T08:33:24.908Z</time>
      </trkpt>
      <trkpt lat="44.21177" lon="4.3509">
        <ele>312.222</ele>
        <time>2015-05-03T08:33:28.272Z</time>
      </trkpt>
      <trkpt lat="44.2117" lon="4.35098">
        <ele>312.335</ele>
        <time>2015-05-03T08:33:31.033Z</time>
      </trkpt>
      <trkpt lat="44.21163" lon="4.35108">
        <ele>311.972</ele>
        <time>2015-05-03T08:33:34.096Z</time>
      </trkpt>
      <trkpt lat="44.21155" lon="4.35121">
        <ele>310.881</ele>
        <time>2015-05-03T08:33:37.970Z</time>
      </trkpt>
      <trkpt lat="44.21152" lon="4.35136">
        <ele>309.588</ele>
        <time>2015-05-03T08:33:41.507Z</time>
      </trkpt>
      <trkpt lat="44.21147" lon="4.35151">
        <ele>308.687</ele>
        <time>2015-05-03T08:33:44.934Z</time>
      </trkpt>
      <trkpt lat="44.21144" lon="4.35165">
        <ele>308.31</ele>
        <time>2015-05-03T08:33:48.071Z</time>
      </trkpt>
      <trkpt lat="44.21145" lon="4.3518">
        <ele>308.137</ele>
        <time>2015-05-03T08:33:51.209Z</time>
      </trkpt>
      <trkpt lat="44.21145" lon="4.35195">
        <ele>307.6</ele>
        <time>2015-05-03T08:33:54.732Z</time>
      </trkpt>
      <trkpt lat="44.21144" lon="4.3521">
        <ele>306.539</ele>
        <time>2015-05-03T08:33:58.305Z</time>
      </trkpt>
      <trkpt lat="44.21148" lon="4.35225">
        <ele>305.579</ele>
        <time>2015-05-03T08:34:02.483Z</time>
      </trkpt>
      <trkpt lat="44.21152" lon="4.35239">
        <ele>305.21</ele>
        <time>2015-05-03T08:34:06.327Z</time>
      </trkpt>
      <trkpt lat="44.21145" lon="4.35249">
        <ele>305.109</ele>
        <time>2015-05-03T08:34:10.444Z</time>
      </trkpt>
      <trkpt lat="44.21136" lon="4.35258">
        <ele>304.907</ele>
        <time>2015-05-03T08:34:14.972Z</time>
      </trkpt>
      <trkpt lat="44.2113" lon="4.35269">
        <ele>304.718</ele>
        <time>2015-05-03T08:34:19.570Z</time>
      </trkpt>
      <trkpt lat="44.21132" lon="4.35283">
        <ele>304.798</ele>
        <time>2015-05-03T08:34:24.703Z</time>
      </trkpt>
      <trkpt lat="44.21135" lon="4.35298">
        <ele>305.275</ele>
        <time>2015-05-03T08:34:29.493Z</time>
      </trkpt>
      <trkpt lat="44.21139" lon="4.35312">
        <ele>306.04</ele>
        <time>2015-05-03T08:34:33.353Z</time>
      </trkpt>
      <trkpt lat="44.21145" lon="4.35322">
        <ele>306.52</ele>
        <time>2015-05-03T08:34:36.334Z</time>
      </trkpt>
      <trkpt lat="44.21152" lon="4.35331">
        <ele>306.009</ele>
        <time>2015-05-03T08:34:39.384Z</time>
      </trkpt>
      <trkpt lat="44.21159" lon="4.35342">
        <ele>304.625</ele>
        <time>2015-05-03T08:34:42.502Z</time>
      </trkpt>
      <trkpt lat="44.21164" lon="4.35357">
        <ele>303.289</ele>
        <time>2015-05-03T08:34:45.813Z</time>
      </trkpt>
      <trkpt lat="44.21168" lon="4.35369">
        <ele>302.598</ele>
        <time>2015-05-03T08:34:48.648Z</time>
      </trkpt>
      <trkpt lat="44.21168" lon="4.35387">
        <ele>302.39</ele>
        <time>2015-05-03T08:34:52.163Z</time>
      </trkpt>
      <trkpt lat="44.21168" lon="4.35402">
        <ele>302.226</ele>
        <time>2015-05-03T08:34:54.818Z</time>
      </trkpt>
      <trkpt lat="44.21172" lon="4.35415">
        <ele>301.86</ele>
        <time>2015-05-03T08:34:57.269Z</time>
      </trkpt>
      <trkpt lat="44.21178" lon="4.35432">
        <ele>301.474</ele>
        <time>2015-05-03T08:35:00.501Z</time>
      </trkpt>
      <trkpt lat="44.21185" lon="4.35448">
        <ele>301.015</ele>
        <time>2015-05-03T08:35:03.460Z</time>
      </trkpt>
      <trkpt lat="44.21193" lon="4.35457">
        <ele>300.13</ele>
        <time>2015-05-03T08:35:05.597Z</time>
      </trkpt>
      <trkpt lat="44.21201" lon="4.35464">
        <ele>299.051</ele>
        <time>2015-05-03T08:35:07.853Z</time>
      </trkpt>
      <trkpt lat="44.21208" lon="4.35479">
        <ele>298.437</ele>
        <time>2015-05-03T08:35:10.653Z</time>
      </trkpt>
      <trkpt lat="44.2121" lon="4.35495">
        <ele>298.718</ele>
        <time>2015-05-03T08:35:13.473Z</time>
      </trkpt>
      <trkpt lat="44.21213" lon="4.35513">
        <ele>299.685</ele>
        <time>2015-05-03T08:35:16.570Z</time>
      </trkpt>
      <trkpt lat="44.21215" lon="4.35531">
        <ele>300.412</ele>
        <time>2015-05-03T08:35:19.752Z</time>
      </trkpt>
      <trkpt lat="44.21215" lon="4.35545">
        <ele>300.336</ele>
        <time>2015-05-03T08:35:22.539Z</time>
      </trkpt>
      <trkpt lat="44.21218" lon="4.35559">
        <ele>299.883</ele>
        <time>2015-05-03T08:35:25.802Z</time>
      </trkpt>
      <trkpt lat="44.21227" lon="4.35568">
        <ele>299.608</ele>
        <time>2015-05-03T08:35:29.387Z</time>
      </trkpt>
      <trkpt lat="44.21236" lon="4.35577">
        <ele>299.677</ele>
        <time>2015-05-03T08:35:33.451Z</time>
      </trkpt>
      <trkpt lat="44.21245" lon="4.35581">
        <ele>299.907</ele>
        <time>2015-05-03T08:35:37.168Z</time>
      </trkpt>
      <trkpt lat="44.21256" lon="4.35581">
        <ele>300.112</ele>
        <time>2015-05-03T08:35:41.229Z</time>
      </trkpt>
      <trkpt lat="44.21266" lon="4.35581">
        <ele>300.411</ele>
        <time>2015-05-03T08:35:44.872Z</time>
      </trkpt>
      <trkpt lat="44.21278" lon="4.35582">
        <ele>300.824</ele>
        <time>2015-05-03T08:35:48.735Z</time>
      </trkpt>
      <trkpt lat="44.21287" lon="4.35584">
        <ele>301.123</ele>
        <time>2015-05-03T08:35:52.048Z</time>
      </trkpt>
      <trkpt lat="44.21299" lon="4.35586">
        <ele>301.232</ele>
        <time>2015-05-03T08:35:56.007Z</time>
      </trkpt>
      <trkpt lat="44.21308" lon="4.35593">
        <ele>301.653</ele>
        <time>2015-05-03T08:35:59.642Z</time>
      </trkpt>
      <trkpt lat="44.21317" lon="4.356">
        <ele>302.719</ele>
        <time>2015-05-03T08:36:03.028Z</time>
      </trkpt>
      <trkpt lat="44.21328" lon="4.35606">
        <ele>303.629</ele>
        <time>2015-05-03T08:36:06.437Z</time>
      </trkpt>
      <trkpt lat="44.21339" lon="4.35612">
        <ele>303.65</ele>
        <time>2015-05-03T08:36:09.571Z</time>
      </trkpt>
      <trkpt lat="44.21352" lon="4.35621">
        <ele>303.278</ele>
        <time>2015-05-03T08:36:13.141Z</time>
      </trkpt>
      <trkpt lat="44.21364" lon="4.35626">
        <ele>303.107</ele>
        <time>2015-05-03T08:36:16.091Z</time>
      </trkpt>
      <trkpt lat="44.21374" lon="4.35627">
        <ele>303.009</ele>
        <time>2015-05-03T08:36:18.338Z</time>
      </trkpt>
      <trkpt lat="44.2139" lon="4.35625">
        <ele>302.723</ele>
        <time>2015-05-03T08:36:21.675Z</time>
      </trkpt>
      <trkpt lat="44.21405" lon="4.35626">
        <ele>302.496</ele>
        <time>2015-05-03T08:36:24.692Z</time>
      </trkpt>
      <trkpt lat="44.21415" lon="4.35636">
        <ele>302.591</ele>
        <time>2015-05-03T08:36:27.709Z</time>
      </trkpt>
      <trkpt lat="44.21415" lon="4.35653">
        <ele>302.826</ele>
        <time>2015-05-03T08:36:31.171Z</time>
      </trkpt>
      <trkpt lat="44.21407" lon="4.35671">
        <ele>302.908</ele>
        <time>2015-05-03T08:36:34.939Z</time>
      </trkpt>
      <trkpt lat="44.21399" lon="4.35683">
        <ele>302.786</ele>
        <time>2015-05-03T08:36:37.454Z</time>
      </trkpt>
      <trkpt lat="44.21386" lon="4.35701">
        <ele>302.611</ele>
        <time>2015-05-03T08:36:40.657Z</time>
      </trkpt>
      <trkpt lat="44.21377" lon="4.35712">
        <ele>302.362</ele>
        <time>2015-05-03T08:36:42.559Z</time>
      </trkpt>
      <trkpt lat="44.21363" lon="4.35727">
        <ele>301.923</ele>
        <time>2015-05-03T08:36:45.420Z</time>
      </trkpt>
      <trkpt lat="44.21348" lon="4.35741">
        <ele>301.454</ele>
        <time>2015-05-03T08:36:48.271Z</time>
      </trkpt>
      <trkpt lat="44.21333" lon="4.35755">
        <ele>301.084</ele>
        <time>2015-05-03T08:36:51.047Z</time>
      </trkpt>
      <trkpt lat="44.21318" lon="4.3577">
        <ele>300.763</ele>
        <time>2015-05-03T08:36:53.934Z</time>
      </trkpt>
      <trkpt lat="44.21307" lon="4.3578">
        <ele>300.668</ele>
        <time>2015-05-03T08:36:55.933Z</time>
      </trkpt>
      <trkpt lat="44.21298" lon="4.35791">
        <ele>300.923</ele>
        <time>2015-05-03T08:36:57.781Z</time>
      </trkpt>
      <trkpt lat="44.21288" lon="4.35801">
        <ele>301.088</ele>
        <time>2015-05-03T08:36:59.710Z</time>
      </trkpt>
      <trkpt lat="44.2128" lon="4.35812">
        <ele>300.807</ele>
        <time>2015-05-03T08:37:01.515Z</time>
      </trkpt>
      <trkpt lat="44.21271" lon="4.35823">
        <ele>300.497</ele>
        <time>2015-05-03T08:37:03.430Z</time>
      </trkpt>
      <trkpt lat="44.21256" lon="4.3584">
        <ele>300.582</ele>
        <time>2015-05-03T08:37:06.620Z</time>
      </trkpt>
      <trkpt lat="44.21243" lon="4.35855">
        <ele>300.491</ele>
        <time>2015-05-03T08:37:09.408Z</time>
      </trkpt>
      <trkpt lat="44.2123" lon="4.35872">
        <ele>299.622</ele>
        <time>2015-05-03T08:37:12.393Z</time>
      </trkpt>
      <trkpt lat="44.21216" lon="4.35886">
        <ele>298.501</ele>
        <time>2015-05-03T08:37:15.385Z</time>
      </trkpt>
      <trkpt lat="44.21201" lon="4.359">
        <ele>297.89</ele>
        <time>2015-05-03T08:37:18.280Z</time>
      </trkpt>
      <trkpt lat="44.21188" lon="4.35914">
        <ele>297.789</ele>
        <time>2015-05-03T08:37:20.978Z</time>
      </trkpt>
      <trkpt lat="44.21173" lon="4.35928">
        <ele>297.904</ele>
        <time>2015-05-03T08:37:23.930Z</time>
      </trkpt>
      <trkpt lat="44.21157" lon="4.3594">
        <ele>297.892</ele>
        <time>2015-05-03T08:37:26.890Z</time>
      </trkpt>
      <trkpt lat="44.21149" lon="4.35953">
        <ele>297.757</ele>
        <time>2015-05-03T08:37:29.003Z</time>
      </trkpt>
      <trkpt lat="44.21137" lon="4.35971">
        <ele>297.634</ele>
        <time>2015-05-03T08:37:32.094Z</time>
      </trkpt>
      <trkpt lat="44.21127" lon="4.35986">
        <ele>297.664</ele>
        <time>2015-05-03T08:37:34.895Z</time>
      </trkpt>
      <trkpt lat="44.21117" lon="4.35999">
        <ele>298.044</ele>
        <time>2015-05-03T08:37:37.286Z</time>
      </trkpt>
      <trkpt lat="44.21105" lon="4.36015">
        <ele>298.611</ele>
        <time>2015-05-03T08:37:40.285Z</time>
      </trkpt>
      <trkpt lat="44.21092" lon="4.36032">
        <ele>298.497</ele>
        <time>2015-05-03T08:37:43.376Z</time>
      </trkpt>
      <trkpt lat="44.21084" lon="4.36042">
        <ele>297.452</ele>
        <time>2015-05-03T08:37:45.383Z</time>
      </trkpt>
      <trkpt lat="44.21074" lon="4.36054">
        <ele>296.461</ele>
        <time>2015-05-03T08:37:48.473Z</time>
      </trkpt>
      <trkpt lat="44.21065" lon="4.36056">
        <ele>296.372</ele>
        <time>2015-05-03T08:37:50.921Z</time>
      </trkpt>
      <trkpt lat="44.21055" lon="4.36052">
        <ele>295.942</ele>
        <time>2015-05-03T08:37:53.912Z</time>
      </trkpt>
      <trkpt lat="44.2105" lon="4.36042">
        <ele>294.078</ele>
        <time>2015-05-03T08:37:56.690Z</time>
      </trkpt>
      <trkpt lat="44.21043" lon="4.36031">
        <ele>291.952</ele>
        <time>2015-05-03T08:38:00.013Z</time>
      </trkpt>
      <trkpt lat="44.21035" lon="4.36022">
        <ele>291.203</ele>
        <time>2015-05-03T08:38:03.767Z</time>
      </trkpt>
      <trkpt lat="44.21029" lon="4.36012">
        <ele>291.905</ele>
        <time>2015-05-03T08:38:07.351Z</time>
      </trkpt>
      <trkpt lat="44.21022" lon="4.36">
        <ele>293.167</ele>
        <time>2015-05-03T08:38:11.130Z</time>
      </trkpt>
      <trkpt lat="44.21014" lon="4.35993">
        <ele>294.247</ele>
        <time>2015-05-03T08:38:14.150Z</time>
      </trkpt>
      <trkpt lat="44.21004" lon="4.35988">
        <ele>294.994</ele>
        <time>2015-05-03T08:38:17.328Z</time>
      </trkpt>
      <trkpt lat="44.20994" lon="4.35987">
        <ele>295.365</ele>
        <time>2015-05-03T08:38:20.717Z</time>
      </trkpt>
      <trkpt lat="44.20987" lon="4.3598">
        <ele>295.552</ele>
        <time>2015-05-03T08:38:24.112Z</time>
      </trkpt>
      <trkpt lat="44.20977" lon="4.35971">
        <ele>295.809</ele>
        <time>2015-05-03T08:38:28.575Z</time>
      </trkpt>
      <trkpt lat="44.20969" lon="4.3598">
        <ele>295.851</ele>
        <time>2015-05-03T08:38:32.586Z</time>
      </trkpt>
      <trkpt lat="44.20964" lon="4.35991">
        <ele>295.396</ele>
        <time>2015-05-03T08:38:36.106Z</time>
      </trkpt>
      <trkpt lat="44.20956" lon="4.36001">
        <ele>294.408</ele>
        <time>2015-05-03T08:38:40.173Z</time>
      </trkpt>
      <trkpt lat="44.20951" lon="4.36013">
        <ele>293</ele>
        <time>2015-05-03T08:38:44.808Z</time>
      </trkpt>
      <trkpt lat="44.20951" lon="4.36013">
        <ele>291.742</ele>
        <time>2015-05-03T08:38:48.812Z</time>
      </trkpt>
      <trkpt lat="44.20951" lon="4.36013">
        <ele>291.167</ele>
        <time>2015-05-03T08:38:48.908Z</time>
      </trkpt>
      <trkpt lat="44.20946" lon="4.36037">
        <ele>291.118</ele>
        <time>2015-05-03T08:39:01.523Z</time>
      </trkpt>
      <trkpt lat="44.20939" lon="4.36047">
        <ele>290.825</ele>
        <time>2015-05-03T08:39:05.668Z</time>
      </trkpt>
      <trkpt lat="44.2093" lon="4.36051">
        <ele>289.331</ele>
        <time>2015-05-03T08:39:09.350Z</time>
      </trkpt>
      <trkpt lat="44.20919" lon="4.36055">
        <ele>286.642</ele>
        <time>2015-05-03T08:39:13.384Z</time>
      </trkpt>
      <trkpt lat="44.20908" lon="4.36057">
        <ele>283.73</ele>
        <time>2015-05-03T08:39:16.695Z</time>
      </trkpt>
      <trkpt lat="44.20898" lon="4.36066">
        <ele>281.381</ele>
        <time>2015-05-03T08:39:20.424Z</time>
      </trkpt>
      <trkpt lat="44.20888" lon="4.3607">
        <ele>279.84</ele>
        <time>2015-05-03T08:39:23.527Z</time>
      </trkpt>
      <trkpt lat="44.2088" lon="4.36061">
        <ele>278.971</ele>
        <time>2015-05-03T08:39:26.665Z</time>
      </trkpt>
      <trkpt lat="44.2087" lon="4.36048">
        <ele>278.259</ele>
        <time>2015-05-03T08:39:29.971Z</time>
      </trkpt>
      <trkpt lat="44.20863" lon="4.36039">
        <ele>277.345</ele>
        <time>2015-05-03T08:39:32.050Z</time>
      </trkpt>
      <trkpt lat="44.20855" lon="4.3603">
        <ele>276.554</ele>
        <time>2015-05-03T08:39:34.098Z</time>
      </trkpt>
      <trkpt lat="44.20846" lon="4.36021">
        <ele>276.366</ele>
        <time>2015-05-03T08:39:36.215Z</time>
      </trkpt>
      <trkpt lat="44.20839" lon="4.36012">
        <ele>276.682</ele>
        <time>2015-05-03T08:39:38.047Z</time>
      </trkpt>
      <trkpt lat="44.20828" lon="4.35995">
        <ele>276.757</ele>
        <time>2015-05-03T08:39:41.046Z</time>
      </trkpt>
      <trkpt lat="44.20823" lon="4.35983">
        <ele>276.159</ele>
        <time>2015-05-03T08:39:42.886Z</time>
      </trkpt>
      <trkpt lat="44.20815" lon="4.35964">
        <ele>275.276</ele>
        <time>2015-05-03T08:39:45.727Z</time>
      </trkpt>
      <trkpt lat="44.20807" lon="4.35945">
        <ele>274.964</ele>
        <time>2015-05-03T08:39:48.460Z</time>
      </trkpt>
      <trkpt lat="44.20797" lon="4.35928">
        <ele>275.423</ele>
        <time>2015-05-03T08:39:51.155Z</time>
      </trkpt>
      <trkpt lat="44.2079" lon="4.35914">
        <ele>275.975</ele>
        <time>2015-05-03T08:39:53.130Z</time>
      </trkpt>
      <trkpt lat="44.20776" lon="4.35891">
        <ele>276.124</ele>
        <time>2015-05-03T08:39:56.268Z</time>
      </trkpt>
      <trkpt lat="44.20769" lon="4.35877">
        <ele>275.92</ele>
        <time>2015-05-03T08:39:58.130Z</time>
      </trkpt>
      <trkpt lat="44.20755" lon="4.35853">
        <ele>275.271</ele>
        <time>2015-05-03T08:40:01.292Z</time>
      </trkpt>
      <trkpt lat="44.20747" lon="4.35839">
        <ele>274.012</ele>
        <time>2015-05-03T08:40:03.302Z</time>
      </trkpt>
      <trkpt lat="44.20737" lon="4.35818">
        <ele>272.297</ele>
        <time>2015-05-03T08:40:06.306Z</time>
      </trkpt>
      <trkpt lat="44.20731" lon="4.35803">
        <ele>270.819</ele>
        <time>2015-05-03T08:40:08.300Z</time>
      </trkpt>
      <trkpt lat="44.20727" lon="4.35788">
        <ele>270.15</ele>
        <time>2015-05-03T08:40:10.339Z</time>
      </trkpt>
      <trkpt lat="44.20723" lon="4.35777">
        <ele>270.166</ele>
        <time>2015-05-03T08:40:11.976Z</time>
      </trkpt>
      <trkpt lat="44.20715" lon="4.35756">
        <ele>270.429</ele>
        <time>2015-05-03T08:40:14.827Z</time>
      </trkpt>
      <trkpt lat="44.20706" lon="4.35734">
        <ele>270.996</ele>
        <time>2015-05-03T08:40:17.908Z</time>
      </trkpt>
      <trkpt lat="44.20696" lon="4.35711">
        <ele>272.137</ele>
        <time>2015-05-03T08:40:21.162Z</time>
      </trkpt>
      <trkpt lat="44.2069" lon="4.35699">
        <ele>273.406</ele>
        <time>2015-05-03T08:40:22.897Z</time>
      </trkpt>
      <trkpt lat="44.20683" lon="4.35687">
        <ele>274.146</ele>
        <time>2015-05-03T08:40:24.780Z</time>
      </trkpt>
      <trkpt lat="44.20672" lon="4.35672">
        <ele>274.327</ele>
        <time>2015-05-03T08:40:27.442Z</time>
      </trkpt>
      <trkpt lat="44.20659" lon="4.35658">
        <ele>273.4</ele>
        <time>2015-05-03T08:40:30.072Z</time>
      </trkpt>
      <trkpt lat="44.2065" lon="4.35648">
        <ele>271.104</ele>
        <time>2015-05-03T08:40:32.058Z</time>
      </trkpt>
      <trkpt lat="44.20633" lon="4.35637">
        <ele>268.753</ele>
        <time>2015-05-03T08:40:35.313Z</time>
      </trkpt>
      <trkpt lat="44.20616" lon="4.35637">
        <ele>267.603</ele>
        <time>2015-05-03T08:40:38.413Z</time>
      </trkpt>
      <trkpt lat="44.206" lon="4.35638">
        <ele>267.703</ele>
        <time>2015-05-03T08:40:41.096Z</time>
      </trkpt>
      <trkpt lat="44.20583" lon="4.35642">
        <ele>268.596</ele>
        <time>2015-05-03T08:40:44.249Z</time>
      </trkpt>
      <trkpt lat="44.20573" lon="4.35644">
        <ele>269.705</ele>
        <time>2015-05-03T08:40:46.188Z</time>
      </trkpt>
      <trkpt lat="44.20558" lon="4.35647">
        <ele>270.699</ele>
        <time>2015-05-03T08:40:49.222Z</time>
      </trkpt>
      <trkpt lat="44.20543" lon="4.35654">
        <ele>271.189</ele>
        <time>2015-05-03T08:40:52.434Z</time>
      </trkpt>
      <trkpt lat="44.20537" lon="4.35668">
        <ele>270.945</ele>
        <time>2015-05-03T08:40:55.126Z</time>
      </trkpt>
      <trkpt lat="44.20532" lon="4.35687">
        <ele>270.39</ele>
        <time>2015-05-03T08:40:58.136Z</time>
      </trkpt>
      <trkpt lat="44.20525" lon="4.35697">
        <ele>270.001</ele>
        <time>2015-05-03T08:41:00.024Z</time>
      </trkpt>
      <trkpt lat="44.20513" lon="4.35711">
        <ele>269.884</ele>
        <time>2015-05-03T08:41:02.819Z</time>
      </trkpt>
      <trkpt lat="44.20499" lon="4.35728">
        <ele>269.817</ele>
        <time>2015-05-03T08:41:05.978Z</time>
      </trkpt>
      <trkpt lat="44.20486" lon="4.35745">
        <ele>269.606</ele>
        <time>2015-05-03T08:41:09.106Z</time>
      </trkpt>
      <trkpt lat="44.20473" lon="4.35764">
        <ele>269.074</ele>
        <time>2015-05-03T08:41:12.583Z</time>
      </trkpt>
      <trkpt lat="44.20465" lon="4.35773">
        <ele>268.176</ele>
        <time>2015-05-03T08:41:14.612Z</time>
      </trkpt>
      <trkpt lat="44.20451" lon="4.35789">
        <ele>267.167</ele>
        <time>2015-05-03T08:41:18.179Z</time>
      </trkpt>
      <trkpt lat="44.20441" lon="4.358">
        <ele>266.192</ele>
        <time>2015-05-03T08:41:20.720Z</time>
      </trkpt>
      <trkpt lat="44.20428" lon="4.35813">
        <ele>265.271</ele>
        <time>2015-05-03T08:41:23.827Z</time>
      </trkpt>
      <trkpt lat="44.2042" lon="4.3582">
        <ele>264.687</ele>
        <time>2015-05-03T08:41:25.749Z</time>
      </trkpt>
      <trkpt lat="44.20409" lon="4.35832">
        <ele>264.683</ele>
        <time>2015-05-03T08:41:28.789Z</time>
      </trkpt>
      <trkpt lat="44.20398" lon="4.35842">
        <ele>265.151</ele>
        <time>2015-05-03T08:41:31.779Z</time>
      </trkpt>
      <trkpt lat="44.20389" lon="4.35851">
        <ele>265.666</ele>
        <time>2015-05-03T08:41:34.312Z</time>
      </trkpt>
      <trkpt lat="44.20377" lon="4.35861">
        <ele>265.93</ele>
        <time>2015-05-03T08:41:37.585Z</time>
      </trkpt>
      <trkpt lat="44.20368" lon="4.35869">
        <ele>266.003</ele>
        <time>2015-05-03T08:41:40.073Z</time>
      </trkpt>
      <trkpt lat="44.20355" lon="4.35878">
        <ele>265.951</ele>
        <time>2015-05-03T08:41:43.424Z</time>
      </trkpt>
      <trkpt lat="44.20345" lon="4.35886">
        <ele>265.509</ele>
        <time>2015-05-03T08:41:46.044Z</time>
      </trkpt>
      <trkpt lat="44.20334" lon="4.35892">
        <ele>264.548</ele>
        <time>2015-05-03T08:41:48.972Z</time>
      </trkpt>
      <trkpt lat="44.20321" lon="4.35896">
        <ele>263.576</ele>
        <time>2015-05-03T08:41:52.057Z</time>
      </trkpt>
      <trkpt lat="44.20311" lon="4.359">
        <ele>263.176</ele>
        <time>2015-05-03T08:41:54.818Z</time>
      </trkpt>
      <trkpt lat="44.203" lon="4.35904">
        <ele>263.328</ele>
        <time>2015-05-03T08:41:57.858Z</time>
      </trkpt>
      <trkpt lat="44.2029" lon="4.35908">
        <ele>263.704</ele>
        <time>2015-05-03T08:42:00.928Z</time>
      </trkpt>
      <trkpt lat="44.20278" lon="4.35914">
        <ele>264.094</ele>
        <time>2015-05-03T08:42:04.954Z</time>
      </trkpt>
      <trkpt lat="44.20269" lon="4.35921">
        <ele>264.506</ele>
        <time>2015-05-03T08:42:08.701Z</time>
      </trkpt>
      <trkpt lat="44.20265" lon="4.35932">
        <ele>264.822</ele>
        <time>2015-05-03T08:42:12.526Z</time>
      </trkpt>
      <trkpt lat="44.20261" lon="4.35945">
        <ele>264.886</ele>
        <time>2015-05-03T08:42:16.455Z</time>
      </trkpt>
      <trkpt lat="44.20258" lon="4.35959">
        <ele>264.744</ele>
        <time>2015-05-03T08:42:20.158Z</time>
      </trkpt>
      <trkpt lat="44.20252" lon="4.35972">
        <ele>264.454</ele>
        <time>2015-05-03T08:42:24.078Z</time>
      </trkpt>
      <trkpt lat="44.20248" lon="4.35984">
        <ele>264.051</ele>
        <time>2015-05-03T08:42:27.587Z</time>
      </trkpt>
      <trkpt lat="44.20244" lon="4.36004">
        <ele>263.68</ele>
        <time>2015-05-03T08:42:31.894Z</time>
      </trkpt>
      <trkpt lat="44.20241" lon="4.36017">
        <ele>263.349</ele>
        <time>2015-05-03T08:42:34.244Z</time>
      </trkpt>
      <trkpt lat="44.20236" lon="4.36032">
        <ele>263.019</ele>
        <time>2015-05-03T08:42:37.232Z</time>
      </trkpt>
      <trkpt lat="44.20233" lon="4.36045">
        <ele>262.681</ele>
        <time>2015-05-03T08:42:39.866Z</time>
      </trkpt>
      <trkpt lat="44.2023" lon="4.3606">
        <ele>262.719</ele>
        <time>2015-05-03T08:42:43.015Z</time>
      </trkpt>
      <trkpt lat="44.20224" lon="4.36072">
        <ele>263.642</ele>
        <time>2015-05-03T08:42:46.374Z</time>
      </trkpt>
      <trkpt lat="44.2022" lon="4.36085">
        <ele>265.031</ele>
        <time>2015-05-03T08:42:49.900Z</time>
      </trkpt>
      <trkpt lat="44.20213" lon="4.36094">
        <ele>265.875</ele>
        <time>2015-05-03T08:42:53.442Z</time>
      </trkpt>
      <trkpt lat="44.20202" lon="4.36095">
        <ele>265.488</ele>
        <time>2015-05-03T08:42:57.182Z</time>
      </trkpt>
      <trkpt lat="44.20192" lon="4.36098">
        <ele>263.81</ele>
        <time>2015-05-03T08:43:00.387Z</time>
      </trkpt>
      <trkpt lat="44.20177" lon="4.36095">
        <ele>261.755</ele>
        <time>2015-05-03T08:43:03.882Z</time>
      </trkpt>
      <trkpt lat="44.20163" lon="4.3609">
        <ele>260.261</ele>
        <time>2015-05-03T08:43:06.911Z</time>
      </trkpt>
      <trkpt lat="44.20151" lon="4.36085">
        <ele>259.166</ele>
        <time>2015-05-03T08:43:09.618Z</time>
      </trkpt>
      <trkpt lat="44.20138" lon="4.36079">
        <ele>258.12</ele>
        <time>2015-05-03T08:43:12.388Z</time>
      </trkpt>
      <trkpt lat="44.2013" lon="4.36074">
        <ele>257.585</ele>
        <time>2015-05-03T08:43:14.409Z</time>
      </trkpt>
      <trkpt lat="44.20119" lon="4.36073">
        <ele>258.458</ele>
        <time>2015-05-03T08:43:16.645Z</time>
      </trkpt>
      <trkpt lat="44.20111" lon="4.36082">
        <ele>260.558</ele>
        <time>2015-05-03T08:43:19.324Z</time>
      </trkpt>
      <trkpt lat="44.20102" lon="4.36086">
        <ele>262.466</ele>
        <time>2015-05-03T08:43:22.483Z</time>
      </trkpt>
      <trkpt lat="44.20093" lon="4.3609">
        <ele>263.297</ele>
        <time>2015-05-03T08:43:25.749Z</time>
      </trkpt>
      <trkpt lat="44.20084" lon="4.36091">
        <ele>263.552</ele>
        <time>2015-05-03T08:43:28.854Z</time>
      </trkpt>
      <trkpt lat="44.20073" lon="4.36091">
        <ele>264.05</ele>
        <time>2015-05-03T08:43:32.646Z</time>
      </trkpt>
      <trkpt lat="44.20061" lon="4.36091">
        <ele>265.066</ele>
        <time>2015-05-03T08:43:36.604Z</time>
      </trkpt>
      <trkpt lat="44.2005" lon="4.36089">
        <ele>266.151</ele>
        <time>2015-05-03T08:43:40.403Z</time>
      </trkpt>
      <trkpt lat="44.20041" lon="4.36088">
        <ele>266.808</ele>
        <time>2015-05-03T08:43:43.462Z</time>
      </trkpt>
      <trkpt lat="44.20029" lon="4.36087">
        <ele>267.22</ele>
        <time>2015-05-03T08:43:47.334Z</time>
      </trkpt>
      <trkpt lat="44.20018" lon="4.36086">
        <ele>268.117</ele>
        <time>2015-05-03T08:43:50.773Z</time>
      </trkpt>
      <trkpt lat="44.20009" lon="4.36082">
        <ele>269.204</ele>
        <time>2015-05-03T08:43:53.729Z</time>
      </trkpt>
      <trkpt lat="44.19997" lon="4.36083">
        <ele>269.684</ele>
        <time>2015-05-03T08:43:57.778Z</time>
      </trkpt>
      <trkpt lat="44.19989" lon="4.36079">
        <ele>269.512</ele>
        <time>2015-05-03T08:44:01.012Z</time>
      </trkpt>
      <trkpt lat="44.19978" lon="4.36075">
        <ele>269.03</ele>
        <time>2015-05-03T08:44:05.515Z</time>
      </trkpt>
      <trkpt lat="44.19968" lon="4.36072">
        <ele>268.583</ele>
        <time>2015-05-03T08:44:09.681Z</time>
      </trkpt>
      <trkpt lat="44.19958" lon="4.36068">
        <ele>268.461</ele>
        <time>2015-05-03T08:44:14.188Z</time>
      </trkpt>
      <trkpt lat="44.19948" lon="4.36063">
        <ele>268.82</ele>
        <time>2015-05-03T08:44:18.292Z</time>
      </trkpt>
      <trkpt lat="44.19938" lon="4.3606">
        <ele>270.64</ele>
        <time>2015-05-03T08:44:22.040Z</time>
      </trkpt>
      <trkpt lat="44.19929" lon="4.36055">
        <ele>273.928</ele>
        <time>2015-05-03T08:44:25.542Z</time>
      </trkpt>
      <trkpt lat="44.19919" lon="4.36049">
        <ele>276.409</ele>
        <time>2015-05-03T08:44:29.195Z</time>
      </trkpt>
      <trkpt lat="44.1991" lon="4.36044">
        <ele>276.568</ele>
        <time>2015-05-03T08:44:32.636Z</time>
      </trkpt>
      <trkpt lat="44.199" lon="4.36039">
        <ele>275.136</ele>
        <time>2015-05-03T08:44:35.986Z</time>
      </trkpt>
      <trkpt lat="44.19889" lon="4.36033">
        <ele>273.284</ele>
        <time>2015-05-03T08:44:39.917Z</time>
      </trkpt>
      <trkpt lat="44.19879" lon="4.36028">
        <ele>272.14</ele>
        <time>2015-05-03T08:44:43.168Z</time>
      </trkpt>
      <trkpt lat="44.19868" lon="4.36022">
        <ele>272.197</ele>
        <time>2015-05-03T08:44:47.131Z</time>
      </trkpt>
      <trkpt lat="44.19857" lon="4.36015">
        <ele>273.051</ele>
        <time>2015-05-03T08:44:50.832Z</time>
      </trkpt>
      <trkpt lat="44.19848" lon="4.3601">
        <ele>274.102</ele>
        <time>2015-05-03T08:44:54.064Z</time>
      </trkpt>
      <trkpt lat="44.1984" lon="4.36001">
        <ele>274.834</ele>
        <time>2015-05-03T08:44:57.478Z</time>
      </trkpt>
      <trkpt lat="44.19832" lon="4.35993">
        <ele>275.122</ele>
        <time>2015-05-03T08:45:00.646Z</time>
      </trkpt>
      <trkpt lat="44.19824" lon="4.35985">
        <ele>275.844</ele>
        <time>2015-05-03T08:45:04.005Z</time>
      </trkpt>
      <trkpt lat="44.19817" lon="4.35977">
        <ele>277.578</ele>
        <time>2015-05-03T08:45:07.122Z</time>
      </trkpt>
      <trkpt lat="44.19808" lon="4.35972">
        <ele>279.456</ele>
        <time>2015-05-03T08:45:10.156Z</time>
      </trkpt>
      <trkpt lat="44.19798" lon="4.35968">
        <ele>280.321</ele>
        <time>2015-05-03T08:45:13.979Z</time>
      </trkpt>
      <trkpt lat="44.19789" lon="4.35968">
        <ele>280.207</ele>
        <time>2015-05-03T08:45:17.300Z</time>
      </trkpt>
      <trkpt lat="44.19777" lon="4.3597">
        <ele>279.849</ele>
        <time>2015-05-03T08:45:21.183Z</time>
      </trkpt>
      <trkpt lat="44.19768" lon="4.35973">
        <ele>279.907</ele>
        <time>2015-05-03T08:45:24.269Z</time>
      </trkpt>
      <trkpt lat="44.19757" lon="4.35976">
        <ele>280.363</ele>
        <time>2015-05-03T08:45:27.892Z</time>
      </trkpt>
      <trkpt lat="44.19746" lon="4.35978">
        <ele>280.902</ele>
        <time>2015-05-03T08:45:31.645Z</time>
      </trkpt>
      <trkpt lat="44.19736" lon="4.35983">
        <ele>281.366</ele>
        <time>2015-05-03T08:45:35.325Z</time>
      </trkpt>
      <trkpt lat="44.19727" lon="4.35988">
        <ele>281.867</ele>
        <time>2015-05-03T08:45:38.696Z</time>
      </trkpt>
      <trkpt lat="44.19717" lon="4.35995">
        <ele>282.612</ele>
        <time>2015-05-03T08:45:42.397Z</time>
      </trkpt>
      <trkpt lat="44.19709" lon="4.36001">
        <ele>283.704</ele>
        <time>2015-05-03T08:45:45.773Z</time>
      </trkpt>
      <trkpt lat="44.19701" lon="4.36007">
        <ele>284.888</ele>
        <time>2015-05-03T08:45:49.215Z</time>
      </trkpt>
      <trkpt lat="44.1969" lon="4.36012">
        <ele>285.714</ele>
        <time>2015-05-03T08:45:53.242Z</time>
      </trkpt>
      <trkpt lat="44.19681" lon="4.36012">
        <ele>286.006</ele>
        <time>2015-05-03T08:45:56.381Z</time>
      </trkpt>
      <trkpt lat="44.19669" lon="4.36013">
        <ele>286.098</ele>
        <time>2015-05-03T08:46:00.486Z</time>
      </trkpt>
      <trkpt lat="44.19659" lon="4.36014">
        <ele>286.282</ele>
        <time>2015-05-03T08:46:03.653Z</time>
      </trkpt>
      <trkpt lat="44.19654" lon="4.36001">
        <ele>286.517</ele>
        <time>2015-05-03T08:46:07.286Z</time>
      </trkpt>
      <trkpt lat="44.19656" lon="4.35983">
        <ele>286.671</ele>
        <time>2015-05-03T08:46:11.541Z</time>
      </trkpt>
      <trkpt lat="44.19659" lon="4.35966">
        <ele>286.546</ele>
        <time>2015-05-03T08:46:16.271Z</time>
      </trkpt>
      <trkpt lat="44.19661" lon="4.35948">
        <ele>286.021</ele>
        <time>2015-05-03T08:46:20.094Z</time>
      </trkpt>
      <trkpt lat="44.19662" lon="4.3593">
        <ele>285.387</ele>
        <time>2015-05-03T08:46:23.320Z</time>
      </trkpt>
      <trkpt lat="44.19664" lon="4.35913">
        <ele>284.975</ele>
        <time>2015-05-03T08:46:26.204Z</time>
      </trkpt>
      <trkpt lat="44.19665" lon="4.35896">
        <ele>284.802</ele>
        <time>2015-05-03T08:46:29.040Z</time>
      </trkpt>
      <trkpt lat="44.19667" lon="4.35883">
        <ele>284.793</ele>
        <time>2015-05-03T08:46:31.079Z</time>
      </trkpt>
      <trkpt lat="44.19671" lon="4.35866">
        <ele>284.993</ele>
        <time>2015-05-03T08:46:33.986Z</time>
      </trkpt>
      <trkpt lat="44.19675" lon="4.35849">
        <ele>285.42</ele>
        <time>2015-05-03T08:46:36.886Z</time>
      </trkpt>
      <trkpt lat="44.19683" lon="4.35832">
        <ele>285.858</ele>
        <time>2015-05-03T08:46:40.159Z</time>
      </trkpt>
      <trkpt lat="44.19688" lon="4.35821">
        <ele>286.013</ele>
        <time>2015-05-03T08:46:42.166Z</time>
      </trkpt>
      <trkpt lat="44.19698" lon="4.35809">
        <ele>285.851</ele>
        <time>2015-05-03T08:46:45.014Z</time>
      </trkpt>
      <trkpt lat="44.19707" lon="4.35795">
        <ele>285.542</ele>
        <time>2015-05-03T08:46:48.035Z</time>
      </trkpt>
      <trkpt lat="44.19714" lon="4.35784">
        <ele>285.243</ele>
        <time>2015-05-03T08:46:50.226Z</time>
      </trkpt>
      <trkpt lat="44.19724" lon="4.35768">
        <ele>284.963</ele>
        <time>2015-05-03T08:46:53.445Z</time>
      </trkpt>
      <trkpt lat="44.19732" lon="4.35758">
        <ele>284.405</ele>
        <time>2015-05-03T08:46:55.647Z</time>
      </trkpt>
      <trkpt lat="44.19743" lon="4.35744">
        <ele>283.466</ele>
        <time>2015-05-03T08:46:58.674Z</time>
      </trkpt>
      <trkpt lat="44.19751" lon="4.35725">
        <ele>282.567</ele>
        <time>2015-05-03T08:47:01.799Z</time>
      </trkpt>
      <trkpt lat="44.19756" lon="4.35713">
        <ele>281.907</ele>
        <time>2015-05-03T08:47:03.549Z</time>
      </trkpt>
      <trkpt lat="44.19765" lon="4.35701">
        <ele>281.126</ele>
        <time>2015-05-03T08:47:06.036Z</time>
      </trkpt>
      <trkpt lat="44.19778" lon="4.35691">
        <ele>280.141</ele>
        <time>2015-05-03T08:47:09.035Z</time>
      </trkpt>
      <trkpt lat="44.19791" lon="4.35682">
        <ele>279.227</ele>
        <time>2015-05-03T08:47:12.029Z</time>
      </trkpt>
      <trkpt lat="44.19799" lon="4.35666">
        <ele>278.506</ele>
        <time>2015-05-03T08:47:15.160Z</time>
      </trkpt>
      <trkpt lat="44.19795" lon="4.35649">
        <ele>277.818</ele>
        <time>2015-05-03T08:47:18.024Z</time>
      </trkpt>
      <trkpt lat="44.19786" lon="4.35635">
        <ele>277.074</ele>
        <time>2015-05-03T08:47:21.647Z</time>
      </trkpt>
      <trkpt lat="44.19776" lon="4.35625">
        <ele>275.818</ele>
        <time>2015-05-03T08:47:24.906Z</time>
      </trkpt>
      <trkpt lat="44.19768" lon="4.35617">
        <ele>273.643</ele>
        <time>2015-05-03T08:47:27.275Z</time>
      </trkpt>
      <trkpt lat="44.19757" lon="4.3561">
        <ele>270.892</ele>
        <time>2015-05-03T08:47:30.326Z</time>
      </trkpt>
      <trkpt lat="44.19746" lon="4.35605">
        <ele>268.113</ele>
        <time>2015-05-03T08:47:33.428Z</time>
      </trkpt>
      <trkpt lat="44.19737" lon="4.35606">
        <ele>265.66</ele>
        <time>2015-05-03T08:47:35.804Z</time>
      </trkpt>
      <trkpt lat="44.19728" lon="4.35606">
        <ele>264.036</ele>
        <time>2015-05-03T08:47:38.275Z</time>
      </trkpt>
      <trkpt lat="44.19724" lon="4.3559">
        <ele>263.362</ele>
        <time>2015-05-03T08:47:41.615Z</time>
      </trkpt>
      <trkpt lat="44.1972" lon="4.35578">
        <ele>263.288</ele>
        <time>2015-05-03T08:47:44.658Z</time>
      </trkpt>
      <trkpt lat="44.1971" lon="4.3557">
        <ele>263.105</ele>
        <time>2015-05-03T08:47:48.921Z</time>
      </trkpt>
      <trkpt lat="44.19699" lon="4.35565">
        <ele>262.344</ele>
        <time>2015-05-03T08:47:52.826Z</time>
      </trkpt>
      <trkpt lat="44.19689" lon="4.35562">
        <ele>261.402</ele>
        <time>2015-05-03T08:47:55.880Z</time>
      </trkpt>
      <trkpt lat="44.1968" lon="4.3556">
        <ele>260.856</ele>
        <time>2015-05-03T08:47:58.561Z</time>
      </trkpt>
      <trkpt lat="44.19668" lon="4.35566">
        <ele>260.656</ele>
        <time>2015-05-03T08:48:02.127Z</time>
      </trkpt>
      <trkpt lat="44.19657" lon="4.35575">
        <ele>260.642</ele>
        <time>2015-05-03T08:48:05.817Z</time>
      </trkpt>
      <trkpt lat="44.19657" lon="4.35575">
        <ele>260.694</ele>
        <time>2015-05-03T08:48:06.805Z</time>
      </trkpt>
      <trkpt lat="44.19657" lon="4.35575">
        <ele>260.643</ele>
        <time>2015-05-03T08:48:06.905Z</time>
      </trkpt>
      <trkpt lat="44.19638" lon="4.3559">
        <ele>260.488</ele>
        <time>2015-05-03T08:48:14.186Z</time>
      </trkpt>
      <trkpt lat="44.19628" lon="4.35599">
        <ele>260.38</ele>
        <time>2015-05-03T08:48:17.184Z</time>
      </trkpt>
      <trkpt lat="44.19617" lon="4.35608">
        <ele>260.335</ele>
        <time>2015-05-03T08:48:20.130Z</time>
      </trkpt>
      <trkpt lat="44.19606" lon="4.35616">
        <ele>260.354</ele>
        <time>2015-05-03T08:48:23.145Z</time>
      </trkpt>
      <trkpt lat="44.19595" lon="4.35624">
        <ele>260.384</ele>
        <time>2015-05-03T08:48:26.055Z</time>
      </trkpt>
      <trkpt lat="44.19586" lon="4.35633">
        <ele>259.993</ele>
        <time>2015-05-03T08:48:28.790Z</time>
      </trkpt>
      <trkpt lat="44.19576" lon="4.35642">
        <ele>258.917</ele>
        <time>2015-05-03T08:48:31.677Z</time>
      </trkpt>
      <trkpt lat="44.19567" lon="4.35648">
        <ele>257.625</ele>
        <time>2015-05-03T08:48:33.871Z</time>
      </trkpt>
      <trkpt lat="44.19555" lon="4.35658">
        <ele>256.695</ele>
        <time>2015-05-03T08:48:37.094Z</time>
      </trkpt>
      <trkpt lat="44.19544" lon="4.35666">
        <ele>256.374</ele>
        <time>2015-05-03T08:48:39.933Z</time>
      </trkpt>
      <trkpt lat="44.19533" lon="4.35674">
        <ele>256.807</ele>
        <time>2015-05-03T08:48:42.908Z</time>
      </trkpt>
      <trkpt lat="44.19522" lon="4.35682">
        <ele>257.789</ele>
        <time>2015-05-03T08:48:45.787Z</time>
      </trkpt>
      <trkpt lat="44.19513" lon="4.35688">
        <ele>258.894</ele>
        <time>2015-05-03T08:48:48.454Z</time>
      </trkpt>
      <trkpt lat="44.19504" lon="4.35697">
        <ele>259.792</ele>
        <time>2015-05-03T08:48:51.264Z</time>
      </trkpt>
      <trkpt lat="44.19495" lon="4.35706">
        <ele>260.291</ele>
        <time>2015-05-03T08:48:54.209Z</time>
      </trkpt>
      <trkpt lat="44.19485" lon="4.35708">
        <ele>260.394</ele>
        <time>2015-05-03T08:48:56.915Z</time>
      </trkpt>
      <trkpt lat="44.19475" lon="4.35708">
        <ele>260.283</ele>
        <time>2015-05-03T08:48:59.641Z</time>
      </trkpt>
      <trkpt lat="44.19462" lon="4.35709">
        <ele>259.874</ele>
        <time>2015-05-03T08:49:02.803Z</time>
      </trkpt>
      <trkpt lat="44.19449" lon="4.35705">
        <ele>259.096</ele>
        <time>2015-05-03T08:49:06.171Z</time>
      </trkpt>
      <trkpt lat="44.19439" lon="4.35698">
        <ele>258.302</ele>
        <time>2015-05-03T08:49:09.023Z</time>
      </trkpt>
      <trkpt lat="44.1943" lon="4.3569">
        <ele>257.85</ele>
        <time>2015-05-03T08:49:11.867Z</time>
      </trkpt>
      <trkpt lat="44.19421" lon="4.35684">
        <ele>257.719</ele>
        <time>2015-05-03T08:49:14.494Z</time>
      </trkpt>
      <trkpt lat="44.19408" lon="4.35679">
        <ele>257.712</ele>
        <time>2015-05-03T08:49:17.848Z</time>
      </trkpt>
      <trkpt lat="44.19396" lon="4.35675">
        <ele>257.676</ele>
        <time>2015-05-03T08:49:20.828Z</time>
      </trkpt>
      <trkpt lat="44.19385" lon="4.3567">
        <ele>257.645</ele>
        <time>2015-05-03T08:49:23.702Z</time>
      </trkpt>
      <trkpt lat="44.19373" lon="4.35669">
        <ele>257.729</ele>
        <time>2015-05-03T08:49:26.823Z</time>
      </trkpt>
      <trkpt lat="44.19362" lon="4.35668">
        <ele>257.901</ele>
        <time>2015-05-03T08:49:29.843Z</time>
      </trkpt>
      <trkpt lat="44.1935" lon="4.35665">
        <ele>258.207</ele>
        <time>2015-05-03T08:49:32.838Z</time>
      </trkpt>
      <trkpt lat="44.1934" lon="4.3566">
        <ele>258.695</ele>
        <time>2015-05-03T08:49:35.768Z</time>
      </trkpt>
      <trkpt lat="44.19328" lon="4.35657">
        <ele>259.141</ele>
        <time>2015-05-03T08:49:38.814Z</time>
      </trkpt>
      <trkpt lat="44.19316" lon="4.35658">
        <ele>259.518</ele>
        <time>2015-05-03T08:49:41.889Z</time>
      </trkpt>
      <trkpt lat="44.19304" lon="4.35662">
        <ele>260.014</ele>
        <time>2015-05-03T08:49:45.009Z</time>
      </trkpt>
      <trkpt lat="44.19292" lon="4.35666">
        <ele>260.385</ele>
        <time>2015-05-03T08:49:48.149Z</time>
      </trkpt>
      <trkpt lat="44.19279" lon="4.35671">
        <ele>260.385</ele>
        <time>2015-05-03T08:49:51.276Z</time>
      </trkpt>
      <trkpt lat="44.19268" lon="4.35673">
        <ele>260.327</ele>
        <time>2015-05-03T08:49:54.053Z</time>
      </trkpt>
      <trkpt lat="44.19257" lon="4.35674">
        <ele>260.512</ele>
        <time>2015-05-03T08:49:56.774Z</time>
      </trkpt>
      <trkpt lat="44.19246" lon="4.35676">
        <ele>260.741</ele>
        <time>2015-05-03T08:49:59.808Z</time>
      </trkpt>
      <trkpt lat="44.19236" lon="4.35674">
        <ele>260.768</ele>
        <time>2015-05-03T08:50:02.509Z</time>
      </trkpt>
      <trkpt lat="44.19231" lon="4.35661">
        <ele>260.672</ele>
        <time>2015-05-03T08:50:06.071Z</time>
      </trkpt>
      <trkpt lat="44.19231" lon="4.35646">
        <ele>260.593</ele>
        <time>2015-05-03T08:50:09.726Z</time>
      </trkpt>
      <trkpt lat="44.19224" lon="4.35637">
        <ele>260.519</ele>
        <time>2015-05-03T08:50:13.033Z</time>
      </trkpt>
      <trkpt lat="44.19214" lon="4.35632">
        <ele>260.362</ele>
        <time>2015-05-03T08:50:16.399Z</time>
      </trkpt>
      <trkpt lat="44.19205" lon="4.35626">
        <ele>260.137</ele>
        <time>2015-05-03T08:50:19.499Z</time>
      </trkpt>
      <trkpt lat="44.19195" lon="4.35619">
        <ele>259.983</ele>
        <time>2015-05-03T08:50:22.648Z</time>
      </trkpt>
      <trkpt lat="44.19186" lon="4.35614">
        <ele>260.309</ele>
        <time>2015-05-03T08:50:25.551Z</time>
      </trkpt>
      <trkpt lat="44.19178" lon="4.35606">
        <ele>261.43</ele>
        <time>2015-05-03T08:50:28.308Z</time>
      </trkpt>
      <trkpt lat="44.19168" lon="4.35601">
        <ele>262.728</ele>
        <time>2015-05-03T08:50:31.853Z</time>
      </trkpt>
      <trkpt lat="44.19158" lon="4.356">
        <ele>263.337</ele>
        <time>2015-05-03T08:50:34.908Z</time>
      </trkpt>
      <trkpt lat="44.19149" lon="4.35599">
        <ele>263.073</ele>
        <time>2015-05-03T08:50:38.035Z</time>
      </trkpt>
      <trkpt lat="44.19142" lon="4.35585">
        <ele>262.271</ele>
        <time>2015-05-03T08:50:42.525Z</time>
      </trkpt>
      <trkpt lat="44.19134" lon="4.35577">
        <ele>261.671</ele>
        <time>2015-05-03T08:50:45.927Z</time>
      </trkpt>
      <trkpt lat="44.19129" lon="4.35567">
        <ele>261.743</ele>
        <time>2015-05-03T08:50:49.038Z</time>
      </trkpt>
      <trkpt lat="44.19125" lon="4.35555">
        <ele>262.091</ele>
        <time>2015-05-03T08:50:52.127Z</time>
      </trkpt>
      <trkpt lat="44.19119" lon="4.35541">
        <ele>262.266</ele>
        <time>2015-05-03T08:50:55.879Z</time>
      </trkpt>
      <trkpt lat="44.19114" lon="4.3553">
        <ele>262.252</ele>
        <time>2015-05-03T08:50:58.898Z</time>
      </trkpt>
      <trkpt lat="44.19107" lon="4.35519">
        <ele>262.139</ele>
        <time>2015-05-03T08:51:02.320Z</time>
      </trkpt>
      <trkpt lat="44.19104" lon="4.35504">
        <ele>261.983</ele>
        <time>2015-05-03T08:51:05.998Z</time>
      </trkpt>
      <trkpt lat="44.19103" lon="4.35491">
        <ele>262.206</ele>
        <time>2015-05-03T08:51:09.065Z</time>
      </trkpt>
      <trkpt lat="44.19104" lon="4.35478">
        <ele>263.053</ele>
        <time>2015-05-03T08:51:12.075Z</time>
      </trkpt>
      <trkpt lat="44.19104" lon="4.35462">
        <ele>263.931</ele>
        <time>2015-05-03T08:51:15.493Z</time>
      </trkpt>
      <trkpt lat="44.19104" lon="4.35448">
        <ele>264.201</ele>
        <time>2015-05-03T08:51:18.663Z</time>
      </trkpt>
      <trkpt lat="44.19107" lon="4.35435">
        <ele>263.97</ele>
        <time>2015-05-03T08:51:21.567Z</time>
      </trkpt>
      <trkpt lat="44.19115" lon="4.35422">
        <ele>263.953</ele>
        <time>2015-05-03T08:51:24.949Z</time>
      </trkpt>
      <trkpt lat="44.19121" lon="4.35408">
        <ele>264.733</ele>
        <time>2015-05-03T08:51:28.175Z</time>
      </trkpt>
      <trkpt lat="44.19125" lon="4.35393">
        <ele>265.763</ele>
        <time>2015-05-03T08:51:31.138Z</time>
      </trkpt>
      <trkpt lat="44.19128" lon="4.35377">
        <ele>266.075</ele>
        <time>2015-05-03T08:51:34.141Z</time>
      </trkpt>
      <trkpt lat="44.1913" lon="4.35358">
        <ele>265.649</ele>
        <time>2015-05-03T08:51:37.704Z</time>
      </trkpt>
      <trkpt lat="44.19131" lon="4.35342">
        <ele>264.766</ele>
        <time>2015-05-03T08:51:40.623Z</time>
      </trkpt>
      <trkpt lat="44.19133" lon="4.35328">
        <ele>263.563</ele>
        <time>2015-05-03T08:51:43.499Z</time>
      </trkpt>
      <trkpt lat="44.19137" lon="4.35317">
        <ele>262.553</ele>
        <time>2015-05-03T08:51:46.223Z</time>
      </trkpt>
      <trkpt lat="44.19142" lon="4.35304">
        <ele>262.28</ele>
        <time>2015-05-03T08:51:49.440Z</time>
      </trkpt>
      <trkpt lat="44.19145" lon="4.35292">
        <ele>262.672</ele>
        <time>2015-05-03T08:51:52.245Z</time>
      </trkpt>
      <trkpt lat="44.19148" lon="4.35278">
        <ele>263.357</ele>
        <time>2015-05-03T08:51:55.511Z</time>
      </trkpt>
      <trkpt lat="44.19153" lon="4.35266">
        <ele>264.193</ele>
        <time>2015-05-03T08:51:58.858Z</time>
      </trkpt>
      <trkpt lat="44.19161" lon="4.35254">
        <ele>265.133</ele>
        <time>2015-05-03T08:52:02.703Z</time>
      </trkpt>
      <trkpt lat="44.19166" lon="4.35241">
        <ele>265.829</ele>
        <time>2015-05-03T08:52:06.025Z</time>
      </trkpt>
      <trkpt lat="44.19172" lon="4.3523">
        <ele>265.982</ele>
        <time>2015-05-03T08:52:09.093Z</time>
      </trkpt>
      <trkpt lat="44.19173" lon="4.35218">
        <ele>265.71</ele>
        <time>2015-05-03T08:52:12.059Z</time>
      </trkpt>
      <trkpt lat="44.19173" lon="4.35203">
        <ele>265.389</ele>
        <time>2015-05-03T08:52:15.381Z</time>
      </trkpt>
      <trkpt lat="44.19173" lon="4.3519">
        <ele>265.283</ele>
        <time>2015-05-03T08:52:18.403Z</time>
      </trkpt>
      <trkpt lat="44.19175" lon="4.35177">
        <ele>265.199</ele>
        <time>2015-05-03T08:52:21.789Z</time>
      </trkpt>
      <trkpt lat="44.19177" lon="4.35162">
        <ele>264.904</ele>
        <time>2015-05-03T08:52:25.776Z</time>
      </trkpt>
      <trkpt lat="44.19177" lon="4.35144">
        <ele>264.556</ele>
        <time>2015-05-03T08:52:30.398Z</time>
      </trkpt>
      <trkpt lat="44.19176" lon="4.3513">
        <ele>264.443</ele>
        <time>2015-05-03T08:52:33.898Z</time>
      </trkpt>
      <trkpt lat="44.19169" lon="4.35118">
        <ele>264.676</ele>
        <time>2015-05-03T08:52:37.598Z</time>
      </trkpt>
      <trkpt lat="44.19166" lon="4.35104">
        <ele>265.347</ele>
        <time>2015-05-03T08:52:41.425Z</time>
      </trkpt>
      <trkpt lat="44.1917" lon="4.35091">
        <ele>266.289</ele>
        <time>2015-05-03T08:52:44.872Z</time>
      </trkpt>
      <trkpt lat="44.19173" lon="4.3508">
        <ele>267.016</ele>
        <time>2015-05-03T08:52:48.059Z</time>
      </trkpt>
      <trkpt lat="44.19172" lon="4.35063">
        <ele>267.3</ele>
        <time>2015-05-03T08:52:52.085Z</time>
      </trkpt>
      <trkpt lat="44.19172" lon="4.35049">
        <ele>267.316</ele>
        <time>2015-05-03T08:52:55.435Z</time>
      </trkpt>
      <trkpt lat="44.19171" lon="4.35033">
        <ele>267.13</ele>
        <time>2015-05-03T08:52:58.904Z</time>
      </trkpt>
      <trkpt lat="44.1917" lon="4.35017">
        <ele>266.454</ele>
        <time>2015-05-03T08:53:02.447Z</time>
      </trkpt>
      <trkpt lat="44.19171" lon="4.35003">
        <ele>265.31</ele>
        <time>2015-05-03T08:53:05.449Z</time>
      </trkpt>
      <trkpt lat="44.19171" lon="4.34989">
        <ele>264.394</ele>
        <time>2015-05-03T08:53:08.360Z</time>
      </trkpt>
      <trkpt lat="44.19171" lon="4.34975">
        <ele>264.289</ele>
        <time>2015-05-03T08:53:11.442Z</time>
      </trkpt>
      <trkpt lat="44.1917" lon="4.34961">
        <ele>264.857</ele>
        <time>2015-05-03T08:53:14.424Z</time>
      </trkpt>
      <trkpt lat="44.19171" lon="4.34946">
        <ele>265.601</ele>
        <time>2015-05-03T08:53:17.440Z</time>
      </trkpt>
      <trkpt lat="44.19171" lon="4.34932">
        <ele>266.275</ele>
        <time>2015-05-03T08:53:20.328Z</time>
      </trkpt>
      <trkpt lat="44.19173" lon="4.34918">
        <ele>266.877</ele>
        <time>2015-05-03T08:53:23.313Z</time>
      </trkpt>
      <trkpt lat="44.19175" lon="4.34902">
        <ele>267.281</ele>
        <time>2015-05-03T08:53:26.539Z</time>
      </trkpt>
      <trkpt lat="44.19174" lon="4.34887">
        <ele>267.455</ele>
        <time>2015-05-03T08:53:29.660Z</time>
      </trkpt>
      <trkpt lat="44.19173" lon="4.34873">
        <ele>267.602</ele>
        <time>2015-05-03T08:53:33.062Z</time>
      </trkpt>
      <trkpt lat="44.19173" lon="4.34858">
        <ele>267.809</ele>
        <time>2015-05-03T08:53:37.119Z</time>
      </trkpt>
      <trkpt lat="44.19172" lon="4.34843">
        <ele>267.945</ele>
        <time>2015-05-03T08:53:41.508Z</time>
      </trkpt>
      <trkpt lat="44.19172" lon="4.34828">
        <ele>267.916</ele>
        <time>2015-05-03T08:53:45.470Z</time>
      </trkpt>
      <trkpt lat="44.19172" lon="4.34812">
        <ele>267.897</ele>
        <time>2015-05-03T08:53:48.899Z</time>
      </trkpt>
      <trkpt lat="44.19171" lon="4.34798">
        <ele>268.113</ele>
        <time>2015-05-03T08:53:52.042Z</time>
      </trkpt>
      <trkpt lat="44.19171" lon="4.34783">
        <ele>268.518</ele>
        <time>2015-05-03T08:53:54.978Z</time>
      </trkpt>
      <trkpt lat="44.19172" lon="4.34767">
        <ele>268.983</ele>
        <time>2015-05-03T08:53:58.212Z</time>
      </trkpt>
      <trkpt lat="44.19169" lon="4.34752">
        <ele>269.502</ele>
        <time>2015-05-03T08:54:01.112Z</time>
      </trkpt>
      <trkpt lat="44.19162" lon="4.3474">
        <ele>269.98</ele>
        <time>2015-05-03T08:54:04.353Z</time>
      </trkpt>
      <trkpt lat="44.19154" lon="4.34729">
        <ele>270.103</ele>
        <time>2015-05-03T08:54:07.356Z</time>
      </trkpt>
      <trkpt lat="44.1915" lon="4.34718">
        <ele>269.793</ele>
        <time>2015-05-03T08:54:09.990Z</time>
      </trkpt>
      <trkpt lat="44.19144" lon="4.34705">
        <ele>269.432</ele>
        <time>2015-05-03T08:54:13.083Z</time>
      </trkpt>
      <trkpt lat="44.19135" lon="4.34692">
        <ele>269.346</ele>
        <time>2015-05-03T08:54:16.740Z</time>
      </trkpt>
      <trkpt lat="44.19126" lon="4.34687">
        <ele>269.384</ele>
        <time>2015-05-03T08:54:20.117Z</time>
      </trkpt>
      <trkpt lat="44.19116" lon="4.34683">
        <ele>269.306</ele>
        <time>2015-05-03T08:54:23.479Z</time>
      </trkpt>
      <trkpt lat="44.19106" lon="4.34682">
        <ele>269.124</ele>
        <time>2015-05-03T08:54:26.495Z</time>
      </trkpt>
      <trkpt lat="44.19095" lon="4.34689">
        <ele>268.982</ele>
        <time>2015-05-03T08:54:30.450Z</time>
      </trkpt>
      <trkpt lat="44.19085" lon="4.34695">
        <ele>268.991</ele>
        <time>2015-05-03T08:54:33.890Z</time>
      </trkpt>
      <trkpt lat="44.19075" lon="4.34702">
        <ele>269.15</ele>
        <time>2015-05-03T08:54:37.054Z</time>
      </trkpt>
      <trkpt lat="44.19065" lon="4.34706">
        <ele>269.291</ele>
        <time>2015-05-03T08:54:40.028Z</time>
      </trkpt>
      <trkpt lat="44.19056" lon="4.34712">
        <ele>269.287</ele>
        <time>2015-05-03T08:54:42.979Z</time>
      </trkpt>
      <trkpt lat="44.19048" lon="4.34717">
        <ele>269.182</ele>
        <time>2015-05-03T08:54:45.820Z</time>
      </trkpt>
      <trkpt lat="44.19038" lon="4.34722">
        <ele>269.233</ele>
        <time>2015-05-03T08:54:49.013Z</time>
      </trkpt>
      <trkpt lat="44.19029" lon="4.34729">
        <ele>269.599</ele>
        <time>2015-05-03T08:54:52.202Z</time>
      </trkpt>
      <trkpt lat="44.19022" lon="4.34739">
        <ele>270.031</ele>
        <time>2015-05-03T08:54:55.275Z</time>
      </trkpt>
      <trkpt lat="44.19015" lon="4.34752">
        <ele>270.251</ele>
        <time>2015-05-03T08:54:58.748Z</time>
      </trkpt>
      <trkpt lat="44.19006" lon="4.34759">
        <ele>270.322</ele>
        <time>2015-05-03T08:55:01.794Z</time>
      </trkpt>
      <trkpt lat="44.18995" lon="4.34763">
        <ele>270.447</ele>
        <time>2015-05-03T08:55:04.891Z</time>
      </trkpt>
      <trkpt lat="44.18986" lon="4.34768">
        <ele>270.765</ele>
        <time>2015-05-03T08:55:07.759Z</time>
      </trkpt>
      <trkpt lat="44.18976" lon="4.34771">
        <ele>271.172</ele>
        <time>2015-05-03T08:55:10.536Z</time>
      </trkpt>
      <trkpt lat="44.18967" lon="4.34771">
        <ele>271.418</ele>
        <time>2015-05-03T08:55:13.427Z</time>
      </trkpt>
      <trkpt lat="44.18959" lon="4.34759">
        <ele>271.417</ele>
        <time>2015-05-03T08:55:17.214Z</time>
      </trkpt>
      <trkpt lat="44.18956" lon="4.34747">
        <ele>271.42</ele>
        <time>2015-05-03T08:55:20.677Z</time>
      </trkpt>
      <trkpt lat="44.18955" lon="4.34734">
        <ele>271.911</ele>
        <time>2015-05-03T08:55:24.439Z</time>
      </trkpt>
      <trkpt lat="44.1895" lon="4.34721">
        <ele>272.914</ele>
        <time>2015-05-03T08:55:28.891Z</time>
      </trkpt>
      <trkpt lat="44.18945" lon="4.34709">
        <ele>273.813</ele>
        <time>2015-05-03T08:55:33.339Z</time>
      </trkpt>
      <trkpt lat="44.18937" lon="4.34698">
        <ele>274.848</ele>
        <time>2015-05-03T08:55:38.353Z</time>
      </trkpt>
      <trkpt lat="44.18931" lon="4.34686">
        <ele>276.564</ele>
        <time>2015-05-03T08:55:42.799Z</time>
      </trkpt>
      <trkpt lat="44.18924" lon="4.34674">
        <ele>277.94</ele>
        <time>2015-05-03T08:55:47.131Z</time>
      </trkpt>
      <trkpt lat="44.18919" lon="4.34663">
        <ele>277.999</ele>
        <time>2015-05-03T08:55:50.563Z</time>
      </trkpt>
      <trkpt lat="44.18915" lon="4.3465">
        <ele>277.532</ele>
        <time>2015-05-03T08:55:54.350Z</time>
      </trkpt>
      <trkpt lat="44.18913" lon="4.34635">
        <ele>277.431</ele>
        <time>2015-05-03T08:55:58.398Z</time>
      </trkpt>
      <trkpt lat="44.18911" lon="4.34622">
        <ele>277.543</ele>
        <time>2015-05-03T08:56:02.630Z</time>
      </trkpt>
      <trkpt lat="44.18909" lon="4.34606">
        <ele>277.49</ele>
        <time>2015-05-03T08:56:07.685Z</time>
      </trkpt>
      <trkpt lat="44.18905" lon="4.34595">
        <ele>277.471</ele>
        <time>2015-05-03T08:56:11.798Z</time>
      </trkpt>
      <trkpt lat="44.18903" lon="4.34582">
        <ele>278.131</ele>
        <time>2015-05-03T08:56:16.002Z</time>
      </trkpt>
      <trkpt lat="44.18896" lon="4.34571">
        <ele>279.51</ele>
        <time>2015-05-03T08:56:20.662Z</time>
      </trkpt>
      <trkpt lat="44.18887" lon="4.34566">
        <ele>280.698</ele>
        <time>2015-05-03T08:56:24.985Z</time>
      </trkpt>
      <trkpt lat="44.18875" lon="4.34559">
        <ele>280.72</ele>
        <time>2015-05-03T08:56:29.610Z</time>
      </trkpt>
      <trkpt lat="44.18867" lon="4.34548">
        <ele>279.48</ele>
        <time>2015-05-03T08:56:33.056Z</time>
      </trkpt>
      <trkpt lat="44.18859" lon="4.3454">
        <ele>277.832</ele>
        <time>2015-05-03T08:56:35.929Z</time>
      </trkpt>
      <trkpt lat="44.1885" lon="4.34531">
        <ele>276.394</ele>
        <time>2015-05-03T08:56:39.077Z</time>
      </trkpt>
      <trkpt lat="44.1884" lon="4.3452">
        <ele>275.13</ele>
        <time>2015-05-03T08:56:42.574Z</time>
      </trkpt>
      <trkpt lat="44.18835" lon="4.34508">
        <ele>274.257</ele>
        <time>2015-05-03T08:56:45.499Z</time>
      </trkpt>
      <trkpt lat="44.18833" lon="4.34493">
        <ele>274.394</ele>
        <time>2015-05-03T08:56:48.874Z</time>
      </trkpt>
      <trkpt lat="44.18829" lon="4.34479">
        <ele>275.534</ele>
        <time>2015-05-03T08:56:51.986Z</time>
      </trkpt>
      <trkpt lat="44.18824" lon="4.34464">
        <ele>276.837</ele>
        <time>2015-05-03T08:56:55.371Z</time>
      </trkpt>
      <trkpt lat="44.18822" lon="4.3445">
        <ele>277.615</ele>
        <time>2015-05-03T08:56:58.262Z</time>
      </trkpt>
      <trkpt lat="44.1882" lon="4.34437">
        <ele>278.066</ele>
        <time>2015-05-03T08:57:00.928Z</time>
      </trkpt>
      <trkpt lat="44.18819" lon="4.34422">
        <ele>278.489</ele>
        <time>2015-05-03T08:57:03.953Z</time>
      </trkpt>
      <trkpt lat="44.18819" lon="4.34408">
        <ele>278.614</ele>
        <time>2015-05-03T08:57:06.808Z</time>
      </trkpt>
      <trkpt lat="44.18819" lon="4.34395">
        <ele>278.149</ele>
        <time>2015-05-03T08:57:09.682Z</time>
      </trkpt>
      <trkpt lat="44.18822" lon="4.34381">
        <ele>277.488</ele>
        <time>2015-05-03T08:57:12.601Z</time>
      </trkpt>
      <trkpt lat="44.18823" lon="4.34368">
        <ele>277.219</ele>
        <time>2015-05-03T08:57:15.474Z</time>
      </trkpt>
      <trkpt lat="44.18823" lon="4.34354">
        <ele>277.49</ele>
        <time>2015-05-03T08:57:18.480Z</time>
      </trkpt>
      <trkpt lat="44.18824" lon="4.3434">
        <ele>278.004</ele>
        <time>2015-05-03T08:57:21.717Z</time>
      </trkpt>
      <trkpt lat="44.18823" lon="4.34326">
        <ele>278.377</ele>
        <time>2015-05-03T08:57:25.086Z</time>
      </trkpt>
      <trkpt lat="44.18817" lon="4.34312">
        <ele>278.514</ele>
        <time>2015-05-03T08:57:30.062Z</time>
      </trkpt>
      <trkpt lat="44.18817" lon="4.34297">
        <ele>278.415</ele>
        <time>2015-05-03T08:57:35.431Z</time>
      </trkpt>
      <trkpt lat="44.18817" lon="4.34282">
        <ele>278.21</ele>
        <time>2015-05-03T08:57:39.878Z</time>
      </trkpt>
      <trkpt lat="44.18818" lon="4.34268">
        <ele>278.128</ele>
        <time>2015-05-03T08:57:43.411Z</time>
      </trkpt>
      <trkpt lat="44.18818" lon="4.34255">
        <ele>278.196</ele>
        <time>2015-05-03T08:57:46.406Z</time>
      </trkpt>
      <trkpt lat="44.1882" lon="4.34241">
        <ele>278.316</ele>
        <time>2015-05-03T08:57:49.756Z</time>
      </trkpt>
      <trkpt lat="44.18822" lon="4.34228">
        <ele>278.733</ele>
        <time>2015-05-03T08:57:53.007Z</time>
      </trkpt>
      <trkpt lat="44.18823" lon="4.34214">
        <ele>279.718</ele>
        <time>2015-05-03T08:57:56.524Z</time>
      </trkpt>
      <trkpt lat="44.1882" lon="4.34197">
        <ele>281.04</ele>
        <time>2015-05-03T08:58:00.753Z</time>
      </trkpt>
      <trkpt lat="44.18817" lon="4.34183">
        <ele>282.16</ele>
        <time>2015-05-03T08:58:04.314Z</time>
      </trkpt>
      <trkpt lat="44.18814" lon="4.34167">
        <ele>282.79</ele>
        <time>2015-05-03T08:58:07.844Z</time>
      </trkpt>
      <trkpt lat="44.1881" lon="4.34152">
        <ele>282.746</ele>
        <time>2015-05-03T08:58:11.326Z</time>
      </trkpt>
      <trkpt lat="44.18809" lon="4.34138">
        <ele>282.111</ele>
        <time>2015-05-03T08:58:14.369Z</time>
      </trkpt>
      <trkpt lat="44.18804" lon="4.34126">
        <ele>281.465</ele>
        <time>2015-05-03T08:58:17.777Z</time>
      </trkpt>
      <trkpt lat="44.18798" lon="4.34113">
        <ele>281.521</ele>
        <time>2015-05-03T08:58:21.762Z</time>
      </trkpt>
      <trkpt lat="44.18793" lon="4.34101">
        <ele>282.302</ele>
        <time>2015-05-03T08:58:25.612Z</time>
      </trkpt>
      <trkpt lat="44.1879" lon="4.34085">
        <ele>283.147</ele>
        <time>2015-05-03T08:58:29.987Z</time>
      </trkpt>
      <trkpt lat="44.18787" lon="4.3407">
        <ele>283.558</ele>
        <time>2015-05-03T08:58:34.074Z</time>
      </trkpt>
      <trkpt lat="44.18785" lon="4.34056">
        <ele>283.532</ele>
        <time>2015-05-03T08:58:37.911Z</time>
      </trkpt>
      <trkpt lat="44.18783" lon="4.34042">
        <ele>283.231</ele>
        <time>2015-05-03T08:58:41.669Z</time>
      </trkpt>
      <trkpt lat="44.18781" lon="4.34028">
        <ele>283.015</ele>
        <time>2015-05-03T08:58:45.419Z</time>
      </trkpt>
      <trkpt lat="44.18779" lon="4.34013">
        <ele>283.345</ele>
        <time>2015-05-03T08:58:49.446Z</time>
      </trkpt>
      <trkpt lat="44.18778" lon="4.34">
        <ele>284.209</ele>
        <time>2015-05-03T08:58:52.944Z</time>
      </trkpt>
      <trkpt lat="44.18777" lon="4.33984">
        <ele>285.111</ele>
        <time>2015-05-03T08:58:56.958Z</time>
      </trkpt>
      <trkpt lat="44.18776" lon="4.33968">
        <ele>285.705</ele>
        <time>2015-05-03T08:59:00.946Z</time>
      </trkpt>
      <trkpt lat="44.18777" lon="4.33952">
        <ele>286.163</ele>
        <time>2015-05-03T08:59:04.978Z</time>
      </trkpt>
      <trkpt lat="44.18779" lon="4.33937">
        <ele>286.679</ele>
        <time>2015-05-03T08:59:08.753Z</time>
      </trkpt>
      <trkpt lat="44.18781" lon="4.33921">
        <ele>287.015</ele>
        <time>2015-05-03T08:59:12.620Z</time>
      </trkpt>
      <trkpt lat="44.18781" lon="4.33906">
        <ele>286.919</ele>
        <time>2015-05-03T08:59:16.368Z</time>
      </trkpt>
      <trkpt lat="44.18781" lon="4.33892">
        <ele>286.539</ele>
        <time>2015-05-03T08:59:19.614Z</time>
      </trkpt>
      <trkpt lat="44.1878" lon="4.33877">
        <ele>286.115</ele>
        <time>2015-05-03T08:59:22.819Z</time>
      </trkpt>
      <trkpt lat="44.18779" lon="4.33862">
        <ele>285.821</ele>
        <time>2015-05-03T08:59:26.059Z</time>
      </trkpt>
      <trkpt lat="44.18778" lon="4.33847">
        <ele>285.648</ele>
        <time>2015-05-03T08:59:29.113Z</time>
      </trkpt>
      <trkpt lat="44.1878" lon="4.33832">
        <ele>285.426</ele>
        <time>2015-05-03T08:59:32.097Z</time>
      </trkpt>
      <trkpt lat="44.1878" lon="4.33814">
        <ele>285.198</ele>
        <time>2015-05-03T08:59:35.573Z</time>
      </trkpt>
      <trkpt lat="44.18782" lon="4.33798">
        <ele>285.18</ele>
        <time>2015-05-03T08:59:38.722Z</time>
      </trkpt>
      <trkpt lat="44.18785" lon="4.33779">
        <ele>285.365</ele>
        <time>2015-05-03T08:59:41.966Z</time>
      </trkpt>
      <trkpt lat="44.18786" lon="4.33767">
        <ele>285.607</ele>
        <time>2015-05-03T08:59:44.133Z</time>
      </trkpt>
      <trkpt lat="44.18787" lon="4.33753">
        <ele>285.721</ele>
        <time>2015-05-03T08:59:46.280Z</time>
      </trkpt>
      <trkpt lat="44.18787" lon="4.33735">
        <ele>285.52</ele>
        <time>2015-05-03T08:59:49.241Z</time>
      </trkpt>
      <trkpt lat="44.18789" lon="4.33717">
        <ele>285.107</ele>
        <time>2015-05-03T08:59:52.168Z</time>
      </trkpt>
      <trkpt lat="44.18791" lon="4.337">
        <ele>284.795</ele>
        <time>2015-05-03T08:59:55.003Z</time>
      </trkpt>
      <trkpt lat="44.18792" lon="4.33682">
        <ele>284.829</ele>
        <time>2015-05-03T08:59:57.897Z</time>
      </trkpt>
      <trkpt lat="44.18794" lon="4.33666">
        <ele>285.219</ele>
        <time>2015-05-03T09:00:00.597Z</time>
      </trkpt>
      <trkpt lat="44.18799" lon="4.33655">
        <ele>285.687</ele>
        <time>2015-05-03T09:00:03.061Z</time>
      </trkpt>
      <trkpt lat="44.18801" lon="4.33642">
        <ele>286.31</ele>
        <time>2015-05-03T09:00:05.780Z</time>
      </trkpt>
      <trkpt lat="44.18798" lon="4.33627">
        <ele>287.274</ele>
        <time>2015-05-03T09:00:09.472Z</time>
      </trkpt>
      <trkpt lat="44.18796" lon="4.33612">
        <ele>288.14</ele>
        <time>2015-05-03T09:00:13.473Z</time>
      </trkpt>
      <trkpt lat="44.18794" lon="4.33596">
        <ele>288.504</ele>
        <time>2015-05-03T09:00:17.764Z</time>
      </trkpt>
      <trkpt lat="44.18791" lon="4.33584">
        <ele>288.685</ele>
        <time>2015-05-03T09:00:21.244Z</time>
      </trkpt>
      <trkpt lat="44.18788" lon="4.33569">
        <ele>289.017</ele>
        <time>2015-05-03T09:00:25.121Z</time>
      </trkpt>
      <trkpt lat="44.18786" lon="4.33555">
        <ele>289.343</ele>
        <time>2015-05-03T09:00:28.730Z</time>
      </trkpt>
      <trkpt lat="44.18783" lon="4.3354">
        <ele>289.425</ele>
        <time>2015-05-03T09:00:32.598Z</time>
      </trkpt>
      <trkpt lat="44.1878" lon="4.33525">
        <ele>289.272</ele>
        <time>2015-05-03T09:00:36.816Z</time>
      </trkpt>
      <trkpt lat="44.18778" lon="4.33512">
        <ele>289.062</ele>
        <time>2015-05-03T09:00:40.082Z</time>
      </trkpt>
      <trkpt lat="44.18775" lon="4.33496">
        <ele>289.05</ele>
        <time>2015-05-03T09:00:44.299Z</time>
      </trkpt>
      <trkpt lat="44.18771" lon="4.33481">
        <ele>289.518</ele>
        <time>2015-05-03T09:00:48.265Z</time>
      </trkpt>
      <trkpt lat="44.18767" lon="4.33467">
        <ele>290.473</ele>
        <time>2015-05-03T09:00:51.748Z</time>
      </trkpt>
      <trkpt lat="44.18761" lon="4.33453">
        <ele>291.446</ele>
        <time>2015-05-03T09:00:55.538Z</time>
      </trkpt>
      <trkpt lat="44.18756" lon="4.33438">
        <ele>291.969</ele>
        <time>2015-05-03T09:00:59.718Z</time>
      </trkpt>
      <trkpt lat="44.1875" lon="4.33425">
        <ele>292.063</ele>
        <time>2015-05-03T09:01:03.188Z</time>
      </trkpt>
      <trkpt lat="44.18746" lon="4.33413">
        <ele>292.067</ele>
        <time>2015-05-03T09:01:06.112Z</time>
      </trkpt>
      <trkpt lat="44.18741" lon="4.334">
        <ele>292.28</ele>
        <time>2015-05-03T09:01:09.301Z</time>
      </trkpt>
      <trkpt lat="44.18739" lon="4.33386">
        <ele>292.62</ele>
        <time>2015-05-03T09:01:12.388Z</time>
      </trkpt>
      <trkpt lat="44.18736" lon="4.33371">
        <ele>292.849</ele>
        <time>2015-05-03T09:01:15.696Z</time>
      </trkpt>
      <trkpt lat="44.18732" lon="4.33358">
        <ele>292.898</ele>
        <time>2015-05-03T09:01:18.716Z</time>
      </trkpt>
      <trkpt lat="44.18727" lon="4.33345">
        <ele>292.985</ele>
        <time>2015-05-03T09:01:21.689Z</time>
      </trkpt>
      <trkpt lat="44.1872" lon="4.33331">
        <ele>293.256</ele>
        <time>2015-05-03T09:01:25.251Z</time>
      </trkpt>
      <trkpt lat="44.18714" lon="4.33318">
        <ele>293.489</ele>
        <time>2015-05-03T09:01:28.545Z</time>
      </trkpt>
      <trkpt lat="44.18708" lon="4.33309">
        <ele>293.528</ele>
        <time>2015-05-03T09:01:31.560Z</time>
      </trkpt>
      <trkpt lat="44.18701" lon="4.33299">
        <ele>293.552</ele>
        <time>2015-05-03T09:01:34.806Z</time>
      </trkpt>
      <trkpt lat="44.18694" lon="4.3329">
        <ele>293.682</ele>
        <time>2015-05-03T09:01:37.919Z</time>
      </trkpt>
      <trkpt lat="44.18686" lon="4.33278">
        <ele>293.854</ele>
        <time>2015-05-03T09:01:41.469Z</time>
      </trkpt>
      <trkpt lat="44.18678" lon="4.33265">
        <ele>293.89</ele>
        <time>2015-05-03T09:01:45.014Z</time>
      </trkpt>
      <trkpt lat="44.18672" lon="4.33255">
        <ele>293.744</ele>
        <time>2015-05-03T09:01:47.570Z</time>
      </trkpt>
      <trkpt lat="44.18664" lon="4.3324">
        <ele>293.664</ele>
        <time>2015-05-03T09:01:51.214Z</time>
      </trkpt>
      <trkpt lat="44.18657" lon="4.33223">
        <ele>293.844</ele>
        <time>2015-05-03T09:01:54.666Z</time>
      </trkpt>
      <trkpt lat="44.18651" lon="4.33205">
        <ele>293.765</ele>
        <time>2015-05-03T09:01:58.044Z</time>
      </trkpt>
      <trkpt lat="44.18645" lon="4.33187">
        <ele>293.013</ele>
        <time>2015-05-03T09:02:01.175Z</time>
      </trkpt>
      <trkpt lat="44.18639" lon="4.33168">
        <ele>292.021</ele>
        <time>2015-05-03T09:02:04.439Z</time>
      </trkpt>
      <trkpt lat="44.18635" lon="4.33153">
        <ele>291.427</ele>
        <time>2015-05-03T09:02:07.066Z</time>
      </trkpt>
      <trkpt lat="44.18633" lon="4.33136">
        <ele>291.442</ele>
        <time>2015-05-03T09:02:09.833Z</time>
      </trkpt>
      <trkpt lat="44.18626" lon="4.3312">
        <ele>291.834</ele>
        <time>2015-05-03T09:02:12.876Z</time>
      </trkpt>
      <trkpt lat="44.18618" lon="4.33106">
        <ele>291.832</ele>
        <time>2015-05-03T09:02:15.854Z</time>
      </trkpt>
      <trkpt lat="44.18614" lon="4.33094">
        <ele>291.095</ele>
        <time>2015-05-03T09:02:18.322Z</time>
      </trkpt>
      <trkpt lat="44.18611" lon="4.33076">
        <ele>290.762</ele>
        <time>2015-05-03T09:02:21.494Z</time>
      </trkpt>
      <trkpt lat="44.1861" lon="4.3306">
        <ele>291.842</ele>
        <time>2015-05-03T09:02:24.486Z</time>
      </trkpt>
      <trkpt lat="44.18607" lon="4.33044">
        <ele>293.48</ele>
        <time>2015-05-03T09:02:27.635Z</time>
      </trkpt>
      <trkpt lat="44.18605" lon="4.3303">
        <ele>294.585</ele>
        <time>2015-05-03T09:02:30.444Z</time>
      </trkpt>
      <trkpt lat="44.18603" lon="4.33014">
        <ele>295.477</ele>
        <time>2015-05-03T09:02:33.584Z</time>
      </trkpt>
      <trkpt lat="44.18601" lon="4.33001">
        <ele>296.615</ele>
        <time>2015-05-03T09:02:36.314Z</time>
      </trkpt>
      <trkpt lat="44.186" lon="4.32986">
        <ele>297.854</ele>
        <time>2015-05-03T09:02:39.810Z</time>
      </trkpt>
      <trkpt lat="44.186" lon="4.32986">
        <ele>298.632</ele>
        <time>2015-05-03T09:02:39.810Z</time>
      </trkpt>
      <trkpt lat="44.186" lon="4.32986">
        <ele>298.666</ele>
        <time>2015-05-03T09:02:39.910Z</time>
      </trkpt>
      <trkpt lat="44.18601" lon="4.32966">
        <ele>298.367</ele>
        <time>2015-05-03T09:02:46.625Z</time>
      </trkpt>
      <trkpt lat="44.18603" lon="4.32951">
        <ele>298.386</ele>
        <time>2015-05-03T09:02:49.755Z</time>
      </trkpt>
      <trkpt lat="44.18605" lon="4.32938">
        <ele>298.844</ele>
        <time>2015-05-03T09:02:52.733Z</time>
      </trkpt>
      <trkpt lat="44.18596" lon="4.32931">
        <ele>299.493</ele>
        <time>2015-05-03T09:02:56.174Z</time>
      </trkpt>
      <trkpt lat="44.18586" lon="4.32934">
        <ele>299.793</ele>
        <time>2015-05-03T09:02:59.985Z</time>
      </trkpt>
      <trkpt lat="44.18576" lon="4.32936">
        <ele>299.561</ele>
        <time>2015-05-03T09:03:04.370Z</time>
      </trkpt>
      <trkpt lat="44.18566" lon="4.32939">
        <ele>299.677</ele>
        <time>2015-05-03T09:03:08.323Z</time>
      </trkpt>
      <trkpt lat="44.18554" lon="4.3294">
        <ele>300.85</ele>
        <time>2015-05-03T09:03:12.522Z</time>
      </trkpt>
      <trkpt lat="44.18542" lon="4.32941">
        <ele>302.314</ele>
        <time>2015-05-03T09:03:15.847Z</time>
      </trkpt>
      <trkpt lat="44.18529" lon="4.32942">
        <ele>303.087</ele>
        <time>2015-05-03T09:03:18.720Z</time>
      </trkpt>
      <trkpt lat="44.18516" lon="4.32944">
        <ele>302.94</ele>
        <time>2015-05-03T09:03:21.666Z</time>
      </trkpt>
      <trkpt lat="44.18507" lon="4.32944">
        <ele>301.317</ele>
        <time>2015-05-03T09:03:24.312Z</time>
      </trkpt>
      <trkpt lat="44.18501" lon="4.32956">
        <ele>297.725</ele>
        <time>2015-05-03T09:03:27.166Z</time>
      </trkpt>
      <trkpt lat="44.18507" lon="4.32966">
        <ele>293.443</ele>
        <time>2015-05-03T09:03:30.917Z</time>
      </trkpt>
      <trkpt lat="44.18509" lon="4.32978">
        <ele>290.875</ele>
        <time>2015-05-03T09:03:36.725Z</time>
      </trkpt>
      <trkpt lat="44.1851" lon="4.32994">
        <ele>290.798</ele>
        <time>2015-05-03T09:03:41.584Z</time>
      </trkpt>
      <trkpt lat="44.1851" lon="4.33007">
        <ele>291.847</ele>
        <time>2015-05-03T09:03:44.810Z</time>
      </trkpt>
      <trkpt lat="44.1851" lon="4.33007">
        <ele>292.441</ele>
        <time>2015-05-03T09:03:46.812Z</time>
      </trkpt>
      <trkpt lat="44.1851" lon="4.33007">
        <ele>292.244</ele>
        <time>2015-05-03T09:03:46.912Z</time>
      </trkpt>
      <trkpt lat="44.18509" lon="4.33037">
        <ele>291.868</ele>
        <time>2015-05-03T09:03:57.805Z</time>
      </trkpt>
      <trkpt lat="44.18509" lon="4.33047">
        <ele>291.782</ele>
        <time>2015-05-03T09:04:14.807Z</time>
      </trkpt>
    </trkseg>
  </trk>
</gpx>